<?xml version="1.0" encoding="UTF-8" standalone="no" ?>
<gpx xmlns="http://www.topografix.com/GPX/1/1" xmlns:xsi="http://www.w3.org/2001/XMLSchema-instance" xsi:schemaLocation="http://www.topografix.com/GPX/1/1 http://www.topografix.com/GPX/1/1/gpx.xsd" version="1.1" creator="VisuGPX - https://www.visugpx.com">
  <metadata>
    <name>20200719-Moret-Veneux-les-Sablons</name>
    <desc><![CDATA[Randonnée du dimanche, suivant le GR 13]]></desc>
  </metadata>
  <trk>
    <name><![CDATA[20200719-Moret-Veneux-les-Sablons]]></name>
    <trkseg>
      <trkpt lat="48.3782" lon="2.79995">
        <ele>73.429883727744</ele>
        <time>2020-07-19T09:10:22Z</time>
      </trkpt>
      <trkpt lat="48.37828" lon="2.79994">
        <ele>73.667072869348</ele>
        <time>2020-07-19T09:10:29Z</time>
      </trkpt>
      <trkpt lat="48.37836" lon="2.8">
        <ele>77.638010572666</ele>
        <time>2020-07-19T09:10:36Z</time>
      </trkpt>
      <trkpt lat="48.37834" lon="2.80012">
        <ele>79.961100572415</ele>
        <time>2020-07-19T09:11:40Z</time>
      </trkpt>
      <trkpt lat="48.37831" lon="2.80023">
        <ele>79.964061293259</ele>
        <time>2020-07-19T09:11:45Z</time>
      </trkpt>
      <trkpt lat="48.37828" lon="2.80035">
        <ele>79.907807903695</ele>
        <time>2020-07-19T09:12:02Z</time>
      </trkpt>
      <trkpt lat="48.37826" lon="2.80048">
        <ele>79.727279166813</ele>
        <time>2020-07-19T09:12:15Z</time>
      </trkpt>
      <trkpt lat="48.37821" lon="2.80059">
        <ele>79.558564542607</ele>
        <time>2020-07-19T09:12:24Z</time>
      </trkpt>
      <trkpt lat="48.37815" lon="2.80068">
        <ele>79.375854404253</ele>
        <time>2020-07-19T09:12:36Z</time>
      </trkpt>
      <trkpt lat="48.37811" lon="2.80079">
        <ele>79.229242838611</ele>
        <time>2020-07-19T09:12:47Z</time>
      </trkpt>
      <trkpt lat="48.37807" lon="2.8009">
        <ele>79.186901628938</ele>
        <time>2020-07-19T09:13:00Z</time>
      </trkpt>
      <trkpt lat="48.378" lon="2.801">
        <ele>79.087557369833</ele>
        <time>2020-07-19T09:13:17Z</time>
      </trkpt>
      <trkpt lat="48.37796" lon="2.80109">
        <ele>79.047600136364</ele>
        <time>2020-07-19T09:13:22Z</time>
      </trkpt>
      <trkpt lat="48.37791" lon="2.80119">
        <ele>79.003433212815</ele>
        <time>2020-07-19T09:13:29Z</time>
      </trkpt>
      <trkpt lat="48.37785" lon="2.80129">
        <ele>78.960916746628</ele>
        <time>2020-07-19T09:13:36Z</time>
      </trkpt>
      <trkpt lat="48.37779" lon="2.80138">
        <ele>78.925062038907</ele>
        <time>2020-07-19T09:13:43Z</time>
      </trkpt>
      <trkpt lat="48.37772" lon="2.80145">
        <ele>78.887637921568</ele>
        <time>2020-07-19T09:13:51Z</time>
      </trkpt>
      <trkpt lat="48.37767" lon="2.80153">
        <ele>78.865292543317</ele>
        <time>2020-07-19T09:13:58Z</time>
      </trkpt>
      <trkpt lat="48.37764" lon="2.80166">
        <ele>78.855853336048</ele>
        <time>2020-07-19T09:14:03Z</time>
      </trkpt>
      <trkpt lat="48.3776" lon="2.80176">
        <ele>78.849978663459</ele>
        <time>2020-07-19T09:14:10Z</time>
      </trkpt>
      <trkpt lat="48.37755" lon="2.80187">
        <ele>78.852721259017</ele>
        <time>2020-07-19T09:14:16Z</time>
      </trkpt>
      <trkpt lat="48.37751" lon="2.80197">
        <ele>78.862222982601</ele>
        <time>2020-07-19T09:14:23Z</time>
      </trkpt>
      <trkpt lat="48.37743" lon="2.802">
        <ele>78.877283949305</ele>
        <time>2020-07-19T09:14:30Z</time>
      </trkpt>
      <trkpt lat="48.37737" lon="2.80208">
        <ele>78.889209373825</ele>
        <time>2020-07-19T09:14:36Z</time>
      </trkpt>
      <trkpt lat="48.37733" lon="2.80219">
        <ele>78.902062970443</ele>
        <time>2020-07-19T09:14:41Z</time>
      </trkpt>
      <trkpt lat="48.37728" lon="2.80229">
        <ele>78.922036408772</ele>
        <time>2020-07-19T09:14:47Z</time>
      </trkpt>
      <trkpt lat="48.37722" lon="2.80238">
        <ele>78.952940461233</ele>
        <time>2020-07-19T09:14:56Z</time>
      </trkpt>
      <trkpt lat="48.37718" lon="2.8025">
        <ele>78.977840406597</ele>
        <time>2020-07-19T09:15:03Z</time>
      </trkpt>
      <trkpt lat="48.37714" lon="2.80261">
        <ele>78.998500010812</ele>
        <time>2020-07-19T09:15:10Z</time>
      </trkpt>
      <trkpt lat="48.3771" lon="2.80271">
        <ele>79.01016287596</ele>
        <time>2020-07-19T09:15:15Z</time>
      </trkpt>
      <trkpt lat="48.37705" lon="2.80281">
        <ele>79.02049169667</ele>
        <time>2020-07-19T09:15:20Z</time>
      </trkpt>
      <trkpt lat="48.37699" lon="2.80288">
        <ele>79.038280776122</ele>
        <time>2020-07-19T09:15:27Z</time>
      </trkpt>
      <trkpt lat="48.37694" lon="2.80298">
        <ele>79.056616810135</ele>
        <time>2020-07-19T09:15:32Z</time>
      </trkpt>
      <trkpt lat="48.3769" lon="2.8031">
        <ele>79.08032694164</ele>
        <time>2020-07-19T09:15:38Z</time>
      </trkpt>
      <trkpt lat="48.37687" lon="2.80322">
        <ele>79.101068465559</ele>
        <time>2020-07-19T09:15:45Z</time>
      </trkpt>
      <trkpt lat="48.3768" lon="2.8033">
        <ele>79.117670257238</ele>
        <time>2020-07-19T09:15:50Z</time>
      </trkpt>
      <trkpt lat="48.37675" lon="2.80338">
        <ele>79.126130379127</ele>
        <time>2020-07-19T09:15:55Z</time>
      </trkpt>
      <trkpt lat="48.3767" lon="2.8035">
        <ele>79.130347564657</ele>
        <time>2020-07-19T09:16:02Z</time>
      </trkpt>
      <trkpt lat="48.37667" lon="2.80364">
        <ele>79.129509612592</ele>
        <time>2020-07-19T09:16:07Z</time>
      </trkpt>
      <trkpt lat="48.37662" lon="2.80374">
        <ele>79.127418595091</ele>
        <time>2020-07-19T09:16:13Z</time>
      </trkpt>
      <trkpt lat="48.37658" lon="2.80385">
        <ele>79.085893525625</ele>
        <time>2020-07-19T09:16:23Z</time>
      </trkpt>
      <trkpt lat="48.37652" lon="2.80388">
        <ele>79.062568809907</ele>
        <time>2020-07-19T09:16:30Z</time>
      </trkpt>
      <trkpt lat="48.3764" lon="2.80404">
        <ele>79.058005995278</ele>
        <time>2020-07-19T09:16:35Z</time>
      </trkpt>
      <trkpt lat="48.37636" lon="2.80416">
        <ele>79.052017707808</ele>
        <time>2020-07-19T09:16:45Z</time>
      </trkpt>
      <trkpt lat="48.37635" lon="2.80431">
        <ele>79.054888692446</ele>
        <time>2020-07-19T09:16:49Z</time>
      </trkpt>
      <trkpt lat="48.37632" lon="2.80441">
        <ele>79.05063098917</ele>
        <time>2020-07-19T09:16:55Z</time>
      </trkpt>
      <trkpt lat="48.37632" lon="2.80453">
        <ele>79.030261466005</ele>
        <time>2020-07-19T09:17:02Z</time>
      </trkpt>
      <trkpt lat="48.3763" lon="2.80466">
        <ele>79.017065222942</ele>
        <time>2020-07-19T09:17:07Z</time>
      </trkpt>
      <trkpt lat="48.37626" lon="2.80475">
        <ele>78.999524224261</ele>
        <time>2020-07-19T09:17:13Z</time>
      </trkpt>
      <trkpt lat="48.37622" lon="2.80486">
        <ele>78.982291262249</ele>
        <time>2020-07-19T09:17:21Z</time>
      </trkpt>
      <trkpt lat="48.37619" lon="2.80497">
        <ele>78.962307713859</ele>
        <time>2020-07-19T09:17:26Z</time>
      </trkpt>
      <trkpt lat="48.37615" lon="2.80507">
        <ele>78.939185273442</ele>
        <time>2020-07-19T09:17:32Z</time>
      </trkpt>
      <trkpt lat="48.37608" lon="2.80514">
        <ele>78.90780511624</ele>
        <time>2020-07-19T09:17:40Z</time>
      </trkpt>
      <trkpt lat="48.37604" lon="2.80524">
        <ele>78.872931298742</ele>
        <time>2020-07-19T09:17:47Z</time>
      </trkpt>
      <trkpt lat="48.37604" lon="2.80537">
        <ele>78.83850473737</ele>
        <time>2020-07-19T09:17:53Z</time>
      </trkpt>
      <trkpt lat="48.37602" lon="2.80549">
        <ele>78.795884367742</ele>
        <time>2020-07-19T09:18:00Z</time>
      </trkpt>
      <trkpt lat="48.37595" lon="2.80557">
        <ele>78.749372729769</ele>
        <time>2020-07-19T09:18:07Z</time>
      </trkpt>
      <trkpt lat="48.37591" lon="2.80568">
        <ele>78.695329105794</ele>
        <time>2020-07-19T09:18:14Z</time>
      </trkpt>
      <trkpt lat="48.37587" lon="2.8058">
        <ele>78.647553442534</ele>
        <time>2020-07-19T09:18:21Z</time>
      </trkpt>
      <trkpt lat="48.37588" lon="2.80599">
        <ele>78.617454759788</ele>
        <time>2020-07-19T09:18:26Z</time>
      </trkpt>
      <trkpt lat="48.37587" lon="2.80612">
        <ele>78.578358904733</ele>
        <time>2020-07-19T09:18:33Z</time>
      </trkpt>
      <trkpt lat="48.37588" lon="2.80624">
        <ele>78.556777981766</ele>
        <time>2020-07-19T09:18:37Z</time>
      </trkpt>
      <trkpt lat="48.37584" lon="2.80636">
        <ele>78.531364677014</ele>
        <time>2020-07-19T09:18:42Z</time>
      </trkpt>
      <trkpt lat="48.37584" lon="2.80653">
        <ele>78.502685422984</ele>
        <time>2020-07-19T09:18:46Z</time>
      </trkpt>
      <trkpt lat="48.37581" lon="2.80664">
        <ele>78.444411145181</ele>
        <time>2020-07-19T09:18:53Z</time>
      </trkpt>
      <trkpt lat="48.37577" lon="2.80675">
        <ele>78.367325780846</ele>
        <time>2020-07-19T09:18:59Z</time>
      </trkpt>
      <trkpt lat="48.37574" lon="2.80687">
        <ele>78.258209629779</ele>
        <time>2020-07-19T09:19:05Z</time>
      </trkpt>
      <trkpt lat="48.37571" lon="2.80698">
        <ele>78.133121103224</ele>
        <time>2020-07-19T09:19:12Z</time>
      </trkpt>
      <trkpt lat="48.37566" lon="2.80708">
        <ele>78.04609799631</ele>
        <time>2020-07-19T09:19:17Z</time>
      </trkpt>
      <trkpt lat="48.37558" lon="2.80714">
        <ele>77.861165279328</ele>
        <time>2020-07-19T09:19:29Z</time>
      </trkpt>
      <trkpt lat="48.37551" lon="2.80719">
        <ele>77.794064642364</ele>
        <time>2020-07-19T09:19:34Z</time>
      </trkpt>
      <trkpt lat="48.37549" lon="2.80732">
        <ele>77.729192586664</ele>
        <time>2020-07-19T09:19:39Z</time>
      </trkpt>
      <trkpt lat="48.37547" lon="2.80744">
        <ele>77.667164097222</ele>
        <time>2020-07-19T09:19:44Z</time>
      </trkpt>
      <trkpt lat="48.37544" lon="2.80756">
        <ele>77.588507127856</ele>
        <time>2020-07-19T09:19:51Z</time>
      </trkpt>
      <trkpt lat="48.37537" lon="2.80764">
        <ele>77.498295834872</ele>
        <time>2020-07-19T09:20:00Z</time>
      </trkpt>
      <trkpt lat="48.37532" lon="2.80775">
        <ele>77.443198042157</ele>
        <time>2020-07-19T09:20:05Z</time>
      </trkpt>
      <trkpt lat="48.3753" lon="2.80788">
        <ele>77.354933232417</ele>
        <time>2020-07-19T09:20:12Z</time>
      </trkpt>
      <trkpt lat="48.37528" lon="2.80801">
        <ele>77.257693731343</ele>
        <time>2020-07-19T09:20:20Z</time>
      </trkpt>
      <trkpt lat="48.37526" lon="2.80812">
        <ele>77.186330979084</ele>
        <time>2020-07-19T09:20:26Z</time>
      </trkpt>
      <trkpt lat="48.37521" lon="2.8082">
        <ele>77.111859288468</ele>
        <time>2020-07-19T09:20:33Z</time>
      </trkpt>
      <trkpt lat="48.37518" lon="2.80831">
        <ele>77.051172686074</ele>
        <time>2020-07-19T09:20:38Z</time>
      </trkpt>
      <trkpt lat="48.37517" lon="2.80846">
        <ele>76.996302002067</ele>
        <time>2020-07-19T09:20:42Z</time>
      </trkpt>
      <trkpt lat="48.37516" lon="2.80858">
        <ele>76.944445203243</ele>
        <time>2020-07-19T09:20:47Z</time>
      </trkpt>
      <trkpt lat="48.37513" lon="2.80867">
        <ele>76.894248237083</ele>
        <time>2020-07-19T09:20:52Z</time>
      </trkpt>
      <trkpt lat="48.37513" lon="2.80879">
        <ele>76.84440997925</ele>
        <time>2020-07-19T09:20:58Z</time>
      </trkpt>
      <trkpt lat="48.3751" lon="2.8089">
        <ele>76.782647507208</ele>
        <time>2020-07-19T09:21:03Z</time>
      </trkpt>
      <trkpt lat="48.37506" lon="2.80899">
        <ele>76.732802315388</ele>
        <time>2020-07-19T09:21:08Z</time>
      </trkpt>
      <trkpt lat="48.37504" lon="2.8091">
        <ele>76.693949584478</ele>
        <time>2020-07-19T09:21:12Z</time>
      </trkpt>
      <trkpt lat="48.37502" lon="2.80923">
        <ele>76.623951951083</ele>
        <time>2020-07-19T09:21:19Z</time>
      </trkpt>
      <trkpt lat="48.37496" lon="2.80932">
        <ele>76.522792069279</ele>
        <time>2020-07-19T09:21:30Z</time>
      </trkpt>
      <trkpt lat="48.37492" lon="2.80942">
        <ele>76.462381611801</ele>
        <time>2020-07-19T09:21:36Z</time>
      </trkpt>
      <trkpt lat="48.37489" lon="2.80953">
        <ele>76.415169291371</ele>
        <time>2020-07-19T09:21:42Z</time>
      </trkpt>
      <trkpt lat="48.37484" lon="2.80966">
        <ele>76.373152247942</ele>
        <time>2020-07-19T09:21:47Z</time>
      </trkpt>
      <trkpt lat="48.37486" lon="2.80978">
        <ele>76.272972448492</ele>
        <time>2020-07-19T09:22:06Z</time>
      </trkpt>
      <trkpt lat="48.37486" lon="2.80992">
        <ele>76.185973341184</ele>
        <time>2020-07-19T09:22:22Z</time>
      </trkpt>
      <trkpt lat="48.37482" lon="2.81003">
        <ele>76.08983411396</ele>
        <time>2020-07-19T09:22:30Z</time>
      </trkpt>
      <trkpt lat="48.37479" lon="2.81014">
        <ele>76.025479177949</ele>
        <time>2020-07-19T09:22:37Z</time>
      </trkpt>
      <trkpt lat="48.37477" lon="2.81027">
        <ele>75.95403074565</ele>
        <time>2020-07-19T09:22:43Z</time>
      </trkpt>
      <trkpt lat="48.37474" lon="2.81037">
        <ele>75.907340246204</ele>
        <time>2020-07-19T09:22:48Z</time>
      </trkpt>
      <trkpt lat="48.37474" lon="2.8105">
        <ele>75.845394314999</ele>
        <time>2020-07-19T09:22:54Z</time>
      </trkpt>
      <trkpt lat="48.37477" lon="2.81063">
        <ele>75.779445679384</ele>
        <time>2020-07-19T09:22:59Z</time>
      </trkpt>
      <trkpt lat="48.37473" lon="2.81075">
        <ele>75.694482790027</ele>
        <time>2020-07-19T09:23:05Z</time>
      </trkpt>
      <trkpt lat="48.37468" lon="2.81084">
        <ele>75.604796132492</ele>
        <time>2020-07-19T09:23:12Z</time>
      </trkpt>
      <trkpt lat="48.37465" lon="2.81096">
        <ele>75.525510394201</ele>
        <time>2020-07-19T09:23:19Z</time>
      </trkpt>
      <trkpt lat="48.37458" lon="2.81103">
        <ele>75.408858669708</ele>
        <time>2020-07-19T09:23:32Z</time>
      </trkpt>
      <trkpt lat="48.3746" lon="2.81115">
        <ele>75.387704677667</ele>
        <time>2020-07-19T09:23:36Z</time>
      </trkpt>
      <trkpt lat="48.3746" lon="2.81131">
        <ele>75.373525781556</ele>
        <time>2020-07-19T09:23:41Z</time>
      </trkpt>
      <trkpt lat="48.37462" lon="2.81141">
        <ele>75.368312929027</ele>
        <time>2020-07-19T09:23:45Z</time>
      </trkpt>
      <trkpt lat="48.3746" lon="2.81153">
        <ele>75.365282307295</ele>
        <time>2020-07-19T09:23:50Z</time>
      </trkpt>
      <trkpt lat="48.37458" lon="2.81163">
        <ele>75.364517482203</ele>
        <time>2020-07-19T09:23:55Z</time>
      </trkpt>
      <trkpt lat="48.37456" lon="2.81175">
        <ele>75.35426614243</ele>
        <time>2020-07-19T09:24:02Z</time>
      </trkpt>
      <trkpt lat="48.37454" lon="2.81188">
        <ele>75.340685330937</ele>
        <time>2020-07-19T09:24:08Z</time>
      </trkpt>
      <trkpt lat="48.37455" lon="2.81202">
        <ele>75.318458828116</ele>
        <time>2020-07-19T09:24:14Z</time>
      </trkpt>
      <trkpt lat="48.3745" lon="2.81213">
        <ele>75.296942303921</ele>
        <time>2020-07-19T09:24:19Z</time>
      </trkpt>
      <trkpt lat="48.37446" lon="2.81224">
        <ele>75.26629114173</ele>
        <time>2020-07-19T09:24:25Z</time>
      </trkpt>
      <trkpt lat="48.37442" lon="2.81236">
        <ele>75.230764077479</ele>
        <time>2020-07-19T09:24:31Z</time>
      </trkpt>
      <trkpt lat="48.37437" lon="2.81246">
        <ele>75.171885613002</ele>
        <time>2020-07-19T09:24:39Z</time>
      </trkpt>
      <trkpt lat="48.37431" lon="2.81255">
        <ele>75.117402991929</ele>
        <time>2020-07-19T09:24:46Z</time>
      </trkpt>
      <trkpt lat="48.37427" lon="2.81266">
        <ele>75.060279895525</ele>
        <time>2020-07-19T09:24:56Z</time>
      </trkpt>
      <trkpt lat="48.37425" lon="2.8128">
        <ele>75.041515786146</ele>
        <time>2020-07-19T09:25:00Z</time>
      </trkpt>
      <trkpt lat="48.37426" lon="2.81291">
        <ele>75.011607497533</ele>
        <time>2020-07-19T09:25:06Z</time>
      </trkpt>
      <trkpt lat="48.37425" lon="2.81303">
        <ele>74.986709127421</ele>
        <time>2020-07-19T09:25:10Z</time>
      </trkpt>
      <trkpt lat="48.37423" lon="2.81316">
        <ele>74.937616861832</ele>
        <time>2020-07-19T09:25:17Z</time>
      </trkpt>
      <trkpt lat="48.37418" lon="2.81325">
        <ele>74.88836878229</ele>
        <time>2020-07-19T09:25:24Z</time>
      </trkpt>
      <trkpt lat="48.37415" lon="2.81335">
        <ele>74.862090722796</ele>
        <time>2020-07-19T09:25:29Z</time>
      </trkpt>
      <trkpt lat="48.37413" lon="2.81347">
        <ele>74.819100283857</ele>
        <time>2020-07-19T09:25:34Z</time>
      </trkpt>
      <trkpt lat="48.37411" lon="2.8136">
        <ele>74.775857677697</ele>
        <time>2020-07-19T09:25:40Z</time>
      </trkpt>
      <trkpt lat="48.37406" lon="2.81371">
        <ele>74.713853162457</ele>
        <time>2020-07-19T09:25:48Z</time>
      </trkpt>
      <trkpt lat="48.37401" lon="2.81381">
        <ele>74.637825982006</ele>
        <time>2020-07-19T09:25:58Z</time>
      </trkpt>
      <trkpt lat="48.37403" lon="2.81394">
        <ele>74.601728777031</ele>
        <time>2020-07-19T09:26:04Z</time>
      </trkpt>
      <trkpt lat="48.37401" lon="2.81407">
        <ele>74.565022763903</ele>
        <time>2020-07-19T09:26:10Z</time>
      </trkpt>
      <trkpt lat="48.37396" lon="2.81416">
        <ele>74.520799476765</ele>
        <time>2020-07-19T09:26:17Z</time>
      </trkpt>
      <trkpt lat="48.37388" lon="2.81429">
        <ele>74.479762860037</ele>
        <time>2020-07-19T09:26:22Z</time>
      </trkpt>
      <trkpt lat="48.37385" lon="2.8144">
        <ele>74.429433480981</ele>
        <time>2020-07-19T09:26:28Z</time>
      </trkpt>
      <trkpt lat="48.3738" lon="2.8145">
        <ele>74.31782196942</ele>
        <time>2020-07-19T09:26:37Z</time>
      </trkpt>
      <trkpt lat="48.37378" lon="2.81462">
        <ele>74.19450874252</ele>
        <time>2020-07-19T09:26:42Z</time>
      </trkpt>
      <trkpt lat="48.37376" lon="2.81473">
        <ele>74.065551516905</ele>
        <time>2020-07-19T09:26:49Z</time>
      </trkpt>
      <trkpt lat="48.37373" lon="2.81486">
        <ele>73.917790588234</ele>
        <time>2020-07-19T09:26:55Z</time>
      </trkpt>
      <trkpt lat="48.37371" lon="2.81498">
        <ele>73.784355506588</ele>
        <time>2020-07-19T09:27:01Z</time>
      </trkpt>
      <trkpt lat="48.37366" lon="2.81507">
        <ele>73.292101943653</ele>
        <time>2020-07-19T09:27:31Z</time>
      </trkpt>
      <trkpt lat="48.37358" lon="2.81511">
        <ele>73.122504583984</ele>
        <time>2020-07-19T09:27:38Z</time>
      </trkpt>
      <trkpt lat="48.37352" lon="2.8152">
        <ele>72.964857198391</ele>
        <time>2020-07-19T09:27:43Z</time>
      </trkpt>
      <trkpt lat="48.3735" lon="2.81531">
        <ele>72.194825297878</ele>
        <time>2020-07-19T09:28:35Z</time>
      </trkpt>
      <trkpt lat="48.37347" lon="2.81544">
        <ele>71.897407074972</ele>
        <time>2020-07-19T09:29:10Z</time>
      </trkpt>
      <trkpt lat="48.37344" lon="2.81555">
        <ele>71.635505337379</ele>
        <time>2020-07-19T09:29:19Z</time>
      </trkpt>
      <trkpt lat="48.3734" lon="2.81567">
        <ele>71.468363714886</ele>
        <time>2020-07-19T09:29:26Z</time>
      </trkpt>
      <trkpt lat="48.37338" lon="2.81579">
        <ele>71.274761547155</ele>
        <time>2020-07-19T09:29:36Z</time>
      </trkpt>
      <trkpt lat="48.37335" lon="2.81592">
        <ele>70.975149520297</ele>
        <time>2020-07-19T09:29:53Z</time>
      </trkpt>
      <trkpt lat="48.3733" lon="2.81601">
        <ele>70.855586993258</ele>
        <time>2020-07-19T09:30:00Z</time>
      </trkpt>
      <trkpt lat="48.37331" lon="2.81614">
        <ele>70.530406841035</ele>
        <time>2020-07-19T09:30:21Z</time>
      </trkpt>
      <trkpt lat="48.37325" lon="2.81623">
        <ele>70.285028726774</ele>
        <time>2020-07-19T09:30:30Z</time>
      </trkpt>
      <trkpt lat="48.37326" lon="2.81636">
        <ele>69.99222709561</ele>
        <time>2020-07-19T09:30:40Z</time>
      </trkpt>
      <trkpt lat="48.37332" lon="2.81645">
        <ele>69.530283247393</ele>
        <time>2020-07-19T09:31:02Z</time>
      </trkpt>
      <trkpt lat="48.37326" lon="2.81644">
        <ele>68.966194848149</ele>
        <time>2020-07-19T09:31:15Z</time>
      </trkpt>
      <trkpt lat="48.37318" lon="2.8164">
        <ele>68.943355281064</ele>
        <time>2020-07-19T09:31:20Z</time>
      </trkpt>
      <trkpt lat="48.3731" lon="2.81636">
        <ele>68.888200236968</ele>
        <time>2020-07-19T09:31:34Z</time>
      </trkpt>
      <trkpt lat="48.37303" lon="2.81632">
        <ele>68.874550693926</ele>
        <time>2020-07-19T09:31:38Z</time>
      </trkpt>
      <trkpt lat="48.37295" lon="2.81635">
        <ele>68.816689927124</ele>
        <time>2020-07-19T09:32:04Z</time>
      </trkpt>
      <trkpt lat="48.373" lon="2.81641">
        <ele>68.850351901051</ele>
        <time>2020-07-19T09:32:35Z</time>
      </trkpt>
      <trkpt lat="48.37305" lon="2.8165">
        <ele>68.837845556592</ele>
        <time>2020-07-19T09:32:41Z</time>
      </trkpt>
      <trkpt lat="48.37314" lon="2.81655">
        <ele>68.823475576716</ele>
        <time>2020-07-19T09:32:46Z</time>
      </trkpt>
      <trkpt lat="48.37319" lon="2.81663">
        <ele>68.77813102675</ele>
        <time>2020-07-19T09:32:58Z</time>
      </trkpt>
      <trkpt lat="48.37329" lon="2.81671">
        <ele>68.780947509512</ele>
        <time>2020-07-19T09:33:03Z</time>
      </trkpt>
      <trkpt lat="48.37336" lon="2.81684">
        <ele>68.689686258482</ele>
        <time>2020-07-19T09:33:07Z</time>
      </trkpt>
      <trkpt lat="48.37344" lon="2.81689">
        <ele>68.969113442236</ele>
        <time>2020-07-19T09:33:13Z</time>
      </trkpt>
      <trkpt lat="48.37336" lon="2.81695">
        <ele>69.269203396042</ele>
        <time>2020-07-19T09:33:22Z</time>
      </trkpt>
      <trkpt lat="48.37328" lon="2.8171">
        <ele>69.403295018806</ele>
        <time>2020-07-19T09:33:27Z</time>
      </trkpt>
      <trkpt lat="48.37321" lon="2.81714">
        <ele>69.461579277633</ele>
        <time>2020-07-19T09:33:34Z</time>
      </trkpt>
      <trkpt lat="48.37306" lon="2.81713">
        <ele>69.462588472121</ele>
        <time>2020-07-19T09:33:39Z</time>
      </trkpt>
      <trkpt lat="48.37293" lon="2.81708">
        <ele>69.48706881331</ele>
        <time>2020-07-19T09:33:44Z</time>
      </trkpt>
      <trkpt lat="48.37296" lon="2.81718">
        <ele>69.872612838229</ele>
        <time>2020-07-19T09:34:06Z</time>
      </trkpt>
      <trkpt lat="48.37302" lon="2.81727">
        <ele>70.023497741059</ele>
        <time>2020-07-19T09:34:14Z</time>
      </trkpt>
      <trkpt lat="48.37317" lon="2.81735">
        <ele>70.080917091114</ele>
        <time>2020-07-19T09:34:18Z</time>
      </trkpt>
      <trkpt lat="48.3731" lon="2.81736">
        <ele>70.022452053483</ele>
        <time>2020-07-19T09:34:25Z</time>
      </trkpt>
      <trkpt lat="48.37309" lon="2.81746">
        <ele>69.955242555635</ele>
        <time>2020-07-19T09:34:30Z</time>
      </trkpt>
      <trkpt lat="48.37302" lon="2.81753">
        <ele>69.342595131317</ele>
        <time>2020-07-19T09:35:25Z</time>
      </trkpt>
      <trkpt lat="48.37298" lon="2.81764">
        <ele>69.203953333608</ele>
        <time>2020-07-19T09:35:33Z</time>
      </trkpt>
      <trkpt lat="48.37294" lon="2.81776">
        <ele>69.125766859657</ele>
        <time>2020-07-19T09:35:39Z</time>
      </trkpt>
      <trkpt lat="48.37287" lon="2.81785">
        <ele>69.041662720521</ele>
        <time>2020-07-19T09:35:46Z</time>
      </trkpt>
      <trkpt lat="48.37284" lon="2.81796">
        <ele>68.961665628778</ele>
        <time>2020-07-19T09:35:53Z</time>
      </trkpt>
      <trkpt lat="48.37282" lon="2.81808">
        <ele>68.896251587187</ele>
        <time>2020-07-19T09:35:59Z</time>
      </trkpt>
      <trkpt lat="48.37278" lon="2.81819">
        <ele>68.829283977132</ele>
        <time>2020-07-19T09:36:06Z</time>
      </trkpt>
      <trkpt lat="48.37276" lon="2.81831">
        <ele>68.764024971766</ele>
        <time>2020-07-19T09:36:14Z</time>
      </trkpt>
      <trkpt lat="48.37275" lon="2.81843">
        <ele>68.608213882398</ele>
        <time>2020-07-19T09:36:23Z</time>
      </trkpt>
      <trkpt lat="48.37274" lon="2.81856">
        <ele>68.446018088303</ele>
        <time>2020-07-19T09:36:32Z</time>
      </trkpt>
      <trkpt lat="48.37272" lon="2.81867">
        <ele>68.350569555559</ele>
        <time>2020-07-19T09:36:39Z</time>
      </trkpt>
      <trkpt lat="48.37269" lon="2.81878">
        <ele>68.274069838241</ele>
        <time>2020-07-19T09:36:44Z</time>
      </trkpt>
      <trkpt lat="48.37263" lon="2.81888">
        <ele>67.879866654095</ele>
        <time>2020-07-19T09:36:57Z</time>
      </trkpt>
      <trkpt lat="48.37265" lon="2.81901">
        <ele>67.336209617897</ele>
        <time>2020-07-19T09:37:12Z</time>
      </trkpt>
      <trkpt lat="48.37263" lon="2.81914">
        <ele>65.755428749136</ele>
        <time>2020-07-19T09:37:53Z</time>
      </trkpt>
      <trkpt lat="48.3726" lon="2.81924">
        <ele>64.868944959179</ele>
        <time>2020-07-19T09:38:15Z</time>
      </trkpt>
      <trkpt lat="48.3726" lon="2.81937">
        <ele>64.539007023418</ele>
        <time>2020-07-19T09:38:20Z</time>
      </trkpt>
      <trkpt lat="48.37258" lon="2.81949">
        <ele>64.081236526038</ele>
        <time>2020-07-19T09:38:31Z</time>
      </trkpt>
      <trkpt lat="48.37257" lon="2.81962">
        <ele>63.663396391514</ele>
        <time>2020-07-19T09:38:43Z</time>
      </trkpt>
      <trkpt lat="48.37253" lon="2.81951">
        <ele>62.877930542065</ele>
        <time>2020-07-19T09:39:43Z</time>
      </trkpt>
      <trkpt lat="48.37253" lon="2.81938">
        <ele>62.009131992389</ele>
        <time>2020-07-19T09:40:20Z</time>
      </trkpt>
      <trkpt lat="48.37257" lon="2.81927">
        <ele>61.804946799023</ele>
        <time>2020-07-19T09:40:32Z</time>
      </trkpt>
      <trkpt lat="48.3726" lon="2.81915">
        <ele>61.65596338307</ele>
        <time>2020-07-19T09:40:40Z</time>
      </trkpt>
      <trkpt lat="48.37262" lon="2.81903">
        <ele>61.500067302261</ele>
        <time>2020-07-19T09:40:48Z</time>
      </trkpt>
      <trkpt lat="48.37264" lon="2.8189">
        <ele>61.28304824899</ele>
        <time>2020-07-19T09:41:00Z</time>
      </trkpt>
      <trkpt lat="48.37265" lon="2.81877">
        <ele>61.188471964754</ele>
        <time>2020-07-19T09:41:07Z</time>
      </trkpt>
      <trkpt lat="48.37269" lon="2.81865">
        <ele>60.948369876785</ele>
        <time>2020-07-19T09:41:30Z</time>
      </trkpt>
      <trkpt lat="48.37263" lon="2.8186">
        <ele>60.907089101291</ele>
        <time>2020-07-19T09:41:37Z</time>
      </trkpt>
      <trkpt lat="48.37255" lon="2.81857">
        <ele>60.863624289841</ele>
        <time>2020-07-19T09:41:42Z</time>
      </trkpt>
      <trkpt lat="48.37247" lon="2.81858">
        <ele>60.833725444744</ele>
        <time>2020-07-19T09:41:47Z</time>
      </trkpt>
      <trkpt lat="48.37239" lon="2.81857">
        <ele>60.801743329343</ele>
        <time>2020-07-19T09:41:53Z</time>
      </trkpt>
      <trkpt lat="48.37231" lon="2.81857">
        <ele>60.779606493646</ele>
        <time>2020-07-19T09:41:59Z</time>
      </trkpt>
      <trkpt lat="48.37224" lon="2.81857">
        <ele>60.757362023209</ele>
        <time>2020-07-19T09:42:05Z</time>
      </trkpt>
      <trkpt lat="48.37215" lon="2.81858">
        <ele>60.731165090429</ele>
        <time>2020-07-19T09:42:12Z</time>
      </trkpt>
      <trkpt lat="48.37209" lon="2.81849">
        <ele>60.692391004226</ele>
        <time>2020-07-19T09:42:22Z</time>
      </trkpt>
      <trkpt lat="48.37207" lon="2.81837">
        <ele>60.655792135687</ele>
        <time>2020-07-19T09:42:29Z</time>
      </trkpt>
      <trkpt lat="48.37206" lon="2.81824">
        <ele>60.619135318969</ele>
        <time>2020-07-19T09:42:36Z</time>
      </trkpt>
      <trkpt lat="48.37211" lon="2.81813">
        <ele>60.57783303858</ele>
        <time>2020-07-19T09:42:42Z</time>
      </trkpt>
      <trkpt lat="48.37215" lon="2.81801">
        <ele>60.530591915129</ele>
        <time>2020-07-19T09:42:49Z</time>
      </trkpt>
      <trkpt lat="48.37217" lon="2.81789">
        <ele>60.500602315624</ele>
        <time>2020-07-19T09:42:54Z</time>
      </trkpt>
      <trkpt lat="48.37212" lon="2.81778">
        <ele>60.452879478037</ele>
        <time>2020-07-19T09:43:04Z</time>
      </trkpt>
      <trkpt lat="48.37204" lon="2.81774">
        <ele>60.444831737471</ele>
        <time>2020-07-19T09:43:23Z</time>
      </trkpt>
      <trkpt lat="48.37196" lon="2.81779">
        <ele>60.553445549651</ele>
        <time>2020-07-19T09:43:52Z</time>
      </trkpt>
      <trkpt lat="48.37188" lon="2.81773">
        <ele>60.611913964535</ele>
        <time>2020-07-19T09:44:11Z</time>
      </trkpt>
      <trkpt lat="48.3718" lon="2.81776">
        <ele>60.657791967095</ele>
        <time>2020-07-19T09:44:19Z</time>
      </trkpt>
      <trkpt lat="48.37178" lon="2.81789">
        <ele>60.701031526645</ele>
        <time>2020-07-19T09:44:25Z</time>
      </trkpt>
      <trkpt lat="48.37175" lon="2.81801">
        <ele>60.75152334125</ele>
        <time>2020-07-19T09:44:33Z</time>
      </trkpt>
      <trkpt lat="48.37174" lon="2.81813">
        <ele>60.790236856911</ele>
        <time>2020-07-19T09:44:39Z</time>
      </trkpt>
      <trkpt lat="48.37172" lon="2.81824">
        <ele>60.841397619467</ele>
        <time>2020-07-19T09:44:48Z</time>
      </trkpt>
      <trkpt lat="48.37168" lon="2.81836">
        <ele>60.921250100534</ele>
        <time>2020-07-19T09:44:59Z</time>
      </trkpt>
      <trkpt lat="48.37163" lon="2.81846">
        <ele>60.986038989434</ele>
        <time>2020-07-19T09:45:07Z</time>
      </trkpt>
      <trkpt lat="48.37157" lon="2.81856">
        <ele>61.053598160561</ele>
        <time>2020-07-19T09:45:14Z</time>
      </trkpt>
      <trkpt lat="48.37151" lon="2.81865">
        <ele>61.125980419391</ele>
        <time>2020-07-19T09:45:20Z</time>
      </trkpt>
      <trkpt lat="48.37143" lon="2.81871">
        <ele>61.278758639171</ele>
        <time>2020-07-19T09:45:32Z</time>
      </trkpt>
      <trkpt lat="48.37135" lon="2.81874">
        <ele>61.358231487566</ele>
        <time>2020-07-19T09:45:39Z</time>
      </trkpt>
      <trkpt lat="48.37126" lon="2.81873">
        <ele>61.437029734185</ele>
        <time>2020-07-19T09:45:46Z</time>
      </trkpt>
      <trkpt lat="48.37118" lon="2.81874">
        <ele>61.49749755068</ele>
        <time>2020-07-19T09:45:52Z</time>
      </trkpt>
      <trkpt lat="48.37109" lon="2.81875">
        <ele>61.557962191303</ele>
        <time>2020-07-19T09:46:00Z</time>
      </trkpt>
      <trkpt lat="48.37101" lon="2.81874">
        <ele>61.604270079564</ele>
        <time>2020-07-19T09:46:05Z</time>
      </trkpt>
      <trkpt lat="48.37092" lon="2.81876">
        <ele>61.656340478858</ele>
        <time>2020-07-19T09:46:13Z</time>
      </trkpt>
      <trkpt lat="48.37083" lon="2.81877">
        <ele>61.700720240514</ele>
        <time>2020-07-19T09:46:18Z</time>
      </trkpt>
      <trkpt lat="48.37076" lon="2.81878">
        <ele>61.751528462271</ele>
        <time>2020-07-19T09:46:25Z</time>
      </trkpt>
      <trkpt lat="48.37068" lon="2.81882">
        <ele>61.826056369455</ele>
        <time>2020-07-19T09:46:39Z</time>
      </trkpt>
      <trkpt lat="48.37059" lon="2.81886">
        <ele>62.067514488094</ele>
        <time>2020-07-19T09:47:42Z</time>
      </trkpt>
      <trkpt lat="48.37054" lon="2.81892">
        <ele>62.079553279004</ele>
        <time>2020-07-19T09:47:46Z</time>
      </trkpt>
      <trkpt lat="48.37047" lon="2.81898">
        <ele>62.096658764679</ele>
        <time>2020-07-19T09:47:53Z</time>
      </trkpt>
      <trkpt lat="48.37039" lon="2.81903">
        <ele>62.117676215016</ele>
        <time>2020-07-19T09:48:07Z</time>
      </trkpt>
      <trkpt lat="48.37031" lon="2.81905">
        <ele>62.131204484163</ele>
        <time>2020-07-19T09:48:14Z</time>
      </trkpt>
      <trkpt lat="48.37023" lon="2.81912">
        <ele>62.139568809246</ele>
        <time>2020-07-19T09:48:18Z</time>
      </trkpt>
      <trkpt lat="48.37015" lon="2.81916">
        <ele>62.145971450924</ele>
        <time>2020-07-19T09:48:23Z</time>
      </trkpt>
      <trkpt lat="48.37007" lon="2.81921">
        <ele>62.152003150567</ele>
        <time>2020-07-19T09:48:30Z</time>
      </trkpt>
      <trkpt lat="48.37" lon="2.81914">
        <ele>62.146733214207</ele>
        <time>2020-07-19T09:51:34Z</time>
      </trkpt>
      <trkpt lat="48.36996" lon="2.81904">
        <ele>62.039976073516</ele>
        <time>2020-07-19T09:51:42Z</time>
      </trkpt>
      <trkpt lat="48.36993" lon="2.81893">
        <ele>61.923460011076</ele>
        <time>2020-07-19T09:51:49Z</time>
      </trkpt>
      <trkpt lat="48.3699" lon="2.81881">
        <ele>61.802685024386</ele>
        <time>2020-07-19T09:51:56Z</time>
      </trkpt>
      <trkpt lat="48.36989" lon="2.81867">
        <ele>61.686557866012</ele>
        <time>2020-07-19T09:52:03Z</time>
      </trkpt>
      <trkpt lat="48.36987" lon="2.81855">
        <ele>61.572595394178</ele>
        <time>2020-07-19T09:52:10Z</time>
      </trkpt>
      <trkpt lat="48.3699" lon="2.81842">
        <ele>61.310316634873</ele>
        <time>2020-07-19T09:52:58Z</time>
      </trkpt>
      <trkpt lat="48.36993" lon="2.8183">
        <ele>61.225307801763</ele>
        <time>2020-07-19T09:53:09Z</time>
      </trkpt>
      <trkpt lat="48.36998" lon="2.8182">
        <ele>61.155658524261</ele>
        <time>2020-07-19T09:53:21Z</time>
      </trkpt>
      <trkpt lat="48.36999" lon="2.81807">
        <ele>61.109905932578</ele>
        <time>2020-07-19T09:53:31Z</time>
      </trkpt>
      <trkpt lat="48.36998" lon="2.81794">
        <ele>61.071507514</ele>
        <time>2020-07-19T09:53:42Z</time>
      </trkpt>
      <trkpt lat="48.36991" lon="2.81797">
        <ele>61.035755041511</ele>
        <time>2020-07-19T09:54:01Z</time>
      </trkpt>
      <trkpt lat="48.36985" lon="2.81807">
        <ele>61.035770517266</ele>
        <time>2020-07-19T09:54:06Z</time>
      </trkpt>
      <trkpt lat="48.36978" lon="2.81812">
        <ele>61.033977878086</ele>
        <time>2020-07-19T09:54:11Z</time>
      </trkpt>
      <trkpt lat="48.36969" lon="2.81811">
        <ele>61.031330800358</ele>
        <time>2020-07-19T09:54:16Z</time>
      </trkpt>
      <trkpt lat="48.3696" lon="2.81811">
        <ele>61.025055416132</ele>
        <time>2020-07-19T09:54:22Z</time>
      </trkpt>
      <trkpt lat="48.36954" lon="2.8182">
        <ele>61.021730355419</ele>
        <time>2020-07-19T09:54:29Z</time>
      </trkpt>
      <trkpt lat="48.3695" lon="2.81831">
        <ele>61.020779815775</ele>
        <time>2020-07-19T09:54:35Z</time>
      </trkpt>
      <trkpt lat="48.36943" lon="2.81838">
        <ele>61.018824988373</ele>
        <time>2020-07-19T09:54:40Z</time>
      </trkpt>
      <trkpt lat="48.3694" lon="2.81851">
        <ele>61.01449077553</ele>
        <time>2020-07-19T09:54:48Z</time>
      </trkpt>
      <trkpt lat="48.36931" lon="2.81848">
        <ele>61.020276424595</ele>
        <time>2020-07-19T09:55:16Z</time>
      </trkpt>
      <trkpt lat="48.36925" lon="2.81854">
        <ele>61.021181282255</ele>
        <time>2020-07-19T09:55:21Z</time>
      </trkpt>
      <trkpt lat="48.36917" lon="2.81857">
        <ele>61.022790605761</ele>
        <time>2020-07-19T09:55:25Z</time>
      </trkpt>
      <trkpt lat="48.36911" lon="2.81867">
        <ele>61.024432513981</ele>
        <time>2020-07-19T09:55:32Z</time>
      </trkpt>
      <trkpt lat="48.36906" lon="2.81877">
        <ele>61.024240475732</ele>
        <time>2020-07-19T09:55:38Z</time>
      </trkpt>
      <trkpt lat="48.36899" lon="2.81885">
        <ele>61.023676111775</ele>
        <time>2020-07-19T09:55:43Z</time>
      </trkpt>
      <trkpt lat="48.36892" lon="2.8189">
        <ele>61.013943198637</ele>
        <time>2020-07-19T09:56:02Z</time>
      </trkpt>
      <trkpt lat="48.36884" lon="2.81896">
        <ele>61.010649657535</ele>
        <time>2020-07-19T09:56:08Z</time>
      </trkpt>
      <trkpt lat="48.36878" lon="2.81904">
        <ele>61.00685797573</ele>
        <time>2020-07-19T09:56:16Z</time>
      </trkpt>
      <trkpt lat="48.36871" lon="2.81911">
        <ele>61.005683985446</ele>
        <time>2020-07-19T09:56:21Z</time>
      </trkpt>
      <trkpt lat="48.36864" lon="2.81919">
        <ele>61.006699090653</ele>
        <time>2020-07-19T09:56:27Z</time>
      </trkpt>
      <trkpt lat="48.36856" lon="2.81925">
        <ele>61.007745646708</ele>
        <time>2020-07-19T09:56:33Z</time>
      </trkpt>
      <trkpt lat="48.36849" lon="2.8193">
        <ele>61.00809978802</ele>
        <time>2020-07-19T09:56:41Z</time>
      </trkpt>
      <trkpt lat="48.36842" lon="2.81936">
        <ele>61.006740273678</ele>
        <time>2020-07-19T09:56:47Z</time>
      </trkpt>
      <trkpt lat="48.36835" lon="2.8194">
        <ele>61.00477244095</ele>
        <time>2020-07-19T09:56:53Z</time>
      </trkpt>
      <trkpt lat="48.36827" lon="2.81945">
        <ele>61.002919914975</ele>
        <time>2020-07-19T09:56:59Z</time>
      </trkpt>
      <trkpt lat="48.36819" lon="2.81948">
        <ele>61.003077994886</ele>
        <time>2020-07-19T09:57:07Z</time>
      </trkpt>
      <trkpt lat="48.36812" lon="2.81951">
        <ele>61.003195907684</ele>
        <time>2020-07-19T09:57:12Z</time>
      </trkpt>
      <trkpt lat="48.36804" lon="2.81954">
        <ele>61.001154456924</ele>
        <time>2020-07-19T09:57:17Z</time>
      </trkpt>
      <trkpt lat="48.36797" lon="2.81958">
        <ele>60.998279536561</ele>
        <time>2020-07-19T09:57:23Z</time>
      </trkpt>
      <trkpt lat="48.36789" lon="2.81963">
        <ele>60.992981919357</ele>
        <time>2020-07-19T09:57:30Z</time>
      </trkpt>
      <trkpt lat="48.36782" lon="2.81969">
        <ele>60.985662317849</ele>
        <time>2020-07-19T09:57:36Z</time>
      </trkpt>
      <trkpt lat="48.36774" lon="2.81972">
        <ele>60.970118312417</ele>
        <time>2020-07-19T09:57:44Z</time>
      </trkpt>
      <trkpt lat="48.36765" lon="2.81975">
        <ele>60.958155931894</ele>
        <time>2020-07-19T09:58:07Z</time>
      </trkpt>
      <trkpt lat="48.36758" lon="2.81972">
        <ele>60.952747826693</ele>
        <time>2020-07-19T09:58:12Z</time>
      </trkpt>
      <trkpt lat="48.36749" lon="2.81975">
        <ele>60.93959747763</ele>
        <time>2020-07-19T09:58:19Z</time>
      </trkpt>
      <trkpt lat="48.36742" lon="2.81977">
        <ele>60.927151879242</ele>
        <time>2020-07-19T09:58:25Z</time>
      </trkpt>
      <trkpt lat="48.36733" lon="2.81977">
        <ele>60.920256949756</ele>
        <time>2020-07-19T09:58:34Z</time>
      </trkpt>
      <trkpt lat="48.36726" lon="2.81978">
        <ele>60.921264728922</ele>
        <time>2020-07-19T09:58:38Z</time>
      </trkpt>
      <trkpt lat="48.36718" lon="2.81977">
        <ele>60.923141617922</ele>
        <time>2020-07-19T09:58:42Z</time>
      </trkpt>
      <trkpt lat="48.36709" lon="2.8198">
        <ele>60.927746124178</ele>
        <time>2020-07-19T09:58:54Z</time>
      </trkpt>
      <trkpt lat="48.36701" lon="2.81977">
        <ele>60.934659877479</ele>
        <time>2020-07-19T09:59:08Z</time>
      </trkpt>
      <trkpt lat="48.36694" lon="2.81978">
        <ele>60.938378782532</ele>
        <time>2020-07-19T09:59:12Z</time>
      </trkpt>
      <trkpt lat="48.36686" lon="2.81983">
        <ele>60.941940567471</ele>
        <time>2020-07-19T09:59:19Z</time>
      </trkpt>
      <trkpt lat="48.36678" lon="2.81986">
        <ele>60.953362748226</ele>
        <time>2020-07-19T09:59:29Z</time>
      </trkpt>
      <trkpt lat="48.3667" lon="2.81989">
        <ele>60.952734250198</ele>
        <time>2020-07-19T09:59:38Z</time>
      </trkpt>
      <trkpt lat="48.36662" lon="2.81991">
        <ele>60.943938652008</ele>
        <time>2020-07-19T09:59:47Z</time>
      </trkpt>
      <trkpt lat="48.36653" lon="2.81993">
        <ele>60.940385956704</ele>
        <time>2020-07-19T09:59:53Z</time>
      </trkpt>
      <trkpt lat="48.36645" lon="2.81995">
        <ele>60.959535684587</ele>
        <time>2020-07-19T10:00:17Z</time>
      </trkpt>
      <trkpt lat="48.36637" lon="2.81996">
        <ele>61.032374994697</ele>
        <time>2020-07-19T10:00:35Z</time>
      </trkpt>
      <trkpt lat="48.36629" lon="2.81997">
        <ele>61.047568903576</ele>
        <time>2020-07-19T10:00:39Z</time>
      </trkpt>
      <trkpt lat="48.3662" lon="2.82001">
        <ele>61.067123753017</ele>
        <time>2020-07-19T10:00:44Z</time>
      </trkpt>
      <trkpt lat="48.36611" lon="2.82003">
        <ele>61.110866519964</ele>
        <time>2020-07-19T10:01:01Z</time>
      </trkpt>
      <trkpt lat="48.36613" lon="2.8199">
        <ele>61.163403785603</ele>
        <time>2020-07-19T10:01:22Z</time>
      </trkpt>
      <trkpt lat="48.36607" lon="2.81985">
        <ele>61.313292510305</ele>
        <time>2020-07-19T10:01:37Z</time>
      </trkpt>
      <trkpt lat="48.366" lon="2.81992">
        <ele>61.318377703685</ele>
        <time>2020-07-19T10:01:43Z</time>
      </trkpt>
      <trkpt lat="48.36591" lon="2.82003">
        <ele>61.324511636114</ele>
        <time>2020-07-19T10:01:47Z</time>
      </trkpt>
      <trkpt lat="48.36583" lon="2.81997">
        <ele>61.332980654024</ele>
        <time>2020-07-19T10:01:54Z</time>
      </trkpt>
      <trkpt lat="48.36576" lon="2.81997">
        <ele>61.342298475963</ele>
        <time>2020-07-19T10:02:01Z</time>
      </trkpt>
      <trkpt lat="48.36567" lon="2.81995">
        <ele>61.358594022243</ele>
        <time>2020-07-19T10:02:07Z</time>
      </trkpt>
      <trkpt lat="48.36559" lon="2.81993">
        <ele>61.374288769293</ele>
        <time>2020-07-19T10:02:14Z</time>
      </trkpt>
      <trkpt lat="48.3655" lon="2.8199">
        <ele>61.385504589764</ele>
        <time>2020-07-19T10:02:18Z</time>
      </trkpt>
      <trkpt lat="48.36542" lon="2.81993">
        <ele>61.402000247197</ele>
        <time>2020-07-19T10:02:26Z</time>
      </trkpt>
      <trkpt lat="48.36539" lon="2.81981">
        <ele>61.409021231206</ele>
        <time>2020-07-19T10:02:39Z</time>
      </trkpt>
      <trkpt lat="48.3653" lon="2.81983">
        <ele>61.403682164028</ele>
        <time>2020-07-19T10:03:02Z</time>
      </trkpt>
      <trkpt lat="48.36522" lon="2.81983">
        <ele>61.27089989815</ele>
        <time>2020-07-19T10:03:23Z</time>
      </trkpt>
      <trkpt lat="48.36515" lon="2.81976">
        <ele>61.232751155151</ele>
        <time>2020-07-19T10:03:29Z</time>
      </trkpt>
      <trkpt lat="48.36506" lon="2.81976">
        <ele>61.199667479397</ele>
        <time>2020-07-19T10:03:34Z</time>
      </trkpt>
      <trkpt lat="48.365" lon="2.81968">
        <ele>61.150325480472</ele>
        <time>2020-07-19T10:03:51Z</time>
      </trkpt>
      <trkpt lat="48.36491" lon="2.8197">
        <ele>61.174974193061</ele>
        <time>2020-07-19T10:04:17Z</time>
      </trkpt>
      <trkpt lat="48.36483" lon="2.81963">
        <ele>61.188369297462</ele>
        <time>2020-07-19T10:04:21Z</time>
      </trkpt>
      <trkpt lat="48.36475" lon="2.81957">
        <ele>61.200312274917</ele>
        <time>2020-07-19T10:04:27Z</time>
      </trkpt>
      <trkpt lat="48.36468" lon="2.81951">
        <ele>61.215433861404</ele>
        <time>2020-07-19T10:04:34Z</time>
      </trkpt>
      <trkpt lat="48.36461" lon="2.81946">
        <ele>61.230647127641</ele>
        <time>2020-07-19T10:04:42Z</time>
      </trkpt>
      <trkpt lat="48.36452" lon="2.81945">
        <ele>61.238422987684</ele>
        <time>2020-07-19T10:04:48Z</time>
      </trkpt>
      <trkpt lat="48.36444" lon="2.8194">
        <ele>61.246145684739</ele>
        <time>2020-07-19T10:05:01Z</time>
      </trkpt>
      <trkpt lat="48.36436" lon="2.81934">
        <ele>61.226103643633</ele>
        <time>2020-07-19T10:05:13Z</time>
      </trkpt>
      <trkpt lat="48.36428" lon="2.81934">
        <ele>61.242682890658</ele>
        <time>2020-07-19T10:05:35Z</time>
      </trkpt>
      <trkpt lat="48.36421" lon="2.81928">
        <ele>61.232488360743</ele>
        <time>2020-07-19T10:05:49Z</time>
      </trkpt>
      <trkpt lat="48.36413" lon="2.81925">
        <ele>60.950429536047</ele>
        <time>2020-07-19T10:06:59Z</time>
      </trkpt>
      <trkpt lat="48.36405" lon="2.81921">
        <ele>60.931294943964</ele>
        <time>2020-07-19T10:07:06Z</time>
      </trkpt>
      <trkpt lat="48.364" lon="2.81912">
        <ele>60.920149575588</ele>
        <time>2020-07-19T10:07:11Z</time>
      </trkpt>
      <trkpt lat="48.36393" lon="2.81905">
        <ele>60.913679039049</ele>
        <time>2020-07-19T10:07:15Z</time>
      </trkpt>
      <trkpt lat="48.36388" lon="2.81898">
        <ele>60.89386334934</ele>
        <time>2020-07-19T10:07:28Z</time>
      </trkpt>
      <trkpt lat="48.36382" lon="2.81889">
        <ele>60.869521021264</ele>
        <time>2020-07-19T10:07:40Z</time>
      </trkpt>
      <trkpt lat="48.36378" lon="2.81877">
        <ele>60.84838050284</ele>
        <time>2020-07-19T10:07:49Z</time>
      </trkpt>
      <trkpt lat="48.36374" lon="2.81866">
        <ele>60.831346875253</ele>
        <time>2020-07-19T10:07:56Z</time>
      </trkpt>
      <trkpt lat="48.3637" lon="2.81855">
        <ele>60.811665874513</ele>
        <time>2020-07-19T10:08:04Z</time>
      </trkpt>
      <trkpt lat="48.36367" lon="2.81844">
        <ele>60.797692606304</ele>
        <time>2020-07-19T10:08:09Z</time>
      </trkpt>
      <trkpt lat="48.36362" lon="2.81833">
        <ele>60.775272477382</ele>
        <time>2020-07-19T10:08:16Z</time>
      </trkpt>
      <trkpt lat="48.36358" lon="2.81822">
        <ele>60.745203972991</ele>
        <time>2020-07-19T10:08:24Z</time>
      </trkpt>
      <trkpt lat="48.36352" lon="2.81811">
        <ele>60.722481835794</ele>
        <time>2020-07-19T10:08:30Z</time>
      </trkpt>
      <trkpt lat="48.36346" lon="2.81802">
        <ele>60.694073966048</ele>
        <time>2020-07-19T10:08:38Z</time>
      </trkpt>
      <trkpt lat="48.36339" lon="2.81808">
        <ele>60.572416329425</ele>
        <time>2020-07-19T10:09:07Z</time>
      </trkpt>
      <trkpt lat="48.36335" lon="2.81804">
        <ele>60.569007052136</ele>
        <time>2020-07-19T10:09:11Z</time>
      </trkpt>
      <trkpt lat="48.36336" lon="2.81793">
        <ele>60.545091383147</ele>
        <time>2020-07-19T10:10:16Z</time>
      </trkpt>
      <trkpt lat="48.36332" lon="2.8178">
        <ele>60.612217369948</ele>
        <time>2020-07-19T10:10:21Z</time>
      </trkpt>
      <trkpt lat="48.36327" lon="2.8177">
        <ele>60.71943824182</ele>
        <time>2020-07-19T10:10:26Z</time>
      </trkpt>
      <trkpt lat="48.36325" lon="2.81756">
        <ele>60.814200652411</ele>
        <time>2020-07-19T10:10:31Z</time>
      </trkpt>
      <trkpt lat="48.36326" lon="2.81745">
        <ele>60.947352574929</ele>
        <time>2020-07-19T10:10:39Z</time>
      </trkpt>
      <trkpt lat="48.36324" lon="2.81733">
        <ele>61.001302716435</ele>
        <time>2020-07-19T10:10:43Z</time>
      </trkpt>
      <trkpt lat="48.36319" lon="2.81722">
        <ele>61.074138555295</ele>
        <time>2020-07-19T10:10:50Z</time>
      </trkpt>
      <trkpt lat="48.36314" lon="2.81711">
        <ele>61.137177787174</ele>
        <time>2020-07-19T10:10:56Z</time>
      </trkpt>
      <trkpt lat="48.36311" lon="2.817">
        <ele>61.216905563791</ele>
        <time>2020-07-19T10:11:03Z</time>
      </trkpt>
      <trkpt lat="48.36309" lon="2.81687">
        <ele>61.240642658605</ele>
        <time>2020-07-19T10:11:13Z</time>
      </trkpt>
      <trkpt lat="48.36306" lon="2.81675">
        <ele>61.154863215245</ele>
        <time>2020-07-19T10:11:21Z</time>
      </trkpt>
      <trkpt lat="48.36301" lon="2.81667">
        <ele>61.068281268973</ele>
        <time>2020-07-19T10:11:27Z</time>
      </trkpt>
      <trkpt lat="48.36294" lon="2.8166">
        <ele>60.98709270491</ele>
        <time>2020-07-19T10:11:44Z</time>
      </trkpt>
      <trkpt lat="48.36285" lon="2.81655">
        <ele>60.636884773392</ele>
        <time>2020-07-19T10:12:37Z</time>
      </trkpt>
      <trkpt lat="48.3628" lon="2.81649">
        <ele>60.46027006834</ele>
        <time>2020-07-19T10:13:03Z</time>
      </trkpt>
      <trkpt lat="48.36274" lon="2.81637">
        <ele>60.431262693727</ele>
        <time>2020-07-19T10:13:07Z</time>
      </trkpt>
      <trkpt lat="48.3627" lon="2.81626">
        <ele>60.396787234064</ele>
        <time>2020-07-19T10:14:03Z</time>
      </trkpt>
      <trkpt lat="48.36267" lon="2.81616">
        <ele>60.147398766754</ele>
        <time>2020-07-19T10:14:17Z</time>
      </trkpt>
      <trkpt lat="48.36263" lon="2.81603">
        <ele>59.973650732717</ele>
        <time>2020-07-19T10:14:21Z</time>
      </trkpt>
      <trkpt lat="48.36258" lon="2.81592">
        <ele>59.682298341686</ele>
        <time>2020-07-19T10:14:31Z</time>
      </trkpt>
      <trkpt lat="48.36256" lon="2.81581">
        <ele>59.49646087796</ele>
        <time>2020-07-19T10:14:39Z</time>
      </trkpt>
      <trkpt lat="48.36253" lon="2.81568">
        <ele>59.288424798917</ele>
        <time>2020-07-19T10:14:49Z</time>
      </trkpt>
      <trkpt lat="48.36248" lon="2.81558">
        <ele>59.132100973134</ele>
        <time>2020-07-19T10:14:59Z</time>
      </trkpt>
      <trkpt lat="48.36242" lon="2.81548">
        <ele>59.071724686659</ele>
        <time>2020-07-19T10:15:03Z</time>
      </trkpt>
      <trkpt lat="48.36238" lon="2.81539">
        <ele>59.031005837805</ele>
        <time>2020-07-19T10:15:07Z</time>
      </trkpt>
      <trkpt lat="48.36232" lon="2.81528">
        <ele>58.97669355954</ele>
        <time>2020-07-19T10:15:14Z</time>
      </trkpt>
      <trkpt lat="48.36229" lon="2.81516">
        <ele>58.935979361294</ele>
        <time>2020-07-19T10:15:21Z</time>
      </trkpt>
      <trkpt lat="48.36225" lon="2.81506">
        <ele>58.898770891372</ele>
        <time>2020-07-19T10:15:28Z</time>
      </trkpt>
      <trkpt lat="48.3622" lon="2.81495">
        <ele>58.875091803088</ele>
        <time>2020-07-19T10:15:33Z</time>
      </trkpt>
      <trkpt lat="48.36215" lon="2.81486">
        <ele>58.849389192234</ele>
        <time>2020-07-19T10:15:39Z</time>
      </trkpt>
      <trkpt lat="48.3621" lon="2.81475">
        <ele>58.818680693358</ele>
        <time>2020-07-19T10:15:46Z</time>
      </trkpt>
      <trkpt lat="48.36204" lon="2.81465">
        <ele>58.783104604853</ele>
        <time>2020-07-19T10:15:54Z</time>
      </trkpt>
      <trkpt lat="48.36199" lon="2.81454">
        <ele>58.750518373389</ele>
        <time>2020-07-19T10:16:03Z</time>
      </trkpt>
      <trkpt lat="48.36194" lon="2.81445">
        <ele>58.735297346975</ele>
        <time>2020-07-19T10:16:08Z</time>
      </trkpt>
      <trkpt lat="48.3619" lon="2.81434">
        <ele>58.715438404756</ele>
        <time>2020-07-19T10:16:15Z</time>
      </trkpt>
      <trkpt lat="48.36187" lon="2.81421">
        <ele>58.688130055081</ele>
        <time>2020-07-19T10:16:28Z</time>
      </trkpt>
      <trkpt lat="48.36183" lon="2.8141">
        <ele>58.670862909717</ele>
        <time>2020-07-19T10:16:35Z</time>
      </trkpt>
      <trkpt lat="48.36177" lon="2.81401">
        <ele>58.646464091259</ele>
        <time>2020-07-19T10:16:46Z</time>
      </trkpt>
      <trkpt lat="48.36174" lon="2.8139">
        <ele>58.636254609883</ele>
        <time>2020-07-19T10:17:16Z</time>
      </trkpt>
      <trkpt lat="48.36169" lon="2.81381">
        <ele>58.651362113849</ele>
        <time>2020-07-19T10:17:21Z</time>
      </trkpt>
      <trkpt lat="48.36164" lon="2.8137">
        <ele>58.670926770686</ele>
        <time>2020-07-19T10:17:28Z</time>
      </trkpt>
      <trkpt lat="48.36162" lon="2.81358">
        <ele>58.688182230777</ele>
        <time>2020-07-19T10:17:35Z</time>
      </trkpt>
      <trkpt lat="48.36158" lon="2.81347">
        <ele>58.705169250099</ele>
        <time>2020-07-19T10:17:43Z</time>
      </trkpt>
      <trkpt lat="48.36153" lon="2.81335">
        <ele>58.717637960256</ele>
        <time>2020-07-19T10:17:50Z</time>
      </trkpt>
      <trkpt lat="48.36149" lon="2.81328">
        <ele>58.723348822214</ele>
        <time>2020-07-19T10:17:54Z</time>
      </trkpt>
      <trkpt lat="48.36145" lon="2.81316">
        <ele>58.729319093276</ele>
        <time>2020-07-19T10:18:01Z</time>
      </trkpt>
      <trkpt lat="48.3614" lon="2.81304">
        <ele>58.729909265338</ele>
        <time>2020-07-19T10:18:09Z</time>
      </trkpt>
      <trkpt lat="48.36136" lon="2.81294">
        <ele>58.723309806615</ele>
        <time>2020-07-19T10:18:16Z</time>
      </trkpt>
      <trkpt lat="48.36132" lon="2.81282">
        <ele>58.712938459336</ele>
        <time>2020-07-19T10:18:23Z</time>
      </trkpt>
      <trkpt lat="48.36129" lon="2.81269">
        <ele>58.703894439969</ele>
        <time>2020-07-19T10:18:30Z</time>
      </trkpt>
      <trkpt lat="48.36125" lon="2.81257">
        <ele>58.687577715447</ele>
        <time>2020-07-19T10:18:42Z</time>
      </trkpt>
      <trkpt lat="48.3612" lon="2.8125">
        <ele>58.676554362447</ele>
        <time>2020-07-19T10:18:50Z</time>
      </trkpt>
      <trkpt lat="48.36116" lon="2.8124">
        <ele>58.665434779622</ele>
        <time>2020-07-19T10:18:55Z</time>
      </trkpt>
      <trkpt lat="48.3611" lon="2.81231">
        <ele>58.648611046744</ele>
        <time>2020-07-19T10:19:00Z</time>
      </trkpt>
      <trkpt lat="48.36101" lon="2.81231">
        <ele>58.626421243052</ele>
        <time>2020-07-19T10:19:08Z</time>
      </trkpt>
      <trkpt lat="48.36093" lon="2.81229">
        <ele>58.587881094546</ele>
        <time>2020-07-19T10:19:13Z</time>
      </trkpt>
      <trkpt lat="48.36085" lon="2.81224">
        <ele>58.546154351986</ele>
        <time>2020-07-19T10:19:25Z</time>
      </trkpt>
      <trkpt lat="48.36078" lon="2.81218">
        <ele>58.487358168596</ele>
        <time>2020-07-19T10:19:33Z</time>
      </trkpt>
      <trkpt lat="48.3607" lon="2.81212">
        <ele>58.453498729609</ele>
        <time>2020-07-19T10:19:37Z</time>
      </trkpt>
      <trkpt lat="48.36064" lon="2.81202">
        <ele>58.415800242662</ele>
        <time>2020-07-19T10:19:43Z</time>
      </trkpt>
      <trkpt lat="48.36062" lon="2.8119">
        <ele>58.36212785861</ele>
        <time>2020-07-19T10:19:53Z</time>
      </trkpt>
      <trkpt lat="48.36058" lon="2.81178">
        <ele>58.335600313136</ele>
        <time>2020-07-19T10:20:00Z</time>
      </trkpt>
      <trkpt lat="48.36054" lon="2.81169">
        <ele>58.309121062411</ele>
        <time>2020-07-19T10:20:07Z</time>
      </trkpt>
      <trkpt lat="48.36047" lon="2.81164">
        <ele>58.294668845552</ele>
        <time>2020-07-19T10:20:11Z</time>
      </trkpt>
      <trkpt lat="48.36038" lon="2.81157">
        <ele>58.278888949252</ele>
        <time>2020-07-19T10:20:16Z</time>
      </trkpt>
      <trkpt lat="48.3603" lon="2.81153">
        <ele>58.25830585595</ele>
        <time>2020-07-19T10:20:22Z</time>
      </trkpt>
      <trkpt lat="48.36024" lon="2.81148">
        <ele>58.243697003626</ele>
        <time>2020-07-19T10:20:27Z</time>
      </trkpt>
      <trkpt lat="48.36017" lon="2.8114">
        <ele>58.224104489249</ele>
        <time>2020-07-19T10:20:34Z</time>
      </trkpt>
      <trkpt lat="48.36009" lon="2.81137">
        <ele>58.205458489466</ele>
        <time>2020-07-19T10:20:40Z</time>
      </trkpt>
      <trkpt lat="48.36001" lon="2.81132">
        <ele>58.175501046464</ele>
        <time>2020-07-19T10:20:50Z</time>
      </trkpt>
      <trkpt lat="48.35994" lon="2.81125">
        <ele>58.153311873799</ele>
        <time>2020-07-19T10:21:00Z</time>
      </trkpt>
      <trkpt lat="48.3599" lon="2.81113">
        <ele>58.13399936334</ele>
        <time>2020-07-19T10:21:10Z</time>
      </trkpt>
      <trkpt lat="48.35983" lon="2.81106">
        <ele>58.115140229331</ele>
        <time>2020-07-19T10:21:19Z</time>
      </trkpt>
      <trkpt lat="48.35976" lon="2.811">
        <ele>58.101689659088</ele>
        <time>2020-07-19T10:21:24Z</time>
      </trkpt>
      <trkpt lat="48.35968" lon="2.81095">
        <ele>58.083957790187</ele>
        <time>2020-07-19T10:21:32Z</time>
      </trkpt>
      <trkpt lat="48.35961" lon="2.81091">
        <ele>58.069319867028</ele>
        <time>2020-07-19T10:21:37Z</time>
      </trkpt>
      <trkpt lat="48.35953" lon="2.81091">
        <ele>58.052472081607</ele>
        <time>2020-07-19T10:21:42Z</time>
      </trkpt>
      <trkpt lat="48.35945" lon="2.81089">
        <ele>58.036555254906</ele>
        <time>2020-07-19T10:21:47Z</time>
      </trkpt>
      <trkpt lat="48.35939" lon="2.81082">
        <ele>58.023891555544</ele>
        <time>2020-07-19T10:21:51Z</time>
      </trkpt>
      <trkpt lat="48.35934" lon="2.81075">
        <ele>58.011693883675</ele>
        <time>2020-07-19T10:21:55Z</time>
      </trkpt>
      <trkpt lat="48.35922" lon="2.81074">
        <ele>58.000589815437</ele>
        <time>2020-07-19T10:21:59Z</time>
      </trkpt>
      <trkpt lat="48.35914" lon="2.81079">
        <ele>57.990616836554</ele>
        <time>2020-07-19T10:22:04Z</time>
      </trkpt>
      <trkpt lat="48.35907" lon="2.81085">
        <ele>57.974798014133</ele>
        <time>2020-07-19T10:22:12Z</time>
      </trkpt>
      <trkpt lat="48.359" lon="2.81091">
        <ele>57.964024996272</ele>
        <time>2020-07-19T10:22:18Z</time>
      </trkpt>
      <trkpt lat="48.35896" lon="2.81102">
        <ele>57.963925636342</ele>
        <time>2020-07-19T10:22:34Z</time>
      </trkpt>
      <trkpt lat="48.359" lon="2.81091">
        <ele>58.384997201739</ele>
        <time>2020-07-19T10:24:31Z</time>
      </trkpt>
      <trkpt lat="48.35908" lon="2.81087">
        <ele>58.50080376145</ele>
        <time>2020-07-19T10:24:42Z</time>
      </trkpt>
      <trkpt lat="48.35913" lon="2.8108">
        <ele>58.575472001557</ele>
        <time>2020-07-19T10:24:50Z</time>
      </trkpt>
      <trkpt lat="48.35914" lon="2.81067">
        <ele>58.62966716282</ele>
        <time>2020-07-19T10:24:57Z</time>
      </trkpt>
      <trkpt lat="48.35911" lon="2.81055">
        <ele>58.683863723536</ele>
        <time>2020-07-19T10:25:05Z</time>
      </trkpt>
      <trkpt lat="48.35908" lon="2.81043">
        <ele>58.734600196824</ele>
        <time>2020-07-19T10:25:14Z</time>
      </trkpt>
      <trkpt lat="48.35904" lon="2.81032">
        <ele>58.766591749758</ele>
        <time>2020-07-19T10:25:22Z</time>
      </trkpt>
      <trkpt lat="48.35897" lon="2.81024">
        <ele>58.787543595181</ele>
        <time>2020-07-19T10:25:29Z</time>
      </trkpt>
      <trkpt lat="48.35891" lon="2.81016">
        <ele>58.796976354945</ele>
        <time>2020-07-19T10:25:35Z</time>
      </trkpt>
      <trkpt lat="48.35888" lon="2.81004">
        <ele>58.815001744415</ele>
        <time>2020-07-19T10:25:47Z</time>
      </trkpt>
      <trkpt lat="48.35884" lon="2.80995">
        <ele>58.827587996815</ele>
        <time>2020-07-19T10:25:54Z</time>
      </trkpt>
      <trkpt lat="48.35877" lon="2.80986">
        <ele>58.839338335336</ele>
        <time>2020-07-19T10:25:59Z</time>
      </trkpt>
      <trkpt lat="48.35871" lon="2.80977">
        <ele>58.853787182246</ele>
        <time>2020-07-19T10:26:05Z</time>
      </trkpt>
      <trkpt lat="48.35863" lon="2.80972">
        <ele>58.868375337264</ele>
        <time>2020-07-19T10:26:14Z</time>
      </trkpt>
      <trkpt lat="48.35856" lon="2.80967">
        <ele>58.875161877231</ele>
        <time>2020-07-19T10:26:20Z</time>
      </trkpt>
      <trkpt lat="48.3585" lon="2.80954">
        <ele>58.880870833019</ele>
        <time>2020-07-19T10:26:25Z</time>
      </trkpt>
      <trkpt lat="48.35842" lon="2.80955">
        <ele>58.88519267129</ele>
        <time>2020-07-19T10:26:39Z</time>
      </trkpt>
      <trkpt lat="48.35834" lon="2.80948">
        <ele>58.885187995002</ele>
        <time>2020-07-19T10:26:43Z</time>
      </trkpt>
      <trkpt lat="48.35827" lon="2.80941">
        <ele>58.883742848888</ele>
        <time>2020-07-19T10:26:48Z</time>
      </trkpt>
      <trkpt lat="48.3582" lon="2.80935">
        <ele>58.883465408235</ele>
        <time>2020-07-19T10:26:53Z</time>
      </trkpt>
      <trkpt lat="48.35813" lon="2.80929">
        <ele>58.880893190553</ele>
        <time>2020-07-19T10:26:59Z</time>
      </trkpt>
      <trkpt lat="48.35806" lon="2.80924">
        <ele>58.867951264312</ele>
        <time>2020-07-19T10:27:05Z</time>
      </trkpt>
      <trkpt lat="48.35799" lon="2.8092">
        <ele>58.858952255015</ele>
        <time>2020-07-19T10:27:09Z</time>
      </trkpt>
      <trkpt lat="48.35792" lon="2.80912">
        <ele>58.850263906184</ele>
        <time>2020-07-19T10:27:15Z</time>
      </trkpt>
      <trkpt lat="48.35785" lon="2.80907">
        <ele>58.844006008562</ele>
        <time>2020-07-19T10:27:21Z</time>
      </trkpt>
      <trkpt lat="48.35778" lon="2.80899">
        <ele>58.83807530927</ele>
        <time>2020-07-19T10:27:32Z</time>
      </trkpt>
      <trkpt lat="48.35766" lon="2.80901">
        <ele>58.830865292976</ele>
        <time>2020-07-19T10:27:37Z</time>
      </trkpt>
      <trkpt lat="48.35758" lon="2.80895">
        <ele>58.766065195037</ele>
        <time>2020-07-19T10:27:52Z</time>
      </trkpt>
      <trkpt lat="48.35753" lon="2.80885">
        <ele>58.723394009899</ele>
        <time>2020-07-19T10:27:58Z</time>
      </trkpt>
      <trkpt lat="48.35747" lon="2.80875">
        <ele>58.689694645947</ele>
        <time>2020-07-19T10:28:03Z</time>
      </trkpt>
      <trkpt lat="48.35741" lon="2.80867">
        <ele>58.654998889054</ele>
        <time>2020-07-19T10:28:10Z</time>
      </trkpt>
      <trkpt lat="48.35733" lon="2.80861">
        <ele>58.604763086546</ele>
        <time>2020-07-19T10:28:26Z</time>
      </trkpt>
      <trkpt lat="48.35726" lon="2.80854">
        <ele>58.555288118642</ele>
        <time>2020-07-19T10:28:34Z</time>
      </trkpt>
      <trkpt lat="48.35718" lon="2.80849">
        <ele>58.505879615794</ele>
        <time>2020-07-19T10:28:42Z</time>
      </trkpt>
      <trkpt lat="48.3571" lon="2.80843">
        <ele>58.473127783569</ele>
        <time>2020-07-19T10:29:00Z</time>
      </trkpt>
      <trkpt lat="48.35702" lon="2.80838">
        <ele>58.460908841606</ele>
        <time>2020-07-19T10:29:06Z</time>
      </trkpt>
      <trkpt lat="48.35697" lon="2.80828">
        <ele>58.445114088886</ele>
        <time>2020-07-19T10:29:13Z</time>
      </trkpt>
      <trkpt lat="48.3569" lon="2.8082">
        <ele>58.429324063877</ele>
        <time>2020-07-19T10:29:20Z</time>
      </trkpt>
      <trkpt lat="48.35684" lon="2.80811">
        <ele>58.411097046804</ele>
        <time>2020-07-19T10:29:30Z</time>
      </trkpt>
      <trkpt lat="48.3568" lon="2.80798">
        <ele>58.394928325628</ele>
        <time>2020-07-19T10:29:37Z</time>
      </trkpt>
      <trkpt lat="48.35677" lon="2.80786">
        <ele>58.375977124259</ele>
        <time>2020-07-19T10:29:46Z</time>
      </trkpt>
      <trkpt lat="48.35676" lon="2.80774">
        <ele>58.348599958374</ele>
        <time>2020-07-19T10:29:52Z</time>
      </trkpt>
      <trkpt lat="48.3567" lon="2.80765">
        <ele>58.326202799672</ele>
        <time>2020-07-19T10:29:59Z</time>
      </trkpt>
      <trkpt lat="48.35666" lon="2.80754">
        <ele>58.313030080041</ele>
        <time>2020-07-19T10:30:05Z</time>
      </trkpt>
      <trkpt lat="48.3566" lon="2.80743">
        <ele>58.291732621201</ele>
        <time>2020-07-19T10:30:14Z</time>
      </trkpt>
      <trkpt lat="48.35655" lon="2.80735">
        <ele>58.272246286186</ele>
        <time>2020-07-19T10:30:26Z</time>
      </trkpt>
      <trkpt lat="48.35649" lon="2.80726">
        <ele>58.265650302117</ele>
        <time>2020-07-19T10:30:30Z</time>
      </trkpt>
      <trkpt lat="48.35643" lon="2.80718">
        <ele>58.25895257065</ele>
        <time>2020-07-19T10:30:36Z</time>
      </trkpt>
      <trkpt lat="48.35636" lon="2.8071">
        <ele>58.25128210471</ele>
        <time>2020-07-19T10:30:44Z</time>
      </trkpt>
      <trkpt lat="48.35628" lon="2.80706">
        <ele>58.270938537275</ele>
        <time>2020-07-19T10:31:13Z</time>
      </trkpt>
      <trkpt lat="48.35619" lon="2.80707">
        <ele>58.346026335346</ele>
        <time>2020-07-19T10:31:31Z</time>
      </trkpt>
      <trkpt lat="48.35614" lon="2.80697">
        <ele>58.368951811698</ele>
        <time>2020-07-19T10:31:35Z</time>
      </trkpt>
      <trkpt lat="48.35611" lon="2.80687">
        <ele>58.411367229587</ele>
        <time>2020-07-19T10:31:51Z</time>
      </trkpt>
      <trkpt lat="48.35609" lon="2.80675">
        <ele>58.436165119086</ele>
        <time>2020-07-19T10:32:00Z</time>
      </trkpt>
      <trkpt lat="48.35606" lon="2.80663">
        <ele>58.458576185373</ele>
        <time>2020-07-19T10:32:06Z</time>
      </trkpt>
      <trkpt lat="48.35604" lon="2.80652">
        <ele>58.483875102088</ele>
        <time>2020-07-19T10:32:14Z</time>
      </trkpt>
      <trkpt lat="48.356" lon="2.80642">
        <ele>58.498952632595</ele>
        <time>2020-07-19T10:32:20Z</time>
      </trkpt>
      <trkpt lat="48.35596" lon="2.80632">
        <ele>58.508899957515</ele>
        <time>2020-07-19T10:32:26Z</time>
      </trkpt>
      <trkpt lat="48.35591" lon="2.80624">
        <ele>58.519869121483</ele>
        <time>2020-07-19T10:32:32Z</time>
      </trkpt>
      <trkpt lat="48.35581" lon="2.80625">
        <ele>58.518909366012</ele>
        <time>2020-07-19T10:32:36Z</time>
      </trkpt>
      <trkpt lat="48.35573" lon="2.80629">
        <ele>58.604977471425</ele>
        <time>2020-07-19T10:33:18Z</time>
      </trkpt>
      <trkpt lat="48.35574" lon="2.80616">
        <ele>58.649946642667</ele>
        <time>2020-07-19T10:33:51Z</time>
      </trkpt>
      <trkpt lat="48.35572" lon="2.80603">
        <ele>58.679812407356</ele>
        <time>2020-07-19T10:33:58Z</time>
      </trkpt>
      <trkpt lat="48.35567" lon="2.80592">
        <ele>58.700785097863</ele>
        <time>2020-07-19T10:34:03Z</time>
      </trkpt>
      <trkpt lat="48.35569" lon="2.80579">
        <ele>58.725555026902</ele>
        <time>2020-07-19T10:34:10Z</time>
      </trkpt>
      <trkpt lat="48.35565" lon="2.80568">
        <ele>58.746399438115</ele>
        <time>2020-07-19T10:34:16Z</time>
      </trkpt>
      <trkpt lat="48.35561" lon="2.80557">
        <ele>58.764348422536</ele>
        <time>2020-07-19T10:34:21Z</time>
      </trkpt>
      <trkpt lat="48.35558" lon="2.80546">
        <ele>58.787142945037</ele>
        <time>2020-07-19T10:34:27Z</time>
      </trkpt>
      <trkpt lat="48.35555" lon="2.80536">
        <ele>58.8142428665</ele>
        <time>2020-07-19T10:34:34Z</time>
      </trkpt>
      <trkpt lat="48.35551" lon="2.80524">
        <ele>58.835863946286</ele>
        <time>2020-07-19T10:34:41Z</time>
      </trkpt>
      <trkpt lat="48.35544" lon="2.80516">
        <ele>58.854096282974</ele>
        <time>2020-07-19T10:34:47Z</time>
      </trkpt>
      <trkpt lat="48.35538" lon="2.80508">
        <ele>58.866030386386</ele>
        <time>2020-07-19T10:34:51Z</time>
      </trkpt>
      <trkpt lat="48.35531" lon="2.805">
        <ele>58.881500085311</ele>
        <time>2020-07-19T10:34:56Z</time>
      </trkpt>
      <trkpt lat="48.35525" lon="2.80491">
        <ele>58.905307197308</ele>
        <time>2020-07-19T10:35:04Z</time>
      </trkpt>
      <trkpt lat="48.35519" lon="2.80483">
        <ele>58.91916621616</ele>
        <time>2020-07-19T10:35:10Z</time>
      </trkpt>
      <trkpt lat="48.35513" lon="2.80472">
        <ele>58.926365442757</ele>
        <time>2020-07-19T10:35:17Z</time>
      </trkpt>
      <trkpt lat="48.35508" lon="2.80463">
        <ele>58.936456474104</ele>
        <time>2020-07-19T10:35:22Z</time>
      </trkpt>
      <trkpt lat="48.35506" lon="2.80453">
        <ele>58.953524457112</ele>
        <time>2020-07-19T10:35:31Z</time>
      </trkpt>
      <trkpt lat="48.355" lon="2.80444">
        <ele>58.965159905011</ele>
        <time>2020-07-19T10:35:37Z</time>
      </trkpt>
      <trkpt lat="48.35495" lon="2.80434">
        <ele>58.995961322117</ele>
        <time>2020-07-19T10:35:47Z</time>
      </trkpt>
      <trkpt lat="48.35492" lon="2.80424">
        <ele>59.012601795696</ele>
        <time>2020-07-19T10:35:52Z</time>
      </trkpt>
      <trkpt lat="48.35488" lon="2.80413">
        <ele>59.026642924114</ele>
        <time>2020-07-19T10:35:59Z</time>
      </trkpt>
      <trkpt lat="48.35483" lon="2.80403">
        <ele>59.036689899716</ele>
        <time>2020-07-19T10:36:03Z</time>
      </trkpt>
      <trkpt lat="48.35477" lon="2.80394">
        <ele>59.042733016828</ele>
        <time>2020-07-19T10:36:07Z</time>
      </trkpt>
      <trkpt lat="48.3547" lon="2.80387">
        <ele>58.991462693833</ele>
        <time>2020-07-19T10:36:36Z</time>
      </trkpt>
      <trkpt lat="48.35471" lon="2.80373">
        <ele>59.061331354517</ele>
        <time>2020-07-19T10:37:41Z</time>
      </trkpt>
      <trkpt lat="48.35465" lon="2.80364">
        <ele>59.08281323747</ele>
        <time>2020-07-19T10:37:47Z</time>
      </trkpt>
      <trkpt lat="48.35461" lon="2.80352">
        <ele>59.10771886287</ele>
        <time>2020-07-19T10:37:54Z</time>
      </trkpt>
      <trkpt lat="48.35459" lon="2.80341">
        <ele>59.125948489692</ele>
        <time>2020-07-19T10:38:01Z</time>
      </trkpt>
      <trkpt lat="48.35454" lon="2.80333">
        <ele>59.139272821959</ele>
        <time>2020-07-19T10:38:05Z</time>
      </trkpt>
      <trkpt lat="48.35443" lon="2.80326">
        <ele>59.159410761152</ele>
        <time>2020-07-19T10:38:10Z</time>
      </trkpt>
      <trkpt lat="48.35437" lon="2.80317">
        <ele>59.192380518796</ele>
        <time>2020-07-19T10:38:17Z</time>
      </trkpt>
      <trkpt lat="48.35434" lon="2.80305">
        <ele>59.213220999582</ele>
        <time>2020-07-19T10:38:23Z</time>
      </trkpt>
      <trkpt lat="48.35432" lon="2.80293">
        <ele>59.224183072697</ele>
        <time>2020-07-19T10:38:30Z</time>
      </trkpt>
      <trkpt lat="48.35428" lon="2.80283">
        <ele>59.223391457373</ele>
        <time>2020-07-19T10:38:35Z</time>
      </trkpt>
      <trkpt lat="48.35425" lon="2.80272">
        <ele>59.225514534696</ele>
        <time>2020-07-19T10:38:42Z</time>
      </trkpt>
      <trkpt lat="48.3542" lon="2.8026">
        <ele>59.22590060743</ele>
        <time>2020-07-19T10:38:47Z</time>
      </trkpt>
      <trkpt lat="48.35416" lon="2.80251">
        <ele>59.226578102174</ele>
        <time>2020-07-19T10:38:53Z</time>
      </trkpt>
      <trkpt lat="48.35413" lon="2.8024">
        <ele>59.233392217183</ele>
        <time>2020-07-19T10:38:59Z</time>
      </trkpt>
      <trkpt lat="48.35407" lon="2.8023">
        <ele>59.242043830191</ele>
        <time>2020-07-19T10:39:05Z</time>
      </trkpt>
      <trkpt lat="48.35401" lon="2.80223">
        <ele>59.246919113477</ele>
        <time>2020-07-19T10:39:12Z</time>
      </trkpt>
      <trkpt lat="48.35395" lon="2.80215">
        <ele>59.247677797929</ele>
        <time>2020-07-19T10:39:16Z</time>
      </trkpt>
      <trkpt lat="48.35392" lon="2.80203">
        <ele>59.251713655825</ele>
        <time>2020-07-19T10:39:22Z</time>
      </trkpt>
      <trkpt lat="48.35385" lon="2.80197">
        <ele>59.255088880728</ele>
        <time>2020-07-19T10:39:27Z</time>
      </trkpt>
      <trkpt lat="48.35379" lon="2.80188">
        <ele>59.256757360457</ele>
        <time>2020-07-19T10:39:32Z</time>
      </trkpt>
      <trkpt lat="48.35374" lon="2.80177">
        <ele>59.25644361692</ele>
        <time>2020-07-19T10:39:38Z</time>
      </trkpt>
      <trkpt lat="48.35367" lon="2.80171">
        <ele>59.25390330978</ele>
        <time>2020-07-19T10:39:45Z</time>
      </trkpt>
      <trkpt lat="48.35361" lon="2.80162">
        <ele>59.242583764822</ele>
        <time>2020-07-19T10:39:52Z</time>
      </trkpt>
      <trkpt lat="48.35358" lon="2.80151">
        <ele>59.228220777449</ele>
        <time>2020-07-19T10:39:58Z</time>
      </trkpt>
      <trkpt lat="48.35355" lon="2.80138">
        <ele>59.196392823582</ele>
        <time>2020-07-19T10:40:07Z</time>
      </trkpt>
      <trkpt lat="48.35349" lon="2.8013">
        <ele>59.180500441124</ele>
        <time>2020-07-19T10:40:14Z</time>
      </trkpt>
      <trkpt lat="48.35348" lon="2.80119">
        <ele>59.167053094073</ele>
        <time>2020-07-19T10:40:21Z</time>
      </trkpt>
      <trkpt lat="48.35348" lon="2.80108">
        <ele>59.158248822595</ele>
        <time>2020-07-19T10:40:27Z</time>
      </trkpt>
      <trkpt lat="48.35344" lon="2.80097">
        <ele>59.154556513087</ele>
        <time>2020-07-19T10:40:33Z</time>
      </trkpt>
      <trkpt lat="48.35342" lon="2.80086">
        <ele>59.152726174743</ele>
        <time>2020-07-19T10:40:39Z</time>
      </trkpt>
      <trkpt lat="48.35336" lon="2.80075">
        <ele>59.153521057706</ele>
        <time>2020-07-19T10:40:46Z</time>
      </trkpt>
      <trkpt lat="48.35332" lon="2.80065">
        <ele>59.156485543956</ele>
        <time>2020-07-19T10:40:53Z</time>
      </trkpt>
      <trkpt lat="48.35328" lon="2.80053">
        <ele>59.147677125628</ele>
        <time>2020-07-19T10:40:59Z</time>
      </trkpt>
      <trkpt lat="48.35323" lon="2.80042">
        <ele>59.139225733015</ele>
        <time>2020-07-19T10:41:08Z</time>
      </trkpt>
      <trkpt lat="48.35316" lon="2.80035">
        <ele>59.127618229716</ele>
        <time>2020-07-19T10:41:16Z</time>
      </trkpt>
      <trkpt lat="48.35312" lon="2.80025">
        <ele>59.119919504609</ele>
        <time>2020-07-19T10:41:20Z</time>
      </trkpt>
      <trkpt lat="48.35308" lon="2.80013">
        <ele>59.097246411434</ele>
        <time>2020-07-19T10:41:32Z</time>
      </trkpt>
      <trkpt lat="48.35302" lon="2.80006">
        <ele>59.082526429549</ele>
        <time>2020-07-19T10:41:40Z</time>
      </trkpt>
      <trkpt lat="48.35297" lon="2.79997">
        <ele>59.074619966709</ele>
        <time>2020-07-19T10:41:45Z</time>
      </trkpt>
      <trkpt lat="48.35291" lon="2.79989">
        <ele>59.070816389575</ele>
        <time>2020-07-19T10:41:50Z</time>
      </trkpt>
      <trkpt lat="48.35283" lon="2.79982">
        <ele>59.070367885278</ele>
        <time>2020-07-19T10:41:58Z</time>
      </trkpt>
      <trkpt lat="48.35276" lon="2.79975">
        <ele>59.066126907525</ele>
        <time>2020-07-19T10:42:05Z</time>
      </trkpt>
      <trkpt lat="48.35268" lon="2.79969">
        <ele>59.057405566923</ele>
        <time>2020-07-19T10:42:10Z</time>
      </trkpt>
      <trkpt lat="48.3526" lon="2.79964">
        <ele>59.046303410331</ele>
        <time>2020-07-19T10:42:15Z</time>
      </trkpt>
      <trkpt lat="48.35252" lon="2.79965">
        <ele>59.026101353415</ele>
        <time>2020-07-19T10:42:22Z</time>
      </trkpt>
      <trkpt lat="48.35246" lon="2.79957">
        <ele>59.012945667857</ele>
        <time>2020-07-19T10:42:30Z</time>
      </trkpt>
      <trkpt lat="48.35237" lon="2.79948">
        <ele>59.000005221058</ele>
        <time>2020-07-19T10:42:35Z</time>
      </trkpt>
      <trkpt lat="48.35232" lon="2.79943">
        <ele>58.989593113928</ele>
        <time>2020-07-19T10:42:40Z</time>
      </trkpt>
      <trkpt lat="48.35224" lon="2.79939">
        <ele>58.977157027722</ele>
        <time>2020-07-19T10:42:44Z</time>
      </trkpt>
      <trkpt lat="48.35217" lon="2.79934">
        <ele>58.964972018936</ele>
        <time>2020-07-19T10:42:49Z</time>
      </trkpt>
      <trkpt lat="48.3521" lon="2.79927">
        <ele>58.955733191345</ele>
        <time>2020-07-19T10:42:57Z</time>
      </trkpt>
      <trkpt lat="48.35201" lon="2.79923">
        <ele>58.958749931079</ele>
        <time>2020-07-19T10:43:04Z</time>
      </trkpt>
      <trkpt lat="48.35195" lon="2.79914">
        <ele>58.960461100172</ele>
        <time>2020-07-19T10:43:14Z</time>
      </trkpt>
      <trkpt lat="48.3519" lon="2.79912">
        <ele>58.956449694903</ele>
        <time>2020-07-19T10:43:19Z</time>
      </trkpt>
      <trkpt lat="48.35178" lon="2.79906">
        <ele>58.946258610941</ele>
        <time>2020-07-19T10:43:23Z</time>
      </trkpt>
      <trkpt lat="48.35167" lon="2.79902">
        <ele>58.912021458627</ele>
        <time>2020-07-19T10:43:28Z</time>
      </trkpt>
      <trkpt lat="48.35159" lon="2.79898">
        <ele>58.863071654129</ele>
        <time>2020-07-19T10:43:35Z</time>
      </trkpt>
      <trkpt lat="48.35151" lon="2.79891">
        <ele>58.799668610102</ele>
        <time>2020-07-19T10:43:43Z</time>
      </trkpt>
      <trkpt lat="48.35146" lon="2.79885">
        <ele>58.768774389492</ele>
        <time>2020-07-19T10:43:48Z</time>
      </trkpt>
      <trkpt lat="48.3514" lon="2.79877">
        <ele>58.723882262266</ele>
        <time>2020-07-19T10:43:52Z</time>
      </trkpt>
      <trkpt lat="48.35133" lon="2.79871">
        <ele>58.67520951698</ele>
        <time>2020-07-19T10:43:58Z</time>
      </trkpt>
      <trkpt lat="48.35126" lon="2.79863">
        <ele>58.620168589898</ele>
        <time>2020-07-19T10:44:06Z</time>
      </trkpt>
      <trkpt lat="48.3512" lon="2.79853">
        <ele>58.594413550886</ele>
        <time>2020-07-19T10:44:12Z</time>
      </trkpt>
      <trkpt lat="48.35113" lon="2.79847">
        <ele>58.597703835587</ele>
        <time>2020-07-19T10:44:18Z</time>
      </trkpt>
      <trkpt lat="48.35106" lon="2.79838">
        <ele>58.602269383671</ele>
        <time>2020-07-19T10:44:25Z</time>
      </trkpt>
      <trkpt lat="48.35101" lon="2.7983">
        <ele>58.607419191032</ele>
        <time>2020-07-19T10:44:31Z</time>
      </trkpt>
      <trkpt lat="48.35095" lon="2.79822">
        <ele>58.6252057074</ele>
        <time>2020-07-19T10:44:39Z</time>
      </trkpt>
      <trkpt lat="48.35087" lon="2.79815">
        <ele>58.631552892705</ele>
        <time>2020-07-19T10:44:44Z</time>
      </trkpt>
      <trkpt lat="48.3508" lon="2.79808">
        <ele>58.657650030189</ele>
        <time>2020-07-19T10:44:48Z</time>
      </trkpt>
      <trkpt lat="48.35074" lon="2.79801">
        <ele>58.70869618214</ele>
        <time>2020-07-19T10:44:55Z</time>
      </trkpt>
      <trkpt lat="48.35068" lon="2.79793">
        <ele>58.736406689257</ele>
        <time>2020-07-19T10:45:01Z</time>
      </trkpt>
      <trkpt lat="48.35061" lon="2.79784">
        <ele>58.752390959676</ele>
        <time>2020-07-19T10:45:07Z</time>
      </trkpt>
      <trkpt lat="48.35056" lon="2.79774">
        <ele>58.799399600873</ele>
        <time>2020-07-19T10:45:15Z</time>
      </trkpt>
      <trkpt lat="48.35049" lon="2.79767">
        <ele>58.833827555811</ele>
        <time>2020-07-19T10:45:21Z</time>
      </trkpt>
      <trkpt lat="48.35042" lon="2.7976">
        <ele>58.867022646212</ele>
        <time>2020-07-19T10:45:27Z</time>
      </trkpt>
      <trkpt lat="48.35036" lon="2.79753">
        <ele>58.893119754552</ele>
        <time>2020-07-19T10:45:33Z</time>
      </trkpt>
      <trkpt lat="48.35029" lon="2.79748">
        <ele>58.923777723317</ele>
        <time>2020-07-19T10:45:37Z</time>
      </trkpt>
      <trkpt lat="48.35022" lon="2.7974">
        <ele>58.984967381949</ele>
        <time>2020-07-19T10:45:44Z</time>
      </trkpt>
      <trkpt lat="48.35015" lon="2.79732">
        <ele>59.047592692801</ele>
        <time>2020-07-19T10:45:50Z</time>
      </trkpt>
      <trkpt lat="48.35009" lon="2.79724">
        <ele>59.09853513352</ele>
        <time>2020-07-19T10:45:56Z</time>
      </trkpt>
      <trkpt lat="48.35002" lon="2.79716">
        <ele>59.151092331798</ele>
        <time>2020-07-19T10:46:03Z</time>
      </trkpt>
      <trkpt lat="48.34995" lon="2.79707">
        <ele>59.183743854331</ele>
        <time>2020-07-19T10:46:09Z</time>
      </trkpt>
      <trkpt lat="48.34989" lon="2.79698">
        <ele>59.205671644786</ele>
        <time>2020-07-19T10:46:14Z</time>
      </trkpt>
      <trkpt lat="48.34985" lon="2.79687">
        <ele>59.232333789421</ele>
        <time>2020-07-19T10:46:22Z</time>
      </trkpt>
      <trkpt lat="48.3498" lon="2.79677">
        <ele>59.263257783424</ele>
        <time>2020-07-19T10:46:43Z</time>
      </trkpt>
      <trkpt lat="48.34976" lon="2.79665">
        <ele>59.272066897261</ele>
        <time>2020-07-19T10:46:53Z</time>
      </trkpt>
      <trkpt lat="48.34972" lon="2.79658">
        <ele>59.277505492261</ele>
        <time>2020-07-19T10:46:59Z</time>
      </trkpt>
      <trkpt lat="48.34966" lon="2.7965">
        <ele>59.282769865276</ele>
        <time>2020-07-19T10:47:04Z</time>
      </trkpt>
      <trkpt lat="48.34961" lon="2.79642">
        <ele>59.285294474018</ele>
        <time>2020-07-19T10:47:13Z</time>
      </trkpt>
      <trkpt lat="48.34954" lon="2.79633">
        <ele>59.279464159717</ele>
        <time>2020-07-19T10:47:20Z</time>
      </trkpt>
      <trkpt lat="48.34947" lon="2.79625">
        <ele>59.276225063446</ele>
        <time>2020-07-19T10:47:27Z</time>
      </trkpt>
      <trkpt lat="48.34941" lon="2.79618">
        <ele>59.276754929909</ele>
        <time>2020-07-19T10:47:32Z</time>
      </trkpt>
      <trkpt lat="48.34936" lon="2.79609">
        <ele>59.281284053458</ele>
        <time>2020-07-19T10:47:38Z</time>
      </trkpt>
      <trkpt lat="48.34926" lon="2.79604">
        <ele>59.284760131772</ele>
        <time>2020-07-19T10:47:42Z</time>
      </trkpt>
      <trkpt lat="48.34919" lon="2.79596">
        <ele>59.292207703063</ele>
        <time>2020-07-19T10:47:49Z</time>
      </trkpt>
      <trkpt lat="48.34914" lon="2.7959">
        <ele>59.295325209446</ele>
        <time>2020-07-19T10:47:53Z</time>
      </trkpt>
      <trkpt lat="48.34908" lon="2.79581">
        <ele>59.292880322911</ele>
        <time>2020-07-19T10:48:03Z</time>
      </trkpt>
      <trkpt lat="48.34903" lon="2.79572">
        <ele>59.289181654657</ele>
        <time>2020-07-19T10:48:08Z</time>
      </trkpt>
      <trkpt lat="48.34899" lon="2.79561">
        <ele>59.28234228125</ele>
        <time>2020-07-19T10:48:15Z</time>
      </trkpt>
      <trkpt lat="48.34894" lon="2.79553">
        <ele>59.274537981153</ele>
        <time>2020-07-19T10:48:23Z</time>
      </trkpt>
      <trkpt lat="48.34888" lon="2.79545">
        <ele>59.268827111325</ele>
        <time>2020-07-19T10:48:35Z</time>
      </trkpt>
      <trkpt lat="48.34882" lon="2.79536">
        <ele>59.254243756944</ele>
        <time>2020-07-19T10:48:43Z</time>
      </trkpt>
      <trkpt lat="48.34877" lon="2.79526">
        <ele>59.238459488386</ele>
        <time>2020-07-19T10:48:56Z</time>
      </trkpt>
      <trkpt lat="48.34872" lon="2.79515">
        <ele>59.238155040387</ele>
        <time>2020-07-19T10:49:03Z</time>
      </trkpt>
      <trkpt lat="48.34868" lon="2.79506">
        <ele>59.238407112081</ele>
        <time>2020-07-19T10:49:09Z</time>
      </trkpt>
      <trkpt lat="48.3486" lon="2.79501">
        <ele>59.236744449925</ele>
        <time>2020-07-19T10:49:13Z</time>
      </trkpt>
      <trkpt lat="48.34853" lon="2.79492">
        <ele>59.233233745352</ele>
        <time>2020-07-19T10:49:20Z</time>
      </trkpt>
      <trkpt lat="48.34846" lon="2.79485">
        <ele>59.227690281774</ele>
        <time>2020-07-19T10:49:26Z</time>
      </trkpt>
      <trkpt lat="48.34839" lon="2.79477">
        <ele>59.222805128322</ele>
        <time>2020-07-19T10:49:31Z</time>
      </trkpt>
      <trkpt lat="48.34835" lon="2.79465">
        <ele>59.217403960716</ele>
        <time>2020-07-19T10:49:35Z</time>
      </trkpt>
      <trkpt lat="48.34832" lon="2.79454">
        <ele>59.200717520876</ele>
        <time>2020-07-19T10:49:41Z</time>
      </trkpt>
      <trkpt lat="48.34824" lon="2.79446">
        <ele>59.18218192028</ele>
        <time>2020-07-19T10:49:49Z</time>
      </trkpt>
      <trkpt lat="48.34818" lon="2.79439">
        <ele>59.183920632469</ele>
        <time>2020-07-19T10:49:54Z</time>
      </trkpt>
      <trkpt lat="48.34811" lon="2.79433">
        <ele>59.204248570343</ele>
        <time>2020-07-19T10:50:01Z</time>
      </trkpt>
      <trkpt lat="48.34804" lon="2.79427">
        <ele>59.247999021291</ele>
        <time>2020-07-19T10:50:08Z</time>
      </trkpt>
      <trkpt lat="48.34797" lon="2.79419">
        <ele>59.274779436726</ele>
        <time>2020-07-19T10:50:14Z</time>
      </trkpt>
      <trkpt lat="48.3479" lon="2.79411">
        <ele>59.296453778094</ele>
        <time>2020-07-19T10:50:23Z</time>
      </trkpt>
      <trkpt lat="48.34784" lon="2.79401">
        <ele>59.316015593546</ele>
        <time>2020-07-19T10:50:29Z</time>
      </trkpt>
      <trkpt lat="48.3478" lon="2.79391">
        <ele>59.340408668876</ele>
        <time>2020-07-19T10:50:37Z</time>
      </trkpt>
      <trkpt lat="48.34773" lon="2.79386">
        <ele>59.356065405411</ele>
        <time>2020-07-19T10:50:42Z</time>
      </trkpt>
      <trkpt lat="48.34763" lon="2.79384">
        <ele>59.368867516838</ele>
        <time>2020-07-19T10:50:47Z</time>
      </trkpt>
      <trkpt lat="48.34754" lon="2.79387">
        <ele>59.357416911416</ele>
        <time>2020-07-19T10:50:56Z</time>
      </trkpt>
      <trkpt lat="48.34746" lon="2.79389">
        <ele>59.302340891455</ele>
        <time>2020-07-19T10:51:18Z</time>
      </trkpt>
      <trkpt lat="48.34741" lon="2.79398">
        <ele>59.23980148191</ele>
        <time>2020-07-19T10:51:46Z</time>
      </trkpt>
      <trkpt lat="48.34735" lon="2.79406">
        <ele>59.208442134922</ele>
        <time>2020-07-19T10:51:56Z</time>
      </trkpt>
      <trkpt lat="48.34727" lon="2.79411">
        <ele>59.185120315259</ele>
        <time>2020-07-19T10:52:02Z</time>
      </trkpt>
      <trkpt lat="48.3472" lon="2.79418">
        <ele>59.166847489874</ele>
        <time>2020-07-19T10:52:07Z</time>
      </trkpt>
      <trkpt lat="48.34716" lon="2.79429">
        <ele>59.165983022998</ele>
        <time>2020-07-19T10:52:16Z</time>
      </trkpt>
      <trkpt lat="48.34712" lon="2.79438">
        <ele>59.175639248514</ele>
        <time>2020-07-19T10:52:19Z</time>
      </trkpt>
      <trkpt lat="48.34708" lon="2.79448">
        <ele>59.183246716106</ele>
        <time>2020-07-19T10:52:23Z</time>
      </trkpt>
      <trkpt lat="48.34702" lon="2.79457">
        <ele>59.196849024764</ele>
        <time>2020-07-19T10:52:29Z</time>
      </trkpt>
      <trkpt lat="48.34697" lon="2.79466">
        <ele>59.209153353338</ele>
        <time>2020-07-19T10:52:40Z</time>
      </trkpt>
      <trkpt lat="48.3469" lon="2.7947">
        <ele>59.204232767886</ele>
        <time>2020-07-19T10:52:45Z</time>
      </trkpt>
      <trkpt lat="48.34683" lon="2.79476">
        <ele>59.212348167603</ele>
        <time>2020-07-19T10:52:49Z</time>
      </trkpt>
      <trkpt lat="48.34678" lon="2.79487">
        <ele>59.228457890325</ele>
        <time>2020-07-19T10:52:55Z</time>
      </trkpt>
      <trkpt lat="48.34675" lon="2.79499">
        <ele>59.263066092502</ele>
        <time>2020-07-19T10:53:01Z</time>
      </trkpt>
      <trkpt lat="48.34673" lon="2.79511">
        <ele>59.292178456203</ele>
        <time>2020-07-19T10:53:06Z</time>
      </trkpt>
      <trkpt lat="48.34668" lon="2.79521">
        <ele>59.320032408556</ele>
        <time>2020-07-19T10:53:12Z</time>
      </trkpt>
      <trkpt lat="48.34664" lon="2.79532">
        <ele>59.33479237921</ele>
        <time>2020-07-19T10:53:18Z</time>
      </trkpt>
      <trkpt lat="48.34661" lon="2.79544">
        <ele>59.33890110922</ele>
        <time>2020-07-19T10:53:26Z</time>
      </trkpt>
      <trkpt lat="48.34657" lon="2.79555">
        <ele>59.348485557657</ele>
        <time>2020-07-19T10:53:34Z</time>
      </trkpt>
      <trkpt lat="48.34652" lon="2.79566">
        <ele>59.356596658955</ele>
        <time>2020-07-19T10:53:41Z</time>
      </trkpt>
      <trkpt lat="48.34648" lon="2.79575">
        <ele>59.359791500865</ele>
        <time>2020-07-19T10:53:46Z</time>
      </trkpt>
      <trkpt lat="48.34643" lon="2.79586">
        <ele>59.365055201166</ele>
        <time>2020-07-19T10:53:52Z</time>
      </trkpt>
      <trkpt lat="48.34637" lon="2.79593">
        <ele>59.367087348084</ele>
        <time>2020-07-19T10:53:58Z</time>
      </trkpt>
      <trkpt lat="48.34632" lon="2.79602">
        <ele>59.370340978258</ele>
        <time>2020-07-19T10:54:05Z</time>
      </trkpt>
      <trkpt lat="48.34625" lon="2.79609">
        <ele>59.372449102997</ele>
        <time>2020-07-19T10:54:12Z</time>
      </trkpt>
      <trkpt lat="48.34617" lon="2.79611">
        <ele>59.326919066743</ele>
        <time>2020-07-19T10:54:25Z</time>
      </trkpt>
      <trkpt lat="48.34609" lon="2.79607">
        <ele>59.272013977155</ele>
        <time>2020-07-19T10:54:38Z</time>
      </trkpt>
      <trkpt lat="48.34602" lon="2.796">
        <ele>59.212518673155</ele>
        <time>2020-07-19T10:54:46Z</time>
      </trkpt>
      <trkpt lat="48.34595" lon="2.79596">
        <ele>59.163258509043</ele>
        <time>2020-07-19T10:54:52Z</time>
      </trkpt>
      <trkpt lat="48.34587" lon="2.79595">
        <ele>58.574156985159</ele>
        <time>2020-07-19T10:55:58Z</time>
      </trkpt>
      <trkpt lat="48.34582" lon="2.79586">
        <ele>58.458208980516</ele>
        <time>2020-07-19T10:56:05Z</time>
      </trkpt>
      <trkpt lat="48.34577" lon="2.79576">
        <ele>58.336342638411</ele>
        <time>2020-07-19T10:56:12Z</time>
      </trkpt>
      <trkpt lat="48.3457" lon="2.79569">
        <ele>58.213938864418</ele>
        <time>2020-07-19T10:56:19Z</time>
      </trkpt>
      <trkpt lat="48.34563" lon="2.79562">
        <ele>58.133286010959</ele>
        <time>2020-07-19T10:56:24Z</time>
      </trkpt>
      <trkpt lat="48.34557" lon="2.79554">
        <ele>58.039062129306</ele>
        <time>2020-07-19T10:56:30Z</time>
      </trkpt>
      <trkpt lat="48.34551" lon="2.79545">
        <ele>57.925978755815</ele>
        <time>2020-07-19T10:56:38Z</time>
      </trkpt>
      <trkpt lat="48.34544" lon="2.79539">
        <ele>57.856249627936</ele>
        <time>2020-07-19T10:56:43Z</time>
      </trkpt>
      <trkpt lat="48.34538" lon="2.79532">
        <ele>57.764252992343</ele>
        <time>2020-07-19T10:56:50Z</time>
      </trkpt>
      <trkpt lat="48.34531" lon="2.79527">
        <ele>57.663870193941</ele>
        <time>2020-07-19T10:56:57Z</time>
      </trkpt>
      <trkpt lat="48.34523" lon="2.79523">
        <ele>57.5929052942</ele>
        <time>2020-07-19T10:57:02Z</time>
      </trkpt>
      <trkpt lat="48.34516" lon="2.79528">
        <ele>57.476365565596</ele>
        <time>2020-07-19T10:57:11Z</time>
      </trkpt>
      <trkpt lat="48.34513" lon="2.79541">
        <ele>57.340182790828</ele>
        <time>2020-07-19T10:57:30Z</time>
      </trkpt>
      <trkpt lat="48.34521" lon="2.79535">
        <ele>57.15467263622</ele>
        <time>2020-07-19T10:58:04Z</time>
      </trkpt>
      <trkpt lat="48.34523" lon="2.79523">
        <ele>57.063179025777</ele>
        <time>2020-07-19T10:58:15Z</time>
      </trkpt>
      <trkpt lat="48.34531" lon="2.79526">
        <ele>56.733162113286</ele>
        <time>2020-07-19T10:59:38Z</time>
      </trkpt>
      <trkpt lat="48.34537" lon="2.79533">
        <ele>56.578764331601</ele>
        <time>2020-07-19T10:59:52Z</time>
      </trkpt>
      <trkpt lat="48.34543" lon="2.79542">
        <ele>56.474373155226</ele>
        <time>2020-07-19T11:00:00Z</time>
      </trkpt>
      <trkpt lat="48.34551" lon="2.79548">
        <ele>56.36272046642</ele>
        <time>2020-07-19T11:00:06Z</time>
      </trkpt>
      <trkpt lat="48.34558" lon="2.79554">
        <ele>56.289438154158</ele>
        <time>2020-07-19T11:00:11Z</time>
      </trkpt>
      <trkpt lat="48.34564" lon="2.79561">
        <ele>56.202996050065</ele>
        <time>2020-07-19T11:00:17Z</time>
      </trkpt>
      <trkpt lat="48.34571" lon="2.79568">
        <ele>56.11525010111</ele>
        <time>2020-07-19T11:00:23Z</time>
      </trkpt>
      <trkpt lat="48.34579" lon="2.79573">
        <ele>56.043375880764</ele>
        <time>2020-07-19T11:00:28Z</time>
      </trkpt>
      <trkpt lat="48.34585" lon="2.7958">
        <ele>55.963821896889</ele>
        <time>2020-07-19T11:00:34Z</time>
      </trkpt>
      <trkpt lat="48.34592" lon="2.79588">
        <ele>55.864960219687</ele>
        <time>2020-07-19T11:00:42Z</time>
      </trkpt>
      <trkpt lat="48.34596" lon="2.79599">
        <ele>55.764946444579</ele>
        <time>2020-07-19T11:00:51Z</time>
      </trkpt>
      <trkpt lat="48.34596" lon="2.79596">
        <ele>55.494904818155</ele>
        <time>2020-07-19T11:02:20Z</time>
      </trkpt>
      <trkpt lat="48.34596" lon="2.79596">
        <ele>55.494904818155</ele>
        <time>2020-07-19T11:02:21Z</time>
      </trkpt>
      <trkpt lat="48.34596" lon="2.79597">
        <ele>55.481876100273</ele>
        <time>2020-07-19T11:02:31Z</time>
      </trkpt>
      <trkpt lat="48.34596" lon="2.79598">
        <ele>55.479373622656</ele>
        <time>2020-07-19T11:02:34Z</time>
      </trkpt>
      <trkpt lat="48.34596" lon="2.79598">
        <ele>55.479373622656</ele>
        <time>2020-07-19T11:02:35Z</time>
      </trkpt>
      <trkpt lat="48.34596" lon="2.79623">
        <ele>79.747922622064</ele>
        <time>2020-07-19T11:57:36Z</time>
      </trkpt>
      <trkpt lat="48.34596" lon="2.79612">
        <ele>73.820889315199</ele>
        <time>2020-07-19T11:57:42Z</time>
      </trkpt>
      <trkpt lat="48.34585" lon="2.79605">
        <ele>49.805162477796</ele>
        <time>2020-07-19T11:57:47Z</time>
      </trkpt>
      <trkpt lat="48.34592" lon="2.79596">
        <ele>49.279090240862</ele>
        <time>2020-07-19T11:59:21Z</time>
      </trkpt>
      <trkpt lat="48.34585" lon="2.7959">
        <ele>52.097725582119</ele>
        <time>2020-07-19T12:01:19Z</time>
      </trkpt>
      <trkpt lat="48.34578" lon="2.79582">
        <ele>52.733591416444</ele>
        <time>2020-07-19T12:01:28Z</time>
      </trkpt>
      <trkpt lat="48.34571" lon="2.79576">
        <ele>53.311096095604</ele>
        <time>2020-07-19T12:01:38Z</time>
      </trkpt>
      <trkpt lat="48.34563" lon="2.79571">
        <ele>53.928740613749</ele>
        <time>2020-07-19T12:01:53Z</time>
      </trkpt>
      <trkpt lat="48.34556" lon="2.79566">
        <ele>54.17955881312</ele>
        <time>2020-07-19T12:02:00Z</time>
      </trkpt>
      <trkpt lat="48.3455" lon="2.79558">
        <ele>54.431761237829</ele>
        <time>2020-07-19T12:02:08Z</time>
      </trkpt>
      <trkpt lat="48.34543" lon="2.79551">
        <ele>54.647029522362</ele>
        <time>2020-07-19T12:02:16Z</time>
      </trkpt>
      <trkpt lat="48.34535" lon="2.79545">
        <ele>54.803396614593</ele>
        <time>2020-07-19T12:02:23Z</time>
      </trkpt>
      <trkpt lat="48.34528" lon="2.79538">
        <ele>54.956122492935</ele>
        <time>2020-07-19T12:02:31Z</time>
      </trkpt>
      <trkpt lat="48.3452" lon="2.79531">
        <ele>55.067699233502</ele>
        <time>2020-07-19T12:02:39Z</time>
      </trkpt>
      <trkpt lat="48.34514" lon="2.79524">
        <ele>55.187407015311</ele>
        <time>2020-07-19T12:02:50Z</time>
      </trkpt>
      <trkpt lat="48.34506" lon="2.79518">
        <ele>55.235742235007</ele>
        <time>2020-07-19T12:02:57Z</time>
      </trkpt>
      <trkpt lat="48.34499" lon="2.7951">
        <ele>55.284348202824</ele>
        <time>2020-07-19T12:03:04Z</time>
      </trkpt>
      <trkpt lat="48.34492" lon="2.79503">
        <ele>55.344854594049</ele>
        <time>2020-07-19T12:03:12Z</time>
      </trkpt>
      <trkpt lat="48.34484" lon="2.79498">
        <ele>55.378803785122</ele>
        <time>2020-07-19T12:03:18Z</time>
      </trkpt>
      <trkpt lat="48.34476" lon="2.79492">
        <ele>55.397355586796</ele>
        <time>2020-07-19T12:03:24Z</time>
      </trkpt>
      <trkpt lat="48.34468" lon="2.79486">
        <ele>55.403752608009</ele>
        <time>2020-07-19T12:03:30Z</time>
      </trkpt>
      <trkpt lat="48.34461" lon="2.79479">
        <ele>55.398966049167</ele>
        <time>2020-07-19T12:03:38Z</time>
      </trkpt>
      <trkpt lat="48.34454" lon="2.79473">
        <ele>55.391073309815</ele>
        <time>2020-07-19T12:03:45Z</time>
      </trkpt>
      <trkpt lat="48.34447" lon="2.79465">
        <ele>55.372504402565</ele>
        <time>2020-07-19T12:03:55Z</time>
      </trkpt>
      <trkpt lat="48.3444" lon="2.79455">
        <ele>55.356704647484</ele>
        <time>2020-07-19T12:04:01Z</time>
      </trkpt>
      <trkpt lat="48.34434" lon="2.79446">
        <ele>55.328764424701</ele>
        <time>2020-07-19T12:04:10Z</time>
      </trkpt>
      <trkpt lat="48.34426" lon="2.79441">
        <ele>55.315805118665</ele>
        <time>2020-07-19T12:04:15Z</time>
      </trkpt>
      <trkpt lat="48.34419" lon="2.79435">
        <ele>55.300840089709</ele>
        <time>2020-07-19T12:04:23Z</time>
      </trkpt>
      <trkpt lat="48.34411" lon="2.79431">
        <ele>55.286909273296</ele>
        <time>2020-07-19T12:04:29Z</time>
      </trkpt>
      <trkpt lat="48.34404" lon="2.79425">
        <ele>55.267714794602</ele>
        <time>2020-07-19T12:04:36Z</time>
      </trkpt>
      <trkpt lat="48.34398" lon="2.79416">
        <ele>55.24357958826</ele>
        <time>2020-07-19T12:04:42Z</time>
      </trkpt>
      <trkpt lat="48.34392" lon="2.79407">
        <ele>55.21117573675</ele>
        <time>2020-07-19T12:04:48Z</time>
      </trkpt>
      <trkpt lat="48.34385" lon="2.79398">
        <ele>55.167938785279</ele>
        <time>2020-07-19T12:04:57Z</time>
      </trkpt>
      <trkpt lat="48.34379" lon="2.79391">
        <ele>55.145719845458</ele>
        <time>2020-07-19T12:05:03Z</time>
      </trkpt>
      <trkpt lat="48.34372" lon="2.79383">
        <ele>55.128021464652</ele>
        <time>2020-07-19T12:05:10Z</time>
      </trkpt>
      <trkpt lat="48.34365" lon="2.79376">
        <ele>55.10498219877</ele>
        <time>2020-07-19T12:05:18Z</time>
      </trkpt>
      <trkpt lat="48.34358" lon="2.79367">
        <ele>55.085524316126</ele>
        <time>2020-07-19T12:05:28Z</time>
      </trkpt>
      <trkpt lat="48.34351" lon="2.7936">
        <ele>55.079579260398</ele>
        <time>2020-07-19T12:05:35Z</time>
      </trkpt>
      <trkpt lat="48.34344" lon="2.79352">
        <ele>55.053232556306</ele>
        <time>2020-07-19T12:05:44Z</time>
      </trkpt>
      <trkpt lat="48.34338" lon="2.79342">
        <ele>54.990512856433</ele>
        <time>2020-07-19T12:05:57Z</time>
      </trkpt>
      <trkpt lat="48.34332" lon="2.79334">
        <ele>54.825386722799</ele>
        <time>2020-07-19T12:06:07Z</time>
      </trkpt>
      <trkpt lat="48.34325" lon="2.79327">
        <ele>54.611047715146</ele>
        <time>2020-07-19T12:06:22Z</time>
      </trkpt>
      <trkpt lat="48.34321" lon="2.79316">
        <ele>54.410611133253</ele>
        <time>2020-07-19T12:06:34Z</time>
      </trkpt>
      <trkpt lat="48.34314" lon="2.79307">
        <ele>54.259769060144</ele>
        <time>2020-07-19T12:06:42Z</time>
      </trkpt>
      <trkpt lat="48.34308" lon="2.79298">
        <ele>54.141844798725</ele>
        <time>2020-07-19T12:06:49Z</time>
      </trkpt>
      <trkpt lat="48.34302" lon="2.7929">
        <ele>54.056680798943</ele>
        <time>2020-07-19T12:06:55Z</time>
      </trkpt>
      <trkpt lat="48.34296" lon="2.7928">
        <ele>53.950326574786</ele>
        <time>2020-07-19T12:07:04Z</time>
      </trkpt>
      <trkpt lat="48.34292" lon="2.79269">
        <ele>53.796467706531</ele>
        <time>2020-07-19T12:07:23Z</time>
      </trkpt>
      <trkpt lat="48.34288" lon="2.79258">
        <ele>53.712280130927</ele>
        <time>2020-07-19T12:07:30Z</time>
      </trkpt>
      <trkpt lat="48.34285" lon="2.79246">
        <ele>53.656091219705</ele>
        <time>2020-07-19T12:07:36Z</time>
      </trkpt>
      <trkpt lat="48.34278" lon="2.79238">
        <ele>53.5693022708</ele>
        <time>2020-07-19T12:07:48Z</time>
      </trkpt>
      <trkpt lat="48.34271" lon="2.79231">
        <ele>53.471581260336</ele>
        <time>2020-07-19T12:08:10Z</time>
      </trkpt>
      <trkpt lat="48.34266" lon="2.79221">
        <ele>53.431691177304</ele>
        <time>2020-07-19T12:08:18Z</time>
      </trkpt>
      <trkpt lat="48.3426" lon="2.79211">
        <ele>53.410151075508</ele>
        <time>2020-07-19T12:08:24Z</time>
      </trkpt>
      <trkpt lat="48.34255" lon="2.79201">
        <ele>53.393200806403</ele>
        <time>2020-07-19T12:08:31Z</time>
      </trkpt>
      <trkpt lat="48.34249" lon="2.79192">
        <ele>53.382175966112</ele>
        <time>2020-07-19T12:08:39Z</time>
      </trkpt>
      <trkpt lat="48.34242" lon="2.79186">
        <ele>53.375776466501</ele>
        <time>2020-07-19T12:08:44Z</time>
      </trkpt>
      <trkpt lat="48.34235" lon="2.79179">
        <ele>53.37008848143</ele>
        <time>2020-07-19T12:08:50Z</time>
      </trkpt>
      <trkpt lat="48.34229" lon="2.79172">
        <ele>53.366634036806</ele>
        <time>2020-07-19T12:08:55Z</time>
      </trkpt>
      <trkpt lat="48.34221" lon="2.79167">
        <ele>53.361427705432</ele>
        <time>2020-07-19T12:09:01Z</time>
      </trkpt>
      <trkpt lat="48.34214" lon="2.7916">
        <ele>53.353011010111</ele>
        <time>2020-07-19T12:09:08Z</time>
      </trkpt>
      <trkpt lat="48.34206" lon="2.79157">
        <ele>53.343356073206</ele>
        <time>2020-07-19T12:09:14Z</time>
      </trkpt>
      <trkpt lat="48.34199" lon="2.79152">
        <ele>53.333437120516</ele>
        <time>2020-07-19T12:09:21Z</time>
      </trkpt>
      <trkpt lat="48.34192" lon="2.79145">
        <ele>53.32630641373</ele>
        <time>2020-07-19T12:09:29Z</time>
      </trkpt>
      <trkpt lat="48.34185" lon="2.79143">
        <ele>53.320906478455</ele>
        <time>2020-07-19T12:09:35Z</time>
      </trkpt>
      <trkpt lat="48.34176" lon="2.79141">
        <ele>53.316422157721</ele>
        <time>2020-07-19T12:09:41Z</time>
      </trkpt>
      <trkpt lat="48.3417" lon="2.79131">
        <ele>53.311367951921</ele>
        <time>2020-07-19T12:10:02Z</time>
      </trkpt>
      <trkpt lat="48.34164" lon="2.79124">
        <ele>53.344389447627</ele>
        <time>2020-07-19T12:10:21Z</time>
      </trkpt>
      <trkpt lat="48.34157" lon="2.79119">
        <ele>53.354044580664</ele>
        <time>2020-07-19T12:10:27Z</time>
      </trkpt>
      <trkpt lat="48.34149" lon="2.79113">
        <ele>53.364403840305</ele>
        <time>2020-07-19T12:10:33Z</time>
      </trkpt>
      <trkpt lat="48.34143" lon="2.79106">
        <ele>53.377448039023</ele>
        <time>2020-07-19T12:10:43Z</time>
      </trkpt>
      <trkpt lat="48.34136" lon="2.79098">
        <ele>53.387468511164</ele>
        <time>2020-07-19T12:10:48Z</time>
      </trkpt>
      <trkpt lat="48.3413" lon="2.79088">
        <ele>53.406897734062</ele>
        <time>2020-07-19T12:10:58Z</time>
      </trkpt>
      <trkpt lat="48.34124" lon="2.79079">
        <ele>53.419313738201</ele>
        <time>2020-07-19T12:11:04Z</time>
      </trkpt>
      <trkpt lat="48.34118" lon="2.79071">
        <ele>53.434984935159</ele>
        <time>2020-07-19T12:11:16Z</time>
      </trkpt>
      <trkpt lat="48.34111" lon="2.79066">
        <ele>53.438313379592</ele>
        <time>2020-07-19T12:11:21Z</time>
      </trkpt>
      <trkpt lat="48.34106" lon="2.79057">
        <ele>53.44118243255</ele>
        <time>2020-07-19T12:11:27Z</time>
      </trkpt>
      <trkpt lat="48.34102" lon="2.79046">
        <ele>53.440616936551</ele>
        <time>2020-07-19T12:11:37Z</time>
      </trkpt>
      <trkpt lat="48.34095" lon="2.79039">
        <ele>53.437587047232</ele>
        <time>2020-07-19T12:11:48Z</time>
      </trkpt>
      <trkpt lat="48.34088" lon="2.79032">
        <ele>53.429594868902</ele>
        <time>2020-07-19T12:12:00Z</time>
      </trkpt>
      <trkpt lat="48.34082" lon="2.79023">
        <ele>53.414008157709</ele>
        <time>2020-07-19T12:12:16Z</time>
      </trkpt>
      <trkpt lat="48.34075" lon="2.79015">
        <ele>53.494271006722</ele>
        <time>2020-07-19T12:12:49Z</time>
      </trkpt>
      <trkpt lat="48.34069" lon="2.79006">
        <ele>53.532168840878</ele>
        <time>2020-07-19T12:12:56Z</time>
      </trkpt>
      <trkpt lat="48.3406" lon="2.79008">
        <ele>53.570503187059</ele>
        <time>2020-07-19T12:13:05Z</time>
      </trkpt>
      <trkpt lat="48.34054" lon="2.79014">
        <ele>53.592172859285</ele>
        <time>2020-07-19T12:13:12Z</time>
      </trkpt>
      <trkpt lat="48.34049" lon="2.79026">
        <ele>53.60466675336</ele>
        <time>2020-07-19T12:13:17Z</time>
      </trkpt>
      <trkpt lat="48.34041" lon="2.7902">
        <ele>53.623600259585</ele>
        <time>2020-07-19T12:13:50Z</time>
      </trkpt>
      <trkpt lat="48.34033" lon="2.79017">
        <ele>53.6229547099</ele>
        <time>2020-07-19T12:13:55Z</time>
      </trkpt>
      <trkpt lat="48.34025" lon="2.79012">
        <ele>53.618257593319</ele>
        <time>2020-07-19T12:14:03Z</time>
      </trkpt>
      <trkpt lat="48.34018" lon="2.79007">
        <ele>53.613309805306</ele>
        <time>2020-07-19T12:14:09Z</time>
      </trkpt>
      <trkpt lat="48.34014" lon="2.78996">
        <ele>53.59620775099</ele>
        <time>2020-07-19T12:14:25Z</time>
      </trkpt>
      <trkpt lat="48.34021" lon="2.78989">
        <ele>53.589842131576</ele>
        <time>2020-07-19T12:14:34Z</time>
      </trkpt>
      <trkpt lat="48.34029" lon="2.78989">
        <ele>53.586187353316</ele>
        <time>2020-07-19T12:14:40Z</time>
      </trkpt>
      <trkpt lat="48.34036" lon="2.7898">
        <ele>53.579472903931</ele>
        <time>2020-07-19T12:14:48Z</time>
      </trkpt>
      <trkpt lat="48.34041" lon="2.78971">
        <ele>53.553992946765</ele>
        <time>2020-07-19T12:14:58Z</time>
      </trkpt>
      <trkpt lat="48.34044" lon="2.78959">
        <ele>53.533720389284</ele>
        <time>2020-07-19T12:15:05Z</time>
      </trkpt>
      <trkpt lat="48.34043" lon="2.78947">
        <ele>53.508212402863</ele>
        <time>2020-07-19T12:15:12Z</time>
      </trkpt>
      <trkpt lat="48.34043" lon="2.78935">
        <ele>53.486955266342</ele>
        <time>2020-07-19T12:15:17Z</time>
      </trkpt>
      <trkpt lat="48.34049" lon="2.78926">
        <ele>53.366088221609</ele>
        <time>2020-07-19T12:15:48Z</time>
      </trkpt>
      <trkpt lat="48.34058" lon="2.78929">
        <ele>53.263049933953</ele>
        <time>2020-07-19T12:16:28Z</time>
      </trkpt>
      <trkpt lat="48.34066" lon="2.78929">
        <ele>53.385051204747</ele>
        <time>2020-07-19T12:17:52Z</time>
      </trkpt>
      <trkpt lat="48.34058" lon="2.78924">
        <ele>53.610993659076</ele>
        <time>2020-07-19T12:18:59Z</time>
      </trkpt>
      <trkpt lat="48.34051" lon="2.78919">
        <ele>53.687186953601</ele>
        <time>2020-07-19T12:19:22Z</time>
      </trkpt>
      <trkpt lat="48.34054" lon="2.78931">
        <ele>53.769519790243</ele>
        <time>2020-07-19T12:19:56Z</time>
      </trkpt>
      <trkpt lat="48.34047" lon="2.78938">
        <ele>53.803577691708</ele>
        <time>2020-07-19T12:20:08Z</time>
      </trkpt>
      <trkpt lat="48.34039" lon="2.78943">
        <ele>53.837658168842</ele>
        <time>2020-07-19T12:20:18Z</time>
      </trkpt>
      <trkpt lat="48.34036" lon="2.78956">
        <ele>53.854800965121</ele>
        <time>2020-07-19T12:20:23Z</time>
      </trkpt>
      <trkpt lat="48.34032" lon="2.78967">
        <ele>53.895819195105</ele>
        <time>2020-07-19T12:20:34Z</time>
      </trkpt>
      <trkpt lat="48.34025" lon="2.78975">
        <ele>53.90646895528</ele>
        <time>2020-07-19T12:20:44Z</time>
      </trkpt>
      <trkpt lat="48.34014" lon="2.78978">
        <ele>53.902577767886</ele>
        <time>2020-07-19T12:20:49Z</time>
      </trkpt>
      <trkpt lat="48.34009" lon="2.78988">
        <ele>53.892978618322</ele>
        <time>2020-07-19T12:20:58Z</time>
      </trkpt>
      <trkpt lat="48.34" lon="2.78988">
        <ele>53.874553615649</ele>
        <time>2020-07-19T12:21:12Z</time>
      </trkpt>
      <trkpt lat="48.33992" lon="2.78987">
        <ele>53.866149709053</ele>
        <time>2020-07-19T12:21:22Z</time>
      </trkpt>
      <trkpt lat="48.33983" lon="2.78983">
        <ele>53.888647081987</ele>
        <time>2020-07-19T12:21:35Z</time>
      </trkpt>
      <trkpt lat="48.33977" lon="2.78974">
        <ele>53.897672937098</ele>
        <time>2020-07-19T12:21:42Z</time>
      </trkpt>
      <trkpt lat="48.33972" lon="2.78965">
        <ele>53.916821084232</ele>
        <time>2020-07-19T12:21:53Z</time>
      </trkpt>
      <trkpt lat="48.33968" lon="2.78954">
        <ele>53.936468874381</ele>
        <time>2020-07-19T12:22:02Z</time>
      </trkpt>
      <trkpt lat="48.3396" lon="2.7895">
        <ele>53.943745376764</ele>
        <time>2020-07-19T12:22:08Z</time>
      </trkpt>
      <trkpt lat="48.33952" lon="2.78944">
        <ele>53.943027473507</ele>
        <time>2020-07-19T12:22:18Z</time>
      </trkpt>
      <trkpt lat="48.33948" lon="2.78933">
        <ele>53.914561193034</ele>
        <time>2020-07-19T12:22:26Z</time>
      </trkpt>
      <trkpt lat="48.33941" lon="2.78934">
        <ele>53.900544998288</ele>
        <time>2020-07-19T12:22:36Z</time>
      </trkpt>
      <trkpt lat="48.33933" lon="2.7894">
        <ele>53.900840395603</ele>
        <time>2020-07-19T12:22:41Z</time>
      </trkpt>
      <trkpt lat="48.33927" lon="2.78932">
        <ele>53.970639824331</ele>
        <time>2020-07-19T12:23:14Z</time>
      </trkpt>
      <trkpt lat="48.33919" lon="2.78926">
        <ele>53.99778638918</ele>
        <time>2020-07-19T12:23:29Z</time>
      </trkpt>
      <trkpt lat="48.3391" lon="2.78923">
        <ele>54.002022478287</ele>
        <time>2020-07-19T12:23:36Z</time>
      </trkpt>
      <trkpt lat="48.33902" lon="2.78924">
        <ele>54.003006128557</ele>
        <time>2020-07-19T12:23:42Z</time>
      </trkpt>
      <trkpt lat="48.33894" lon="2.78921">
        <ele>54.000192864259</ele>
        <time>2020-07-19T12:23:48Z</time>
      </trkpt>
      <trkpt lat="48.33888" lon="2.78914">
        <ele>53.987862489333</ele>
        <time>2020-07-19T12:23:54Z</time>
      </trkpt>
      <trkpt lat="48.33882" lon="2.78912">
        <ele>53.973093970198</ele>
        <time>2020-07-19T12:24:00Z</time>
      </trkpt>
      <trkpt lat="48.33873" lon="2.78909">
        <ele>53.960306483721</ele>
        <time>2020-07-19T12:24:14Z</time>
      </trkpt>
      <trkpt lat="48.33865" lon="2.78913">
        <ele>53.957459106364</ele>
        <time>2020-07-19T12:24:40Z</time>
      </trkpt>
      <trkpt lat="48.33858" lon="2.78909">
        <ele>53.960542802511</ele>
        <time>2020-07-19T12:24:46Z</time>
      </trkpt>
      <trkpt lat="48.3385" lon="2.78906">
        <ele>53.963182644939</ele>
        <time>2020-07-19T12:24:50Z</time>
      </trkpt>
      <trkpt lat="48.33843" lon="2.789">
        <ele>53.970712761401</ele>
        <time>2020-07-19T12:24:56Z</time>
      </trkpt>
      <trkpt lat="48.33836" lon="2.78892">
        <ele>53.985515621476</ele>
        <time>2020-07-19T12:25:06Z</time>
      </trkpt>
      <trkpt lat="48.33829" lon="2.78886">
        <ele>53.992759986792</ele>
        <time>2020-07-19T12:25:14Z</time>
      </trkpt>
      <trkpt lat="48.33822" lon="2.78881">
        <ele>53.994766760778</ele>
        <time>2020-07-19T12:25:18Z</time>
      </trkpt>
      <trkpt lat="48.33816" lon="2.78873">
        <ele>53.99448641498</ele>
        <time>2020-07-19T12:25:23Z</time>
      </trkpt>
      <trkpt lat="48.33814" lon="2.78861">
        <ele>53.989438114143</ele>
        <time>2020-07-19T12:25:28Z</time>
      </trkpt>
      <trkpt lat="48.33809" lon="2.78851">
        <ele>53.978057784445</ele>
        <time>2020-07-19T12:25:35Z</time>
      </trkpt>
      <trkpt lat="48.33801" lon="2.78847">
        <ele>53.958216660739</ele>
        <time>2020-07-19T12:25:43Z</time>
      </trkpt>
      <trkpt lat="48.33794" lon="2.78844">
        <ele>53.911177070642</ele>
        <time>2020-07-19T12:25:56Z</time>
      </trkpt>
      <trkpt lat="48.33788" lon="2.78836">
        <ele>53.885050509422</ele>
        <time>2020-07-19T12:26:03Z</time>
      </trkpt>
      <trkpt lat="48.33781" lon="2.78827">
        <ele>53.870935478257</ele>
        <time>2020-07-19T12:26:08Z</time>
      </trkpt>
      <trkpt lat="48.33776" lon="2.78818">
        <ele>53.858009982573</ele>
        <time>2020-07-19T12:26:13Z</time>
      </trkpt>
      <trkpt lat="48.33773" lon="2.78806">
        <ele>53.837744776473</ele>
        <time>2020-07-19T12:26:22Z</time>
      </trkpt>
      <trkpt lat="48.33768" lon="2.78797">
        <ele>53.816213598331</ele>
        <time>2020-07-19T12:26:31Z</time>
      </trkpt>
      <trkpt lat="48.33761" lon="2.78791">
        <ele>53.805666908588</ele>
        <time>2020-07-19T12:26:36Z</time>
      </trkpt>
      <trkpt lat="48.33753" lon="2.78787">
        <ele>53.77403008313</ele>
        <time>2020-07-19T12:26:44Z</time>
      </trkpt>
      <trkpt lat="48.3375" lon="2.78775">
        <ele>53.706164701773</ele>
        <time>2020-07-19T12:26:54Z</time>
      </trkpt>
      <trkpt lat="48.33743" lon="2.78767">
        <ele>53.65178314548</ele>
        <time>2020-07-19T12:27:14Z</time>
      </trkpt>
      <trkpt lat="48.33737" lon="2.78761">
        <ele>53.636007681952</ele>
        <time>2020-07-19T12:27:30Z</time>
      </trkpt>
      <trkpt lat="48.33733" lon="2.78752">
        <ele>53.632352588476</ele>
        <time>2020-07-19T12:27:34Z</time>
      </trkpt>
      <trkpt lat="48.33727" lon="2.78744">
        <ele>53.637408143768</ele>
        <time>2020-07-19T12:27:39Z</time>
      </trkpt>
      <trkpt lat="48.33721" lon="2.78735">
        <ele>53.639789962536</ele>
        <time>2020-07-19T12:27:45Z</time>
      </trkpt>
      <trkpt lat="48.33715" lon="2.78725">
        <ele>53.642589213272</ele>
        <time>2020-07-19T12:27:52Z</time>
      </trkpt>
      <trkpt lat="48.33709" lon="2.78716">
        <ele>53.640162309945</ele>
        <time>2020-07-19T12:27:59Z</time>
      </trkpt>
      <trkpt lat="48.33704" lon="2.78705">
        <ele>53.633195087294</ele>
        <time>2020-07-19T12:28:05Z</time>
      </trkpt>
      <trkpt lat="48.33702" lon="2.78693">
        <ele>53.617993380562</ele>
        <time>2020-07-19T12:28:18Z</time>
      </trkpt>
      <trkpt lat="48.33698" lon="2.7868">
        <ele>53.606413475383</ele>
        <time>2020-07-19T12:28:25Z</time>
      </trkpt>
      <trkpt lat="48.33696" lon="2.78668">
        <ele>53.591430926395</ele>
        <time>2020-07-19T12:28:33Z</time>
      </trkpt>
      <trkpt lat="48.3369" lon="2.78659">
        <ele>53.691195627696</ele>
        <time>2020-07-19T12:28:59Z</time>
      </trkpt>
      <trkpt lat="48.33685" lon="2.78647">
        <ele>53.750409697038</ele>
        <time>2020-07-19T12:29:09Z</time>
      </trkpt>
      <trkpt lat="48.33679" lon="2.78638">
        <ele>53.792982034914</ele>
        <time>2020-07-19T12:29:17Z</time>
      </trkpt>
      <trkpt lat="48.33675" lon="2.78627">
        <ele>53.825477591574</ele>
        <time>2020-07-19T12:29:23Z</time>
      </trkpt>
      <trkpt lat="48.33669" lon="2.78618">
        <ele>53.861655630292</ele>
        <time>2020-07-19T12:29:31Z</time>
      </trkpt>
      <trkpt lat="48.33664" lon="2.78612">
        <ele>53.881974335529</ele>
        <time>2020-07-19T12:29:37Z</time>
      </trkpt>
      <trkpt lat="48.3366" lon="2.78603">
        <ele>53.898001664527</ele>
        <time>2020-07-19T12:29:43Z</time>
      </trkpt>
      <trkpt lat="48.33654" lon="2.78593">
        <ele>53.91035387664</ele>
        <time>2020-07-19T12:29:49Z</time>
      </trkpt>
      <trkpt lat="48.33647" lon="2.78585">
        <ele>53.920008014025</ele>
        <time>2020-07-19T12:29:55Z</time>
      </trkpt>
      <trkpt lat="48.33641" lon="2.78576">
        <ele>53.928503826116</ele>
        <time>2020-07-19T12:30:00Z</time>
      </trkpt>
      <trkpt lat="48.33634" lon="2.78568">
        <ele>53.936226968686</ele>
        <time>2020-07-19T12:30:05Z</time>
      </trkpt>
      <trkpt lat="48.33631" lon="2.78555">
        <ele>53.939925973093</ele>
        <time>2020-07-19T12:30:12Z</time>
      </trkpt>
      <trkpt lat="48.33627" lon="2.78545">
        <ele>53.939313611012</ele>
        <time>2020-07-19T12:30:19Z</time>
      </trkpt>
      <trkpt lat="48.33624" lon="2.78534">
        <ele>53.933174827387</ele>
        <time>2020-07-19T12:30:27Z</time>
      </trkpt>
      <trkpt lat="48.33618" lon="2.78524">
        <ele>53.923257810216</ele>
        <time>2020-07-19T12:30:34Z</time>
      </trkpt>
      <trkpt lat="48.33613" lon="2.78514">
        <ele>53.908470087894</ele>
        <time>2020-07-19T12:30:44Z</time>
      </trkpt>
      <trkpt lat="48.33611" lon="2.78503">
        <ele>53.882340542618</ele>
        <time>2020-07-19T12:30:53Z</time>
      </trkpt>
      <trkpt lat="48.33606" lon="2.78492">
        <ele>53.851302154153</ele>
        <time>2020-07-19T12:31:02Z</time>
      </trkpt>
      <trkpt lat="48.336" lon="2.78483">
        <ele>53.832637471741</ele>
        <time>2020-07-19T12:31:09Z</time>
      </trkpt>
      <trkpt lat="48.33593" lon="2.78475">
        <ele>53.812015459118</ele>
        <time>2020-07-19T12:31:17Z</time>
      </trkpt>
      <trkpt lat="48.33588" lon="2.78466">
        <ele>53.785516720839</ele>
        <time>2020-07-19T12:31:26Z</time>
      </trkpt>
      <trkpt lat="48.33582" lon="2.78457">
        <ele>53.773508466992</ele>
        <time>2020-07-19T12:31:37Z</time>
      </trkpt>
      <trkpt lat="48.33577" lon="2.78447">
        <ele>53.77433995861</ele>
        <time>2020-07-19T12:31:47Z</time>
      </trkpt>
      <trkpt lat="48.33573" lon="2.78435">
        <ele>53.780919437348</ele>
        <time>2020-07-19T12:31:54Z</time>
      </trkpt>
      <trkpt lat="48.33568" lon="2.78426">
        <ele>53.789729495971</ele>
        <time>2020-07-19T12:32:02Z</time>
      </trkpt>
      <trkpt lat="48.33569" lon="2.78415">
        <ele>53.798457131079</ele>
        <time>2020-07-19T12:32:07Z</time>
      </trkpt>
      <trkpt lat="48.33567" lon="2.78403">
        <ele>53.813810535581</ele>
        <time>2020-07-19T12:32:16Z</time>
      </trkpt>
      <trkpt lat="48.33573" lon="2.78395">
        <ele>53.847228920441</ele>
        <time>2020-07-19T12:32:27Z</time>
      </trkpt>
      <trkpt lat="48.3358" lon="2.78387">
        <ele>53.862767998001</ele>
        <time>2020-07-19T12:32:32Z</time>
      </trkpt>
      <trkpt lat="48.33586" lon="2.78377">
        <ele>53.872129816793</ele>
        <time>2020-07-19T12:32:38Z</time>
      </trkpt>
      <trkpt lat="48.33592" lon="2.78359">
        <ele>53.876262434619</ele>
        <time>2020-07-19T12:32:43Z</time>
      </trkpt>
      <trkpt lat="48.33596" lon="2.78348">
        <ele>53.875445500772</ele>
        <time>2020-07-19T12:32:48Z</time>
      </trkpt>
      <trkpt lat="48.33599" lon="2.78336">
        <ele>53.868665572301</ele>
        <time>2020-07-19T12:32:57Z</time>
      </trkpt>
      <trkpt lat="48.33596" lon="2.78324">
        <ele>53.874980458346</ele>
        <time>2020-07-19T12:33:11Z</time>
      </trkpt>
      <trkpt lat="48.33593" lon="2.78313">
        <ele>53.89925037006</ele>
        <time>2020-07-19T12:33:26Z</time>
      </trkpt>
      <trkpt lat="48.33597" lon="2.78301">
        <ele>53.901198507366</ele>
        <time>2020-07-19T12:33:37Z</time>
      </trkpt>
      <trkpt lat="48.33598" lon="2.78288">
        <ele>53.904133584549</ele>
        <time>2020-07-19T12:33:50Z</time>
      </trkpt>
      <trkpt lat="48.336" lon="2.78276">
        <ele>53.904967199866</ele>
        <time>2020-07-19T12:33:55Z</time>
      </trkpt>
      <trkpt lat="48.33602" lon="2.78264">
        <ele>53.899961551877</ele>
        <time>2020-07-19T12:34:01Z</time>
      </trkpt>
      <trkpt lat="48.33606" lon="2.78254">
        <ele>53.880970160142</ele>
        <time>2020-07-19T12:34:09Z</time>
      </trkpt>
      <trkpt lat="48.33612" lon="2.78245">
        <ele>53.85302193844</ele>
        <time>2020-07-19T12:34:17Z</time>
      </trkpt>
      <trkpt lat="48.33619" lon="2.78239">
        <ele>53.809216583427</ele>
        <time>2020-07-19T12:34:24Z</time>
      </trkpt>
      <trkpt lat="48.33625" lon="2.78231">
        <ele>53.76905464617</ele>
        <time>2020-07-19T12:34:30Z</time>
      </trkpt>
      <trkpt lat="48.33631" lon="2.78224">
        <ele>53.725996261955</ele>
        <time>2020-07-19T12:34:36Z</time>
      </trkpt>
      <trkpt lat="48.33637" lon="2.78216">
        <ele>53.667595087216</ele>
        <time>2020-07-19T12:34:47Z</time>
      </trkpt>
      <trkpt lat="48.33645" lon="2.78212">
        <ele>53.648946363904</ele>
        <time>2020-07-19T12:34:51Z</time>
      </trkpt>
      <trkpt lat="48.33651" lon="2.7821">
        <ele>53.614044698955</ele>
        <time>2020-07-19T12:34:59Z</time>
      </trkpt>
      <trkpt lat="48.3366" lon="2.78205">
        <ele>53.587828393463</ele>
        <time>2020-07-19T12:35:04Z</time>
      </trkpt>
      <trkpt lat="48.33666" lon="2.78199">
        <ele>53.55709422377</ele>
        <time>2020-07-19T12:35:09Z</time>
      </trkpt>
      <trkpt lat="48.33674" lon="2.78192">
        <ele>53.525207071503</ele>
        <time>2020-07-19T12:35:15Z</time>
      </trkpt>
      <trkpt lat="48.3368" lon="2.78186">
        <ele>53.498107852614</ele>
        <time>2020-07-19T12:35:22Z</time>
      </trkpt>
      <trkpt lat="48.33688" lon="2.78181">
        <ele>53.480613849325</ele>
        <time>2020-07-19T12:35:29Z</time>
      </trkpt>
      <trkpt lat="48.33695" lon="2.78178">
        <ele>53.469045564695</ele>
        <time>2020-07-19T12:35:34Z</time>
      </trkpt>
      <trkpt lat="48.33703" lon="2.78181">
        <ele>53.469146515217</ele>
        <time>2020-07-19T12:35:49Z</time>
      </trkpt>
      <trkpt lat="48.33711" lon="2.78176">
        <ele>53.475295192879</ele>
        <time>2020-07-19T12:36:01Z</time>
      </trkpt>
      <trkpt lat="48.3372" lon="2.78173">
        <ele>53.481067895327</ele>
        <time>2020-07-19T12:36:09Z</time>
      </trkpt>
      <trkpt lat="48.33729" lon="2.78171">
        <ele>53.494125750179</ele>
        <time>2020-07-19T12:36:17Z</time>
      </trkpt>
      <trkpt lat="48.33736" lon="2.78165">
        <ele>53.506222199474</ele>
        <time>2020-07-19T12:36:25Z</time>
      </trkpt>
      <trkpt lat="48.33742" lon="2.78159">
        <ele>53.506942143025</ele>
        <time>2020-07-19T12:36:30Z</time>
      </trkpt>
      <trkpt lat="48.33749" lon="2.78149">
        <ele>53.509762332469</ele>
        <time>2020-07-19T12:36:35Z</time>
      </trkpt>
      <trkpt lat="48.33753" lon="2.7814">
        <ele>53.516902057381</ele>
        <time>2020-07-19T12:36:39Z</time>
      </trkpt>
      <trkpt lat="48.3376" lon="2.78132">
        <ele>53.529711934499</ele>
        <time>2020-07-19T12:36:47Z</time>
      </trkpt>
      <trkpt lat="48.33768" lon="2.78125">
        <ele>53.544455187976</ele>
        <time>2020-07-19T12:36:57Z</time>
      </trkpt>
      <trkpt lat="48.33776" lon="2.78121">
        <ele>53.552065537469</ele>
        <time>2020-07-19T12:37:06Z</time>
      </trkpt>
      <trkpt lat="48.33783" lon="2.78119">
        <ele>53.547596851919</ele>
        <time>2020-07-19T12:37:14Z</time>
      </trkpt>
      <trkpt lat="48.33792" lon="2.7811">
        <ele>53.535378708479</ele>
        <time>2020-07-19T12:37:19Z</time>
      </trkpt>
      <trkpt lat="48.33797" lon="2.78102">
        <ele>53.516444134914</ele>
        <time>2020-07-19T12:37:26Z</time>
      </trkpt>
      <trkpt lat="48.33805" lon="2.78095">
        <ele>53.504380024179</ele>
        <time>2020-07-19T12:37:30Z</time>
      </trkpt>
      <trkpt lat="48.33814" lon="2.7809">
        <ele>53.481196224832</ele>
        <time>2020-07-19T12:37:39Z</time>
      </trkpt>
      <trkpt lat="48.33822" lon="2.78078">
        <ele>53.467820675057</ele>
        <time>2020-07-19T12:37:43Z</time>
      </trkpt>
      <trkpt lat="48.33827" lon="2.78069">
        <ele>53.457638367063</ele>
        <time>2020-07-19T12:37:47Z</time>
      </trkpt>
      <trkpt lat="48.33835" lon="2.78064">
        <ele>53.439175281329</ele>
        <time>2020-07-19T12:37:53Z</time>
      </trkpt>
      <trkpt lat="48.33843" lon="2.78063">
        <ele>53.404347399508</ele>
        <time>2020-07-19T12:38:05Z</time>
      </trkpt>
      <trkpt lat="48.33848" lon="2.78054">
        <ele>53.390699503976</ele>
        <time>2020-07-19T12:38:11Z</time>
      </trkpt>
      <trkpt lat="48.33854" lon="2.78047">
        <ele>53.390797595469</ele>
        <time>2020-07-19T12:38:15Z</time>
      </trkpt>
      <trkpt lat="48.33861" lon="2.78038">
        <ele>53.418799292995</ele>
        <time>2020-07-19T12:38:24Z</time>
      </trkpt>
      <trkpt lat="48.33865" lon="2.78027">
        <ele>53.448855237489</ele>
        <time>2020-07-19T12:38:32Z</time>
      </trkpt>
      <trkpt lat="48.33871" lon="2.7802">
        <ele>53.467601595471</ele>
        <time>2020-07-19T12:38:38Z</time>
      </trkpt>
      <trkpt lat="48.33876" lon="2.78013">
        <ele>53.468760141958</ele>
        <time>2020-07-19T12:38:42Z</time>
      </trkpt>
      <trkpt lat="48.33882" lon="2.78006">
        <ele>53.470757346557</ele>
        <time>2020-07-19T12:38:47Z</time>
      </trkpt>
      <trkpt lat="48.33891" lon="2.78006">
        <ele>53.475802460819</ele>
        <time>2020-07-19T12:38:54Z</time>
      </trkpt>
      <trkpt lat="48.339" lon="2.78004">
        <ele>53.40499833887</ele>
        <time>2020-07-19T12:39:43Z</time>
      </trkpt>
      <trkpt lat="48.33906" lon="2.77995">
        <ele>53.364834575822</ele>
        <time>2020-07-19T12:39:49Z</time>
      </trkpt>
      <trkpt lat="48.33913" lon="2.77984">
        <ele>53.335466789337</ele>
        <time>2020-07-19T12:39:53Z</time>
      </trkpt>
      <trkpt lat="48.33918" lon="2.77974">
        <ele>53.26470140274</ele>
        <time>2020-07-19T12:40:01Z</time>
      </trkpt>
      <trkpt lat="48.33924" lon="2.77969">
        <ele>53.184883781911</ele>
        <time>2020-07-19T12:40:10Z</time>
      </trkpt>
      <trkpt lat="48.33932" lon="2.77966">
        <ele>53.140219839384</ele>
        <time>2020-07-19T12:40:16Z</time>
      </trkpt>
      <trkpt lat="48.33941" lon="2.77963">
        <ele>53.096291096328</ele>
        <time>2020-07-19T12:40:24Z</time>
      </trkpt>
      <trkpt lat="48.33947" lon="2.77957">
        <ele>53.041025483792</ele>
        <time>2020-07-19T12:40:34Z</time>
      </trkpt>
      <trkpt lat="48.33956" lon="2.77955">
        <ele>52.972608745599</ele>
        <time>2020-07-19T12:40:44Z</time>
      </trkpt>
      <trkpt lat="48.33965" lon="2.77954">
        <ele>52.897522768588</ele>
        <time>2020-07-19T12:40:52Z</time>
      </trkpt>
      <trkpt lat="48.33974" lon="2.77955">
        <ele>52.791471136522</ele>
        <time>2020-07-19T12:41:32Z</time>
      </trkpt>
      <trkpt lat="48.33987" lon="2.77954">
        <ele>52.763625613826</ele>
        <time>2020-07-19T12:41:37Z</time>
      </trkpt>
      <trkpt lat="48.33994" lon="2.77964">
        <ele>52.715406267686</ele>
        <time>2020-07-19T12:41:46Z</time>
      </trkpt>
      <trkpt lat="48.33997" lon="2.77975">
        <ele>52.689061900774</ele>
        <time>2020-07-19T12:41:53Z</time>
      </trkpt>
      <trkpt lat="48.34003" lon="2.77984">
        <ele>52.671378322559</ele>
        <time>2020-07-19T12:41:59Z</time>
      </trkpt>
      <trkpt lat="48.34011" lon="2.77991">
        <ele>52.655165116729</ele>
        <time>2020-07-19T12:42:05Z</time>
      </trkpt>
      <trkpt lat="48.34018" lon="2.77995">
        <ele>52.641936388655</ele>
        <time>2020-07-19T12:42:11Z</time>
      </trkpt>
      <trkpt lat="48.34025" lon="2.77989">
        <ele>52.62831432478</ele>
        <time>2020-07-19T12:42:16Z</time>
      </trkpt>
      <trkpt lat="48.34033" lon="2.77982">
        <ele>52.606672271883</ele>
        <time>2020-07-19T12:42:23Z</time>
      </trkpt>
      <trkpt lat="48.34039" lon="2.77974">
        <ele>52.595608490839</ele>
        <time>2020-07-19T12:42:28Z</time>
      </trkpt>
      <trkpt lat="48.34046" lon="2.77967">
        <ele>52.587769327173</ele>
        <time>2020-07-19T12:42:34Z</time>
      </trkpt>
      <trkpt lat="48.34055" lon="2.77966">
        <ele>52.581460831386</ele>
        <time>2020-07-19T12:42:41Z</time>
      </trkpt>
      <trkpt lat="48.34064" lon="2.77964">
        <ele>52.570868399037</ele>
        <time>2020-07-19T12:42:51Z</time>
      </trkpt>
      <trkpt lat="48.34071" lon="2.77957">
        <ele>52.570459886069</ele>
        <time>2020-07-19T12:42:57Z</time>
      </trkpt>
      <trkpt lat="48.34079" lon="2.7795">
        <ele>52.569760285729</ele>
        <time>2020-07-19T12:43:01Z</time>
      </trkpt>
      <trkpt lat="48.34086" lon="2.77943">
        <ele>52.570727271157</ele>
        <time>2020-07-19T12:43:05Z</time>
      </trkpt>
      <trkpt lat="48.34093" lon="2.7794">
        <ele>52.56675797894</ele>
        <time>2020-07-19T12:43:12Z</time>
      </trkpt>
      <trkpt lat="48.34101" lon="2.77942">
        <ele>52.558430278447</ele>
        <time>2020-07-19T12:43:18Z</time>
      </trkpt>
      <trkpt lat="48.3411" lon="2.77943">
        <ele>52.548838290505</ele>
        <time>2020-07-19T12:43:26Z</time>
      </trkpt>
      <trkpt lat="48.34118" lon="2.77936">
        <ele>52.533078432195</ele>
        <time>2020-07-19T12:43:33Z</time>
      </trkpt>
      <trkpt lat="48.34126" lon="2.77937">
        <ele>52.519164160624</ele>
        <time>2020-07-19T12:43:38Z</time>
      </trkpt>
      <trkpt lat="48.34135" lon="2.77935">
        <ele>52.502165481809</ele>
        <time>2020-07-19T12:43:44Z</time>
      </trkpt>
      <trkpt lat="48.34142" lon="2.77941">
        <ele>52.486395497432</ele>
        <time>2020-07-19T12:43:50Z</time>
      </trkpt>
      <trkpt lat="48.34147" lon="2.77951">
        <ele>52.46732872328</ele>
        <time>2020-07-19T12:43:56Z</time>
      </trkpt>
      <trkpt lat="48.34147" lon="2.77962">
        <ele>52.447638330257</ele>
        <time>2020-07-19T12:44:02Z</time>
      </trkpt>
      <trkpt lat="48.34147" lon="2.77975">
        <ele>52.427545046916</ele>
        <time>2020-07-19T12:44:09Z</time>
      </trkpt>
      <trkpt lat="48.34147" lon="2.77984">
        <ele>52.412903634187</ele>
        <time>2020-07-19T12:44:14Z</time>
      </trkpt>
      <trkpt lat="48.34147" lon="2.77997">
        <ele>52.397732507757</ele>
        <time>2020-07-19T12:44:21Z</time>
      </trkpt>
      <trkpt lat="48.34149" lon="2.7801">
        <ele>52.385453661829</ele>
        <time>2020-07-19T12:44:28Z</time>
      </trkpt>
      <trkpt lat="48.34152" lon="2.78022">
        <ele>52.338246939674</ele>
        <time>2020-07-19T12:44:45Z</time>
      </trkpt>
      <trkpt lat="48.34156" lon="2.78034">
        <ele>52.285261942097</ele>
        <time>2020-07-19T12:44:56Z</time>
      </trkpt>
      <trkpt lat="48.34152" lon="2.78043">
        <ele>52.203563559056</ele>
        <time>2020-07-19T12:45:28Z</time>
      </trkpt>
      <trkpt lat="48.34147" lon="2.78047">
        <ele>52.176867973258</ele>
        <time>2020-07-19T12:46:08Z</time>
      </trkpt>
      <trkpt lat="48.34142" lon="2.78044">
        <ele>52.166006494726</ele>
        <time>2020-07-19T12:46:15Z</time>
      </trkpt>
      <trkpt lat="48.34146" lon="2.78032">
        <ele>52.640336690611</ele>
        <time>2020-07-19T12:48:34Z</time>
      </trkpt>
      <trkpt lat="48.34153" lon="2.7804">
        <ele>52.676733636953</ele>
        <time>2020-07-19T12:48:48Z</time>
      </trkpt>
      <trkpt lat="48.34154" lon="2.78027">
        <ele>53.993258150966</ele>
        <time>2020-07-19T12:51:15Z</time>
      </trkpt>
      <trkpt lat="48.34149" lon="2.78016">
        <ele>54.172490852173</ele>
        <time>2020-07-19T12:51:22Z</time>
      </trkpt>
      <trkpt lat="48.34149" lon="2.78003">
        <ele>54.312604246807</ele>
        <time>2020-07-19T12:51:28Z</time>
      </trkpt>
      <trkpt lat="48.34141" lon="2.78003">
        <ele>54.513789567671</ele>
        <time>2020-07-19T12:53:35Z</time>
      </trkpt>
      <trkpt lat="48.34136" lon="2.77991">
        <ele>54.969317170977</ele>
        <time>2020-07-19T12:55:42Z</time>
      </trkpt>
      <trkpt lat="48.34136" lon="2.77979">
        <ele>55.052036982538</ele>
        <time>2020-07-19T12:55:48Z</time>
      </trkpt>
      <trkpt lat="48.34137" lon="2.77967">
        <ele>55.145240722289</ele>
        <time>2020-07-19T12:55:56Z</time>
      </trkpt>
      <trkpt lat="48.34133" lon="2.77956">
        <ele>55.226798998973</ele>
        <time>2020-07-19T12:56:03Z</time>
      </trkpt>
      <trkpt lat="48.34129" lon="2.77944">
        <ele>55.295544647314</ele>
        <time>2020-07-19T12:56:10Z</time>
      </trkpt>
      <trkpt lat="48.3412" lon="2.77942">
        <ele>55.348548580064</ele>
        <time>2020-07-19T12:56:17Z</time>
      </trkpt>
      <trkpt lat="48.34112" lon="2.77939">
        <ele>55.393856582285</ele>
        <time>2020-07-19T12:56:25Z</time>
      </trkpt>
      <trkpt lat="48.34105" lon="2.77941">
        <ele>55.412075508352</ele>
        <time>2020-07-19T12:56:30Z</time>
      </trkpt>
      <trkpt lat="48.34097" lon="2.77943">
        <ele>55.425955290372</ele>
        <time>2020-07-19T12:56:37Z</time>
      </trkpt>
      <trkpt lat="48.34088" lon="2.7794">
        <ele>55.434324524685</ele>
        <time>2020-07-19T12:56:43Z</time>
      </trkpt>
      <trkpt lat="48.34091" lon="2.77927">
        <ele>55.451801802731</ele>
        <time>2020-07-19T12:56:51Z</time>
      </trkpt>
      <trkpt lat="48.34097" lon="2.77918">
        <ele>55.493144624839</ele>
        <time>2020-07-19T12:57:02Z</time>
      </trkpt>
      <trkpt lat="48.34092" lon="2.77917">
        <ele>55.571224671493</ele>
        <time>2020-07-19T12:57:21Z</time>
      </trkpt>
      <trkpt lat="48.34098" lon="2.77904">
        <ele>55.656774745013</ele>
        <time>2020-07-19T12:57:31Z</time>
      </trkpt>
      <trkpt lat="48.34104" lon="2.77907">
        <ele>55.737195574153</ele>
        <time>2020-07-19T12:57:54Z</time>
      </trkpt>
      <trkpt lat="48.34122" lon="2.77899">
        <ele>55.798315116369</ele>
        <time>2020-07-19T13:01:02Z</time>
      </trkpt>
      <trkpt lat="48.34105" lon="2.77913">
        <ele>55.792899783357</ele>
        <time>2020-07-19T13:01:06Z</time>
      </trkpt>
      <trkpt lat="48.34109" lon="2.77915">
        <ele>55.80771772295</ele>
        <time>2020-07-19T13:01:10Z</time>
      </trkpt>
      <trkpt lat="48.34125" lon="2.77907">
        <ele>55.984115256045</ele>
        <time>2020-07-19T13:01:24Z</time>
      </trkpt>
      <trkpt lat="48.34128" lon="2.77895">
        <ele>56.036603707787</ele>
        <time>2020-07-19T13:01:28Z</time>
      </trkpt>
      <trkpt lat="48.34134" lon="2.77887">
        <ele>56.24864845902</ele>
        <time>2020-07-19T13:01:37Z</time>
      </trkpt>
      <trkpt lat="48.34142" lon="2.77882">
        <ele>56.673235002685</ele>
        <time>2020-07-19T13:01:43Z</time>
      </trkpt>
      <trkpt lat="48.34147" lon="2.77873">
        <ele>57.117567747601</ele>
        <time>2020-07-19T13:01:48Z</time>
      </trkpt>
      <trkpt lat="48.34153" lon="2.77864">
        <ele>57.55050429502</ele>
        <time>2020-07-19T13:01:53Z</time>
      </trkpt>
      <trkpt lat="48.3416" lon="2.77859">
        <ele>58.170588815157</ele>
        <time>2020-07-19T13:02:00Z</time>
      </trkpt>
      <trkpt lat="48.34168" lon="2.77855">
        <ele>58.900648475631</ele>
        <time>2020-07-19T13:02:08Z</time>
      </trkpt>
      <trkpt lat="48.34174" lon="2.77848">
        <ele>59.338343871486</ele>
        <time>2020-07-19T13:02:13Z</time>
      </trkpt>
      <trkpt lat="48.34182" lon="2.77843">
        <ele>59.83395005251</ele>
        <time>2020-07-19T13:02:20Z</time>
      </trkpt>
      <trkpt lat="48.34189" lon="2.77836">
        <ele>60.240751587117</ele>
        <time>2020-07-19T13:02:25Z</time>
      </trkpt>
      <trkpt lat="48.34196" lon="2.77827">
        <ele>60.891027546099</ele>
        <time>2020-07-19T13:02:34Z</time>
      </trkpt>
      <trkpt lat="48.34202" lon="2.77819">
        <ele>61.825432317404</ele>
        <time>2020-07-19T13:02:50Z</time>
      </trkpt>
      <trkpt lat="48.34201" lon="2.77807">
        <ele>62.1610020339</ele>
        <time>2020-07-19T13:02:57Z</time>
      </trkpt>
      <trkpt lat="48.34195" lon="2.77796">
        <ele>62.385937356838</ele>
        <time>2020-07-19T13:03:02Z</time>
      </trkpt>
      <trkpt lat="48.3419" lon="2.77786">
        <ele>62.647402409157</ele>
        <time>2020-07-19T13:03:08Z</time>
      </trkpt>
      <trkpt lat="48.34186" lon="2.77774">
        <ele>62.933467603731</ele>
        <time>2020-07-19T13:03:15Z</time>
      </trkpt>
      <trkpt lat="48.34185" lon="2.77761">
        <ele>63.251419921714</ele>
        <time>2020-07-19T13:03:24Z</time>
      </trkpt>
      <trkpt lat="48.34184" lon="2.77748">
        <ele>63.430937642</ele>
        <time>2020-07-19T13:03:30Z</time>
      </trkpt>
      <trkpt lat="48.34184" lon="2.77735">
        <ele>63.61691193996</ele>
        <time>2020-07-19T13:03:38Z</time>
      </trkpt>
      <trkpt lat="48.34179" lon="2.77725">
        <ele>63.744342037162</ele>
        <time>2020-07-19T13:03:45Z</time>
      </trkpt>
      <trkpt lat="48.34174" lon="2.77714">
        <ele>63.836948940942</ele>
        <time>2020-07-19T13:03:52Z</time>
      </trkpt>
      <trkpt lat="48.3417" lon="2.77703">
        <ele>63.883557186079</ele>
        <time>2020-07-19T13:03:57Z</time>
      </trkpt>
      <trkpt lat="48.34169" lon="2.77691">
        <ele>63.909564919495</ele>
        <time>2020-07-19T13:04:01Z</time>
      </trkpt>
      <trkpt lat="48.34171" lon="2.77678">
        <ele>63.957703987383</ele>
        <time>2020-07-19T13:04:10Z</time>
      </trkpt>
      <trkpt lat="48.34168" lon="2.77667">
        <ele>64.028289302313</ele>
        <time>2020-07-19T13:04:21Z</time>
      </trkpt>
      <trkpt lat="48.34165" lon="2.77655">
        <ele>64.074249446503</ele>
        <time>2020-07-19T13:04:29Z</time>
      </trkpt>
      <trkpt lat="48.3416" lon="2.77645">
        <ele>64.1060117204</ele>
        <time>2020-07-19T13:04:35Z</time>
      </trkpt>
      <trkpt lat="48.34155" lon="2.77635">
        <ele>64.139573088523</ele>
        <time>2020-07-19T13:04:41Z</time>
      </trkpt>
      <trkpt lat="48.34148" lon="2.77629">
        <ele>64.157770526163</ele>
        <time>2020-07-19T13:04:49Z</time>
      </trkpt>
      <trkpt lat="48.34141" lon="2.7762">
        <ele>64.135602066879</ele>
        <time>2020-07-19T13:04:56Z</time>
      </trkpt>
      <trkpt lat="48.3414" lon="2.77608">
        <ele>64.047914479714</ele>
        <time>2020-07-19T13:05:15Z</time>
      </trkpt>
      <trkpt lat="48.34143" lon="2.77597">
        <ele>63.974568872289</ele>
        <time>2020-07-19T13:05:22Z</time>
      </trkpt>
      <trkpt lat="48.34148" lon="2.77586">
        <ele>63.900984488764</ele>
        <time>2020-07-19T13:05:28Z</time>
      </trkpt>
      <trkpt lat="48.34155" lon="2.7758">
        <ele>63.839670442094</ele>
        <time>2020-07-19T13:05:36Z</time>
      </trkpt>
      <trkpt lat="48.34163" lon="2.77577">
        <ele>63.817972371446</ele>
        <time>2020-07-19T13:05:43Z</time>
      </trkpt>
      <trkpt lat="48.34167" lon="2.77566">
        <ele>63.916478583757</ele>
        <time>2020-07-19T13:05:56Z</time>
      </trkpt>
      <trkpt lat="48.34164" lon="2.77554">
        <ele>63.997651015334</ele>
        <time>2020-07-19T13:06:01Z</time>
      </trkpt>
      <trkpt lat="48.34162" lon="2.77539">
        <ele>64.079311152663</ele>
        <time>2020-07-19T13:06:06Z</time>
      </trkpt>
      <trkpt lat="48.34157" lon="2.77528">
        <ele>64.184645670104</ele>
        <time>2020-07-19T13:06:14Z</time>
      </trkpt>
      <trkpt lat="48.34156" lon="2.77515">
        <ele>64.248391768358</ele>
        <time>2020-07-19T13:06:20Z</time>
      </trkpt>
      <trkpt lat="48.3416" lon="2.77504">
        <ele>64.308509327707</ele>
        <time>2020-07-19T13:06:28Z</time>
      </trkpt>
      <trkpt lat="48.3416" lon="2.77493">
        <ele>64.330157486848</ele>
        <time>2020-07-19T13:06:33Z</time>
      </trkpt>
      <trkpt lat="48.34153" lon="2.77484">
        <ele>64.216819328261</ele>
        <time>2020-07-19T13:07:02Z</time>
      </trkpt>
      <trkpt lat="48.34145" lon="2.77484">
        <ele>64.075895430312</ele>
        <time>2020-07-19T13:07:10Z</time>
      </trkpt>
      <trkpt lat="48.34138" lon="2.77487">
        <ele>63.968845360051</ele>
        <time>2020-07-19T13:07:16Z</time>
      </trkpt>
      <trkpt lat="48.34129" lon="2.77489">
        <ele>63.872459130349</ele>
        <time>2020-07-19T13:07:21Z</time>
      </trkpt>
      <trkpt lat="48.34121" lon="2.77493">
        <ele>63.609317948039</ele>
        <time>2020-07-19T13:07:42Z</time>
      </trkpt>
      <trkpt lat="48.3413" lon="2.77492">
        <ele>63.081467182249</ele>
        <time>2020-07-19T13:08:01Z</time>
      </trkpt>
      <trkpt lat="48.34138" lon="2.77489">
        <ele>62.96347117286</ele>
        <time>2020-07-19T13:08:06Z</time>
      </trkpt>
      <trkpt lat="48.34147" lon="2.77488">
        <ele>62.782336883686</ele>
        <time>2020-07-19T13:08:14Z</time>
      </trkpt>
      <trkpt lat="48.34149" lon="2.77476">
        <ele>62.605019762348</ele>
        <time>2020-07-19T13:08:26Z</time>
      </trkpt>
      <trkpt lat="48.3415" lon="2.77457">
        <ele>62.051191637281</ele>
        <time>2020-07-19T13:08:35Z</time>
      </trkpt>
      <trkpt lat="48.3415" lon="2.77445">
        <ele>62.038353607728</ele>
        <time>2020-07-19T13:08:41Z</time>
      </trkpt>
      <trkpt lat="48.34151" lon="2.77432">
        <ele>62.008531653905</ele>
        <time>2020-07-19T13:08:48Z</time>
      </trkpt>
      <trkpt lat="48.34154" lon="2.7742">
        <ele>61.978446741766</ele>
        <time>2020-07-19T13:08:54Z</time>
      </trkpt>
      <trkpt lat="48.34158" lon="2.77409">
        <ele>61.976629725679</ele>
        <time>2020-07-19T13:09:00Z</time>
      </trkpt>
      <trkpt lat="48.34159" lon="2.77397">
        <ele>61.944843013545</ele>
        <time>2020-07-19T13:09:26Z</time>
      </trkpt>
      <trkpt lat="48.3416" lon="2.77385">
        <ele>61.940445343078</ele>
        <time>2020-07-19T13:09:33Z</time>
      </trkpt>
      <trkpt lat="48.34158" lon="2.77372">
        <ele>61.867474293777</ele>
        <time>2020-07-19T13:10:12Z</time>
      </trkpt>
      <trkpt lat="48.34157" lon="2.77359">
        <ele>61.775718969116</ele>
        <time>2020-07-19T13:10:20Z</time>
      </trkpt>
      <trkpt lat="48.3416" lon="2.77347">
        <ele>61.741158875218</ele>
        <time>2020-07-19T13:10:28Z</time>
      </trkpt>
      <trkpt lat="48.34168" lon="2.77341">
        <ele>61.709354571404</ele>
        <time>2020-07-19T13:10:35Z</time>
      </trkpt>
      <trkpt lat="48.34176" lon="2.77336">
        <ele>61.67515448274</ele>
        <time>2020-07-19T13:10:42Z</time>
      </trkpt>
      <trkpt lat="48.34184" lon="2.77333">
        <ele>61.6572858113</ele>
        <time>2020-07-19T13:10:47Z</time>
      </trkpt>
      <trkpt lat="48.34191" lon="2.77327">
        <ele>61.620006863348</ele>
        <time>2020-07-19T13:10:56Z</time>
      </trkpt>
      <trkpt lat="48.342" lon="2.77328">
        <ele>61.615279419597</ele>
        <time>2020-07-19T13:11:10Z</time>
      </trkpt>
      <trkpt lat="48.34206" lon="2.77322">
        <ele>61.610633161174</ele>
        <time>2020-07-19T13:11:17Z</time>
      </trkpt>
      <trkpt lat="48.34212" lon="2.77315">
        <ele>61.625535792827</ele>
        <time>2020-07-19T13:11:23Z</time>
      </trkpt>
      <trkpt lat="48.3422" lon="2.77314">
        <ele>61.679225840887</ele>
        <time>2020-07-19T13:11:34Z</time>
      </trkpt>
      <trkpt lat="48.34226" lon="2.77306">
        <ele>61.714099904372</ele>
        <time>2020-07-19T13:11:39Z</time>
      </trkpt>
      <trkpt lat="48.34234" lon="2.77299">
        <ele>61.781278017324</ele>
        <time>2020-07-19T13:11:47Z</time>
      </trkpt>
      <trkpt lat="48.34242" lon="2.77298">
        <ele>61.836550672679</ele>
        <time>2020-07-19T13:11:56Z</time>
      </trkpt>
      <trkpt lat="48.34249" lon="2.773">
        <ele>61.879243117367</ele>
        <time>2020-07-19T13:12:04Z</time>
      </trkpt>
      <trkpt lat="48.34257" lon="2.77298">
        <ele>61.917362097761</ele>
        <time>2020-07-19T13:12:12Z</time>
      </trkpt>
      <trkpt lat="48.34265" lon="2.77295">
        <ele>61.936407146425</ele>
        <time>2020-07-19T13:12:19Z</time>
      </trkpt>
      <trkpt lat="48.34274" lon="2.77292">
        <ele>61.942532879537</ele>
        <time>2020-07-19T13:12:25Z</time>
      </trkpt>
      <trkpt lat="48.34281" lon="2.77286">
        <ele>61.94003236135</ele>
        <time>2020-07-19T13:12:32Z</time>
      </trkpt>
      <trkpt lat="48.34289" lon="2.77282">
        <ele>61.928204352023</ele>
        <time>2020-07-19T13:12:42Z</time>
      </trkpt>
      <trkpt lat="48.34297" lon="2.77285">
        <ele>61.933408383529</ele>
        <time>2020-07-19T13:12:51Z</time>
      </trkpt>
      <trkpt lat="48.34302" lon="2.77296">
        <ele>61.935028354767</ele>
        <time>2020-07-19T13:12:59Z</time>
      </trkpt>
      <trkpt lat="48.34308" lon="2.77305">
        <ele>61.93759251485</ele>
        <time>2020-07-19T13:13:05Z</time>
      </trkpt>
      <trkpt lat="48.34312" lon="2.77314">
        <ele>61.936836369247</ele>
        <time>2020-07-19T13:13:13Z</time>
      </trkpt>
      <trkpt lat="48.34319" lon="2.77319">
        <ele>61.926323425329</ele>
        <time>2020-07-19T13:13:21Z</time>
      </trkpt>
      <trkpt lat="48.34327" lon="2.77321">
        <ele>61.945192872475</ele>
        <time>2020-07-19T13:13:30Z</time>
      </trkpt>
      <trkpt lat="48.34335" lon="2.77321">
        <ele>62.002022668073</ele>
        <time>2020-07-19T13:13:37Z</time>
      </trkpt>
      <trkpt lat="48.34344" lon="2.77316">
        <ele>62.293769906608</ele>
        <time>2020-07-19T13:14:17Z</time>
      </trkpt>
      <trkpt lat="48.34352" lon="2.77313">
        <ele>62.483989008506</ele>
        <time>2020-07-19T13:14:24Z</time>
      </trkpt>
      <trkpt lat="48.34359" lon="2.77306">
        <ele>62.629460235713</ele>
        <time>2020-07-19T13:14:30Z</time>
      </trkpt>
      <trkpt lat="48.34364" lon="2.77298">
        <ele>62.80851497675</ele>
        <time>2020-07-19T13:14:38Z</time>
      </trkpt>
      <trkpt lat="48.34372" lon="2.77292">
        <ele>62.930172018538</ele>
        <time>2020-07-19T13:14:44Z</time>
      </trkpt>
      <trkpt lat="48.34377" lon="2.77283">
        <ele>63.060723694935</ele>
        <time>2020-07-19T13:14:51Z</time>
      </trkpt>
      <trkpt lat="48.34383" lon="2.77273">
        <ele>63.200184723958</ele>
        <time>2020-07-19T13:14:59Z</time>
      </trkpt>
      <trkpt lat="48.3439" lon="2.77266">
        <ele>63.331919937341</ele>
        <time>2020-07-19T13:15:07Z</time>
      </trkpt>
      <trkpt lat="48.34398" lon="2.77261">
        <ele>63.455898509737</ele>
        <time>2020-07-19T13:15:15Z</time>
      </trkpt>
      <trkpt lat="48.34406" lon="2.7726">
        <ele>63.55634578748</ele>
        <time>2020-07-19T13:15:22Z</time>
      </trkpt>
      <trkpt lat="48.34413" lon="2.77256">
        <ele>63.629229624265</ele>
        <time>2020-07-19T13:15:27Z</time>
      </trkpt>
      <trkpt lat="48.3442" lon="2.7725">
        <ele>63.718434983177</ele>
        <time>2020-07-19T13:15:33Z</time>
      </trkpt>
      <trkpt lat="48.34426" lon="2.77243">
        <ele>63.793882861693</ele>
        <time>2020-07-19T13:15:38Z</time>
      </trkpt>
      <trkpt lat="48.34433" lon="2.77235">
        <ele>63.908459320979</ele>
        <time>2020-07-19T13:15:45Z</time>
      </trkpt>
      <trkpt lat="48.34439" lon="2.77226">
        <ele>64.028015480901</ele>
        <time>2020-07-19T13:15:52Z</time>
      </trkpt>
      <trkpt lat="48.34444" lon="2.77215">
        <ele>64.265134006219</ele>
        <time>2020-07-19T13:16:13Z</time>
      </trkpt>
      <trkpt lat="48.34451" lon="2.7721">
        <ele>64.359927862673</ele>
        <time>2020-07-19T13:16:22Z</time>
      </trkpt>
      <trkpt lat="48.34457" lon="2.77202">
        <ele>64.424418170929</ele>
        <time>2020-07-19T13:16:28Z</time>
      </trkpt>
      <trkpt lat="48.34465" lon="2.77196">
        <ele>64.47388993993</ele>
        <time>2020-07-19T13:16:33Z</time>
      </trkpt>
      <trkpt lat="48.34473" lon="2.77192">
        <ele>64.529729653195</ele>
        <time>2020-07-19T13:16:39Z</time>
      </trkpt>
      <trkpt lat="48.3448" lon="2.77187">
        <ele>64.585222367347</ele>
        <time>2020-07-19T13:16:45Z</time>
      </trkpt>
      <trkpt lat="48.34489" lon="2.77184">
        <ele>64.668706290443</ele>
        <time>2020-07-19T13:16:54Z</time>
      </trkpt>
      <trkpt lat="48.34496" lon="2.77176">
        <ele>64.727261875326</ele>
        <time>2020-07-19T13:17:00Z</time>
      </trkpt>
      <trkpt lat="48.34504" lon="2.77172">
        <ele>64.800525827263</ele>
        <time>2020-07-19T13:17:07Z</time>
      </trkpt>
      <trkpt lat="48.34511" lon="2.77163">
        <ele>64.867072044128</ele>
        <time>2020-07-19T13:17:13Z</time>
      </trkpt>
      <trkpt lat="48.34518" lon="2.77156">
        <ele>64.955102183043</ele>
        <time>2020-07-19T13:17:21Z</time>
      </trkpt>
      <trkpt lat="48.34525" lon="2.77149">
        <ele>65.04900116965</ele>
        <time>2020-07-19T13:17:30Z</time>
      </trkpt>
      <trkpt lat="48.34532" lon="2.77144">
        <ele>65.135988827158</ele>
        <time>2020-07-19T13:17:38Z</time>
      </trkpt>
      <trkpt lat="48.34537" lon="2.77137">
        <ele>65.181802773835</ele>
        <time>2020-07-19T13:17:42Z</time>
      </trkpt>
      <trkpt lat="48.34543" lon="2.77128">
        <ele>65.25275878591</ele>
        <time>2020-07-19T13:17:48Z</time>
      </trkpt>
      <trkpt lat="48.3455" lon="2.77123">
        <ele>65.357183437427</ele>
        <time>2020-07-19T13:17:58Z</time>
      </trkpt>
      <trkpt lat="48.34558" lon="2.77118">
        <ele>65.50051718259</ele>
        <time>2020-07-19T13:18:12Z</time>
      </trkpt>
      <trkpt lat="48.34559" lon="2.77104">
        <ele>65.580724424078</ele>
        <time>2020-07-19T13:18:18Z</time>
      </trkpt>
      <trkpt lat="48.34558" lon="2.77092">
        <ele>65.766695340571</ele>
        <time>2020-07-19T13:18:35Z</time>
      </trkpt>
      <trkpt lat="48.34555" lon="2.7708">
        <ele>66.009532057101</ele>
        <time>2020-07-19T13:19:08Z</time>
      </trkpt>
      <trkpt lat="48.34549" lon="2.77072">
        <ele>66.144067943715</ele>
        <time>2020-07-19T13:19:17Z</time>
      </trkpt>
      <trkpt lat="48.34543" lon="2.77064">
        <ele>66.257246398223</ele>
        <time>2020-07-19T13:19:25Z</time>
      </trkpt>
      <trkpt lat="48.34537" lon="2.77057">
        <ele>66.328668052835</ele>
        <time>2020-07-19T13:19:30Z</time>
      </trkpt>
      <trkpt lat="48.3453" lon="2.77048">
        <ele>66.42662978106</ele>
        <time>2020-07-19T13:19:37Z</time>
      </trkpt>
      <trkpt lat="48.34524" lon="2.77039">
        <ele>66.506611985312</ele>
        <time>2020-07-19T13:19:43Z</time>
      </trkpt>
      <trkpt lat="48.34519" lon="2.77031">
        <ele>66.5707301501</ele>
        <time>2020-07-19T13:19:48Z</time>
      </trkpt>
      <trkpt lat="48.34512" lon="2.77023">
        <ele>66.670092997716</ele>
        <time>2020-07-19T13:19:56Z</time>
      </trkpt>
      <trkpt lat="48.34506" lon="2.77014">
        <ele>66.803692480907</ele>
        <time>2020-07-19T13:20:07Z</time>
      </trkpt>
      <trkpt lat="48.34501" lon="2.77003">
        <ele>66.869489135057</ele>
        <time>2020-07-19T13:20:13Z</time>
      </trkpt>
      <trkpt lat="48.34495" lon="2.76994">
        <ele>66.936703990401</ele>
        <time>2020-07-19T13:20:19Z</time>
      </trkpt>
      <trkpt lat="48.3449" lon="2.76984">
        <ele>67.013562101777</ele>
        <time>2020-07-19T13:20:26Z</time>
      </trkpt>
      <trkpt lat="48.34484" lon="2.76975">
        <ele>67.067853777624</ele>
        <time>2020-07-19T13:20:31Z</time>
      </trkpt>
      <trkpt lat="48.34478" lon="2.76966">
        <ele>67.131224045713</ele>
        <time>2020-07-19T13:20:37Z</time>
      </trkpt>
      <trkpt lat="48.34472" lon="2.76958">
        <ele>67.204026083134</ele>
        <time>2020-07-19T13:20:44Z</time>
      </trkpt>
      <trkpt lat="48.34466" lon="2.76948">
        <ele>67.271891337176</ele>
        <time>2020-07-19T13:20:51Z</time>
      </trkpt>
      <trkpt lat="48.3446" lon="2.76938">
        <ele>67.341135137436</ele>
        <time>2020-07-19T13:20:58Z</time>
      </trkpt>
      <trkpt lat="48.34456" lon="2.76929">
        <ele>67.394358697038</ele>
        <time>2020-07-19T13:21:04Z</time>
      </trkpt>
      <trkpt lat="48.3445" lon="2.7692">
        <ele>67.446005013366</ele>
        <time>2020-07-19T13:21:10Z</time>
      </trkpt>
      <trkpt lat="48.34444" lon="2.76911">
        <ele>67.502734509702</ele>
        <time>2020-07-19T13:21:17Z</time>
      </trkpt>
      <trkpt lat="48.34437" lon="2.76902">
        <ele>67.55733815814</ele>
        <time>2020-07-19T13:21:24Z</time>
      </trkpt>
      <trkpt lat="48.3443" lon="2.76894">
        <ele>67.593653922417</ele>
        <time>2020-07-19T13:21:30Z</time>
      </trkpt>
      <trkpt lat="48.34425" lon="2.76885">
        <ele>67.618021159863</ele>
        <time>2020-07-19T13:21:35Z</time>
      </trkpt>
      <trkpt lat="48.3442" lon="2.76876">
        <ele>67.646584244561</ele>
        <time>2020-07-19T13:21:41Z</time>
      </trkpt>
      <trkpt lat="48.34415" lon="2.76868">
        <ele>67.673951328444</ele>
        <time>2020-07-19T13:21:47Z</time>
      </trkpt>
      <trkpt lat="48.34408" lon="2.7686">
        <ele>67.693945279632</ele>
        <time>2020-07-19T13:21:53Z</time>
      </trkpt>
      <trkpt lat="48.34402" lon="2.76853">
        <ele>67.715503564031</ele>
        <time>2020-07-19T13:21:59Z</time>
      </trkpt>
      <trkpt lat="48.34395" lon="2.76844">
        <ele>67.74397552441</ele>
        <time>2020-07-19T13:22:06Z</time>
      </trkpt>
      <trkpt lat="48.34389" lon="2.76836">
        <ele>67.767534743958</ele>
        <time>2020-07-19T13:22:11Z</time>
      </trkpt>
      <trkpt lat="48.34382" lon="2.76829">
        <ele>67.796334831653</ele>
        <time>2020-07-19T13:22:17Z</time>
      </trkpt>
      <trkpt lat="48.34375" lon="2.76822">
        <ele>67.821943951232</ele>
        <time>2020-07-19T13:22:23Z</time>
      </trkpt>
      <trkpt lat="48.34369" lon="2.76813">
        <ele>67.844110869731</ele>
        <time>2020-07-19T13:22:29Z</time>
      </trkpt>
      <trkpt lat="48.34363" lon="2.76804">
        <ele>67.874410456936</ele>
        <time>2020-07-19T13:22:37Z</time>
      </trkpt>
      <trkpt lat="48.34357" lon="2.76797">
        <ele>67.899121513618</ele>
        <time>2020-07-19T13:22:43Z</time>
      </trkpt>
      <trkpt lat="48.34351" lon="2.7679">
        <ele>67.916819679428</ele>
        <time>2020-07-19T13:22:48Z</time>
      </trkpt>
      <trkpt lat="48.34345" lon="2.76783">
        <ele>67.934535971053</ele>
        <time>2020-07-19T13:22:53Z</time>
      </trkpt>
      <trkpt lat="48.34339" lon="2.76775">
        <ele>67.956363114526</ele>
        <time>2020-07-19T13:22:59Z</time>
      </trkpt>
      <trkpt lat="48.34333" lon="2.76768">
        <ele>67.976739824376</ele>
        <time>2020-07-19T13:23:04Z</time>
      </trkpt>
      <trkpt lat="48.34326" lon="2.76759">
        <ele>67.995275467113</ele>
        <time>2020-07-19T13:23:09Z</time>
      </trkpt>
      <trkpt lat="48.3432" lon="2.76752">
        <ele>68.02038593697</ele>
        <time>2020-07-19T13:23:15Z</time>
      </trkpt>
      <trkpt lat="48.34313" lon="2.76745">
        <ele>68.048605751265</ele>
        <time>2020-07-19T13:23:22Z</time>
      </trkpt>
      <trkpt lat="48.34308" lon="2.76735">
        <ele>68.085390487772</ele>
        <time>2020-07-19T13:23:30Z</time>
      </trkpt>
      <trkpt lat="48.34301" lon="2.76727">
        <ele>68.118584033488</ele>
        <time>2020-07-19T13:23:37Z</time>
      </trkpt>
      <trkpt lat="48.34294" lon="2.7672">
        <ele>68.147134069631</ele>
        <time>2020-07-19T13:23:43Z</time>
      </trkpt>
      <trkpt lat="48.34288" lon="2.76713">
        <ele>68.169437889831</ele>
        <time>2020-07-19T13:23:49Z</time>
      </trkpt>
      <trkpt lat="48.34281" lon="2.76704">
        <ele>68.193440482321</ele>
        <time>2020-07-19T13:23:56Z</time>
      </trkpt>
      <trkpt lat="48.34274" lon="2.76695">
        <ele>68.214399147193</ele>
        <time>2020-07-19T13:24:03Z</time>
      </trkpt>
      <trkpt lat="48.34269" lon="2.76685">
        <ele>68.232232324446</ele>
        <time>2020-07-19T13:24:09Z</time>
      </trkpt>
      <trkpt lat="48.34263" lon="2.76676">
        <ele>68.2478049974</ele>
        <time>2020-07-19T13:24:15Z</time>
      </trkpt>
      <trkpt lat="48.34264" lon="2.76662">
        <ele>68.32848903785</ele>
        <time>2020-07-19T13:24:41Z</time>
      </trkpt>
      <trkpt lat="48.34258" lon="2.76654">
        <ele>70.754815492939</ele>
        <time>2020-07-19T13:26:40Z</time>
      </trkpt>
      <trkpt lat="48.34254" lon="2.76645">
        <ele>71.344195538125</ele>
        <time>2020-07-19T13:26:46Z</time>
      </trkpt>
      <trkpt lat="48.34248" lon="2.76636">
        <ele>71.867688101005</ele>
        <time>2020-07-19T13:26:52Z</time>
      </trkpt>
      <trkpt lat="48.3424" lon="2.76629">
        <ele>72.65367126939</ele>
        <time>2020-07-19T13:27:09Z</time>
      </trkpt>
      <trkpt lat="48.34235" lon="2.7662">
        <ele>73.277197140705</ele>
        <time>2020-07-19T13:27:24Z</time>
      </trkpt>
      <trkpt lat="48.34229" lon="2.76611">
        <ele>73.530607428117</ele>
        <time>2020-07-19T13:27:29Z</time>
      </trkpt>
      <trkpt lat="48.34223" lon="2.76604">
        <ele>73.800660530288</ele>
        <time>2020-07-19T13:27:35Z</time>
      </trkpt>
      <trkpt lat="48.34216" lon="2.76596">
        <ele>74.001790684852</ele>
        <time>2020-07-19T13:27:40Z</time>
      </trkpt>
      <trkpt lat="48.34209" lon="2.76589">
        <ele>74.222046059698</ele>
        <time>2020-07-19T13:27:46Z</time>
      </trkpt>
      <trkpt lat="48.34202" lon="2.76582">
        <ele>74.418131906228</ele>
        <time>2020-07-19T13:27:52Z</time>
      </trkpt>
      <trkpt lat="48.34195" lon="2.76573">
        <ele>74.619831355645</ele>
        <time>2020-07-19T13:27:59Z</time>
      </trkpt>
      <trkpt lat="48.34188" lon="2.76565">
        <ele>74.773858433631</ele>
        <time>2020-07-19T13:28:05Z</time>
      </trkpt>
      <trkpt lat="48.34181" lon="2.76557">
        <ele>74.913027501283</ele>
        <time>2020-07-19T13:28:11Z</time>
      </trkpt>
      <trkpt lat="48.34174" lon="2.7655">
        <ele>75.036909122244</ele>
        <time>2020-07-19T13:28:17Z</time>
      </trkpt>
      <trkpt lat="48.34168" lon="2.76542">
        <ele>75.131056110165</ele>
        <time>2020-07-19T13:28:22Z</time>
      </trkpt>
      <trkpt lat="48.34161" lon="2.76535">
        <ele>75.219580049786</ele>
        <time>2020-07-19T13:28:27Z</time>
      </trkpt>
      <trkpt lat="48.34155" lon="2.76527">
        <ele>75.317157330317</ele>
        <time>2020-07-19T13:28:33Z</time>
      </trkpt>
      <trkpt lat="48.34147" lon="2.7652">
        <ele>75.403249939549</ele>
        <time>2020-07-19T13:28:39Z</time>
      </trkpt>
      <trkpt lat="48.3414" lon="2.76514">
        <ele>75.478073166181</ele>
        <time>2020-07-19T13:28:45Z</time>
      </trkpt>
      <trkpt lat="48.34135" lon="2.76504">
        <ele>75.570100082962</ele>
        <time>2020-07-19T13:28:53Z</time>
      </trkpt>
      <trkpt lat="48.34131" lon="2.76493">
        <ele>75.640850722483</ele>
        <time>2020-07-19T13:29:01Z</time>
      </trkpt>
      <trkpt lat="48.34125" lon="2.76486">
        <ele>75.679518515137</ele>
        <time>2020-07-19T13:29:08Z</time>
      </trkpt>
      <trkpt lat="48.34119" lon="2.76478">
        <ele>75.711370149512</ele>
        <time>2020-07-19T13:29:14Z</time>
      </trkpt>
      <trkpt lat="48.34113" lon="2.76469">
        <ele>75.749074227178</ele>
        <time>2020-07-19T13:29:21Z</time>
      </trkpt>
      <trkpt lat="48.34107" lon="2.7646">
        <ele>75.786604573205</ele>
        <time>2020-07-19T13:29:28Z</time>
      </trkpt>
      <trkpt lat="48.341" lon="2.76452">
        <ele>75.82127912104</ele>
        <time>2020-07-19T13:29:35Z</time>
      </trkpt>
      <trkpt lat="48.34107" lon="2.76446">
        <ele>75.881326849431</ele>
        <time>2020-07-19T13:29:56Z</time>
      </trkpt>
      <trkpt lat="48.34112" lon="2.76437">
        <ele>75.896387635563</ele>
        <time>2020-07-19T13:30:01Z</time>
      </trkpt>
      <trkpt lat="48.34121" lon="2.76438">
        <ele>75.914853597649</ele>
        <time>2020-07-19T13:30:07Z</time>
      </trkpt>
      <trkpt lat="48.34129" lon="2.76434">
        <ele>75.970080412704</ele>
        <time>2020-07-19T13:30:21Z</time>
      </trkpt>
      <trkpt lat="48.34134" lon="2.76424">
        <ele>75.995639388768</ele>
        <time>2020-07-19T13:30:26Z</time>
      </trkpt>
      <trkpt lat="48.34139" lon="2.76414">
        <ele>76.02618146243</ele>
        <time>2020-07-19T13:30:32Z</time>
      </trkpt>
      <trkpt lat="48.34146" lon="2.76405">
        <ele>76.060953271859</ele>
        <time>2020-07-19T13:30:38Z</time>
      </trkpt>
      <trkpt lat="48.3415" lon="2.76395">
        <ele>76.098105892052</ele>
        <time>2020-07-19T13:30:44Z</time>
      </trkpt>
      <trkpt lat="48.34157" lon="2.76387">
        <ele>76.160873766752</ele>
        <time>2020-07-19T13:30:54Z</time>
      </trkpt>
      <trkpt lat="48.34164" lon="2.7638">
        <ele>76.214382251907</ele>
        <time>2020-07-19T13:31:02Z</time>
      </trkpt>
      <trkpt lat="48.34169" lon="2.7637">
        <ele>76.269978116923</ele>
        <time>2020-07-19T13:31:10Z</time>
      </trkpt>
      <trkpt lat="48.34175" lon="2.76359">
        <ele>76.32679923493</ele>
        <time>2020-07-19T13:31:18Z</time>
      </trkpt>
      <trkpt lat="48.34179" lon="2.7635">
        <ele>76.359136513161</ele>
        <time>2020-07-19T13:31:23Z</time>
      </trkpt>
      <trkpt lat="48.34184" lon="2.76342">
        <ele>76.392847211813</ele>
        <time>2020-07-19T13:31:28Z</time>
      </trkpt>
      <trkpt lat="48.34189" lon="2.76334">
        <ele>76.418954946963</ele>
        <time>2020-07-19T13:31:32Z</time>
      </trkpt>
      <trkpt lat="48.34196" lon="2.76325">
        <ele>76.480783134776</ele>
        <time>2020-07-19T13:31:42Z</time>
      </trkpt>
      <trkpt lat="48.34203" lon="2.76317">
        <ele>76.538510094993</ele>
        <time>2020-07-19T13:31:51Z</time>
      </trkpt>
      <trkpt lat="48.34209" lon="2.76307">
        <ele>76.599011779617</ele>
        <time>2020-07-19T13:31:58Z</time>
      </trkpt>
      <trkpt lat="48.34215" lon="2.76298">
        <ele>76.664579626291</ele>
        <time>2020-07-19T13:32:06Z</time>
      </trkpt>
      <trkpt lat="48.34221" lon="2.76289">
        <ele>76.745129776775</ele>
        <time>2020-07-19T13:32:16Z</time>
      </trkpt>
      <trkpt lat="48.34226" lon="2.76279">
        <ele>76.805722209791</ele>
        <time>2020-07-19T13:32:23Z</time>
      </trkpt>
      <trkpt lat="48.34225" lon="2.76266">
        <ele>76.926485229718</ele>
        <time>2020-07-19T13:32:40Z</time>
      </trkpt>
      <trkpt lat="48.34219" lon="2.76257">
        <ele>76.982947198628</ele>
        <time>2020-07-19T13:32:48Z</time>
      </trkpt>
      <trkpt lat="48.34212" lon="2.76249">
        <ele>77.053280634444</ele>
        <time>2020-07-19T13:32:58Z</time>
      </trkpt>
      <trkpt lat="48.34209" lon="2.7624">
        <ele>77.109501345565</ele>
        <time>2020-07-19T13:33:06Z</time>
      </trkpt>
      <trkpt lat="48.34204" lon="2.76231">
        <ele>77.150071022744</ele>
        <time>2020-07-19T13:33:12Z</time>
      </trkpt>
      <trkpt lat="48.34196" lon="2.76221">
        <ele>77.185237350577</ele>
        <time>2020-07-19T13:33:17Z</time>
      </trkpt>
      <trkpt lat="48.3419" lon="2.76211">
        <ele>77.227014897075</ele>
        <time>2020-07-19T13:33:23Z</time>
      </trkpt>
      <trkpt lat="48.34183" lon="2.76204">
        <ele>77.287689147513</ele>
        <time>2020-07-19T13:33:32Z</time>
      </trkpt>
      <trkpt lat="48.34179" lon="2.76195">
        <ele>77.321791089795</ele>
        <time>2020-07-19T13:33:38Z</time>
      </trkpt>
      <trkpt lat="48.34176" lon="2.76184">
        <ele>77.351284964798</ele>
        <time>2020-07-19T13:33:44Z</time>
      </trkpt>
      <trkpt lat="48.34173" lon="2.76172">
        <ele>77.383726845563</ele>
        <time>2020-07-19T13:33:51Z</time>
      </trkpt>
      <trkpt lat="48.34168" lon="2.76162">
        <ele>77.434983451873</ele>
        <time>2020-07-19T13:34:02Z</time>
      </trkpt>
      <trkpt lat="48.34161" lon="2.76155">
        <ele>77.487186582378</ele>
        <time>2020-07-19T13:34:11Z</time>
      </trkpt>
      <trkpt lat="48.34155" lon="2.76148">
        <ele>77.521822065903</ele>
        <time>2020-07-19T13:34:17Z</time>
      </trkpt>
      <trkpt lat="48.34149" lon="2.76138">
        <ele>77.560483209811</ele>
        <time>2020-07-19T13:34:23Z</time>
      </trkpt>
      <trkpt lat="48.34146" lon="2.76129">
        <ele>77.602311089955</ele>
        <time>2020-07-19T13:34:30Z</time>
      </trkpt>
      <trkpt lat="48.34141" lon="2.76117">
        <ele>77.622666865533</ele>
        <time>2020-07-19T13:34:34Z</time>
      </trkpt>
      <trkpt lat="48.34137" lon="2.76104">
        <ele>77.655171056097</ele>
        <time>2020-07-19T13:34:41Z</time>
      </trkpt>
      <trkpt lat="48.34133" lon="2.76093">
        <ele>77.688626556148</ele>
        <time>2020-07-19T13:34:48Z</time>
      </trkpt>
      <trkpt lat="48.34128" lon="2.76083">
        <ele>77.746151420995</ele>
        <time>2020-07-19T13:35:00Z</time>
      </trkpt>
      <trkpt lat="48.34126" lon="2.76074">
        <ele>77.77271604882</ele>
        <time>2020-07-19T13:35:05Z</time>
      </trkpt>
      <trkpt lat="48.3412" lon="2.76061">
        <ele>77.799519895034</ele>
        <time>2020-07-19T13:35:10Z</time>
      </trkpt>
      <trkpt lat="48.34126" lon="2.76051">
        <ele>78.204460701004</ele>
        <time>2020-07-19T13:36:17Z</time>
      </trkpt>
      <trkpt lat="48.34126" lon="2.76038">
        <ele>78.164461145697</ele>
        <time>2020-07-19T13:36:29Z</time>
      </trkpt>
      <trkpt lat="48.34118" lon="2.76027">
        <ele>78.179162375</ele>
        <time>2020-07-19T13:36:34Z</time>
      </trkpt>
      <trkpt lat="48.34113" lon="2.76018">
        <ele>78.193258307135</ele>
        <time>2020-07-19T13:36:38Z</time>
      </trkpt>
      <trkpt lat="48.34106" lon="2.76008">
        <ele>78.227792411401</ele>
        <time>2020-07-19T13:36:43Z</time>
      </trkpt>
      <trkpt lat="48.341" lon="2.76">
        <ele>78.251907262533</ele>
        <time>2020-07-19T13:36:48Z</time>
      </trkpt>
      <trkpt lat="48.34094" lon="2.75991">
        <ele>78.255894721057</ele>
        <time>2020-07-19T13:36:52Z</time>
      </trkpt>
      <trkpt lat="48.34087" lon="2.75984">
        <ele>78.2750612083</ele>
        <time>2020-07-19T13:36:56Z</time>
      </trkpt>
      <trkpt lat="48.3408" lon="2.75975">
        <ele>78.31854204588</ele>
        <time>2020-07-19T13:37:04Z</time>
      </trkpt>
      <trkpt lat="48.34072" lon="2.75973">
        <ele>78.387033966585</ele>
        <time>2020-07-19T13:37:14Z</time>
      </trkpt>
      <trkpt lat="48.34064" lon="2.75967">
        <ele>78.444929077231</ele>
        <time>2020-07-19T13:37:20Z</time>
      </trkpt>
      <trkpt lat="48.34057" lon="2.75962">
        <ele>78.521246831647</ele>
        <time>2020-07-19T13:37:26Z</time>
      </trkpt>
      <trkpt lat="48.3405" lon="2.75955">
        <ele>78.613781612832</ele>
        <time>2020-07-19T13:37:31Z</time>
      </trkpt>
      <trkpt lat="48.34044" lon="2.75946">
        <ele>78.737604942509</ele>
        <time>2020-07-19T13:37:36Z</time>
      </trkpt>
      <trkpt lat="48.34038" lon="2.75937">
        <ele>78.890526627979</ele>
        <time>2020-07-19T13:37:42Z</time>
      </trkpt>
      <trkpt lat="48.34031" lon="2.75928">
        <ele>79.014098694678</ele>
        <time>2020-07-19T13:37:47Z</time>
      </trkpt>
      <trkpt lat="48.34025" lon="2.75921">
        <ele>79.126261384963</ele>
        <time>2020-07-19T13:37:52Z</time>
      </trkpt>
      <trkpt lat="48.34019" lon="2.75912">
        <ele>79.231070305283</ele>
        <time>2020-07-19T13:37:57Z</time>
      </trkpt>
      <trkpt lat="48.34013" lon="2.75902">
        <ele>79.371767668654</ele>
        <time>2020-07-19T13:38:04Z</time>
      </trkpt>
      <trkpt lat="48.34008" lon="2.75892">
        <ele>79.543955344335</ele>
        <time>2020-07-19T13:38:13Z</time>
      </trkpt>
      <trkpt lat="48.34004" lon="2.75881">
        <ele>79.704520770427</ele>
        <time>2020-07-19T13:38:21Z</time>
      </trkpt>
      <trkpt lat="48.34" lon="2.75871">
        <ele>79.808561547434</ele>
        <time>2020-07-19T13:38:27Z</time>
      </trkpt>
      <trkpt lat="48.33995" lon="2.75861">
        <ele>79.918589953695</ele>
        <time>2020-07-19T13:38:33Z</time>
      </trkpt>
      <trkpt lat="48.33992" lon="2.75848">
        <ele>80.001018312293</ele>
        <time>2020-07-19T13:38:40Z</time>
      </trkpt>
      <trkpt lat="48.3399" lon="2.75837">
        <ele>80.121470605972</ele>
        <time>2020-07-19T13:38:51Z</time>
      </trkpt>
      <trkpt lat="48.33986" lon="2.75825">
        <ele>80.209249762712</ele>
        <time>2020-07-19T13:38:58Z</time>
      </trkpt>
      <trkpt lat="48.33982" lon="2.75814">
        <ele>80.286285201217</ele>
        <time>2020-07-19T13:39:04Z</time>
      </trkpt>
      <trkpt lat="48.33973" lon="2.75814">
        <ele>80.452809741002</ele>
        <time>2020-07-19T13:39:26Z</time>
      </trkpt>
      <trkpt lat="48.33966" lon="2.75819">
        <ele>80.58579400628</ele>
        <time>2020-07-19T13:39:35Z</time>
      </trkpt>
      <trkpt lat="48.3396" lon="2.75828">
        <ele>80.679654821185</ele>
        <time>2020-07-19T13:39:42Z</time>
      </trkpt>
      <trkpt lat="48.33953" lon="2.75834">
        <ele>80.74887735467</ele>
        <time>2020-07-19T13:39:48Z</time>
      </trkpt>
      <trkpt lat="48.33945" lon="2.75838">
        <ele>80.814915604227</ele>
        <time>2020-07-19T13:39:57Z</time>
      </trkpt>
      <trkpt lat="48.33937" lon="2.75843">
        <ele>80.870992878298</ele>
        <time>2020-07-19T13:40:08Z</time>
      </trkpt>
      <trkpt lat="48.33931" lon="2.75852">
        <ele>80.897029522164</ele>
        <time>2020-07-19T13:40:13Z</time>
      </trkpt>
      <trkpt lat="48.33926" lon="2.75862">
        <ele>80.91200045912</ele>
        <time>2020-07-19T13:40:18Z</time>
      </trkpt>
      <trkpt lat="48.33922" lon="2.75873">
        <ele>80.908580245511</ele>
        <time>2020-07-19T13:40:23Z</time>
      </trkpt>
      <trkpt lat="48.33914" lon="2.75881">
        <ele>80.887220329378</ele>
        <time>2020-07-19T13:40:30Z</time>
      </trkpt>
      <trkpt lat="48.33908" lon="2.75872">
        <ele>80.837490492775</ele>
        <time>2020-07-19T13:40:48Z</time>
      </trkpt>
      <trkpt lat="48.33909" lon="2.75861">
        <ele>80.843526403552</ele>
        <time>2020-07-19T13:40:54Z</time>
      </trkpt>
      <trkpt lat="48.33912" lon="2.7585">
        <ele>80.86332799793</ele>
        <time>2020-07-19T13:41:00Z</time>
      </trkpt>
      <trkpt lat="48.33914" lon="2.75838">
        <ele>80.894199385126</ele>
        <time>2020-07-19T13:41:07Z</time>
      </trkpt>
      <trkpt lat="48.33915" lon="2.75825">
        <ele>80.924280119162</ele>
        <time>2020-07-19T13:41:17Z</time>
      </trkpt>
      <trkpt lat="48.33912" lon="2.75813">
        <ele>80.9375257665</ele>
        <time>2020-07-19T13:41:23Z</time>
      </trkpt>
      <trkpt lat="48.3391" lon="2.75801">
        <ele>80.943162221134</ele>
        <time>2020-07-19T13:41:29Z</time>
      </trkpt>
      <trkpt lat="48.33907" lon="2.75788">
        <ele>80.950336708696</ele>
        <time>2020-07-19T13:41:35Z</time>
      </trkpt>
      <trkpt lat="48.33905" lon="2.75776">
        <ele>80.961780205385</ele>
        <time>2020-07-19T13:41:42Z</time>
      </trkpt>
      <trkpt lat="48.33902" lon="2.75765">
        <ele>80.993787871092</ele>
        <time>2020-07-19T13:41:49Z</time>
      </trkpt>
      <trkpt lat="48.33898" lon="2.75754">
        <ele>81.043108160884</ele>
        <time>2020-07-19T13:41:55Z</time>
      </trkpt>
      <trkpt lat="48.33896" lon="2.75742">
        <ele>81.136786374058</ele>
        <time>2020-07-19T13:42:04Z</time>
      </trkpt>
      <trkpt lat="48.33895" lon="2.75729">
        <ele>81.228892292298</ele>
        <time>2020-07-19T13:42:12Z</time>
      </trkpt>
      <trkpt lat="48.33895" lon="2.75716">
        <ele>81.337000724515</ele>
        <time>2020-07-19T13:42:20Z</time>
      </trkpt>
      <trkpt lat="48.33895" lon="2.75703">
        <ele>81.429350610254</ele>
        <time>2020-07-19T13:42:26Z</time>
      </trkpt>
      <trkpt lat="48.33895" lon="2.7569">
        <ele>81.506303281075</ele>
        <time>2020-07-19T13:42:31Z</time>
      </trkpt>
      <trkpt lat="48.33894" lon="2.75676">
        <ele>81.612213146152</ele>
        <time>2020-07-19T13:42:38Z</time>
      </trkpt>
      <trkpt lat="48.33894" lon="2.75663">
        <ele>81.718309778576</ele>
        <time>2020-07-19T13:42:45Z</time>
      </trkpt>
      <trkpt lat="48.33894" lon="2.7565">
        <ele>81.856403566445</ele>
        <time>2020-07-19T13:42:53Z</time>
      </trkpt>
      <trkpt lat="48.33893" lon="2.75639">
        <ele>81.961620632981</ele>
        <time>2020-07-19T13:42:58Z</time>
      </trkpt>
      <trkpt lat="48.33892" lon="2.75627">
        <ele>82.070830204514</ele>
        <time>2020-07-19T13:43:03Z</time>
      </trkpt>
      <trkpt lat="48.33892" lon="2.75614">
        <ele>82.356986292584</ele>
        <time>2020-07-19T13:43:29Z</time>
      </trkpt>
      <trkpt lat="48.3389" lon="2.75601">
        <ele>82.913511684524</ele>
        <time>2020-07-19T13:43:47Z</time>
      </trkpt>
      <trkpt lat="48.33892" lon="2.75588">
        <ele>83.277883585274</ele>
        <time>2020-07-19T13:43:54Z</time>
      </trkpt>
      <trkpt lat="48.33892" lon="2.75576">
        <ele>83.521563479071</ele>
        <time>2020-07-19T13:43:59Z</time>
      </trkpt>
      <trkpt lat="48.3389" lon="2.75565">
        <ele>83.742222776991</ele>
        <time>2020-07-19T13:44:04Z</time>
      </trkpt>
      <trkpt lat="48.33891" lon="2.75553">
        <ele>83.983804993536</ele>
        <time>2020-07-19T13:44:10Z</time>
      </trkpt>
      <trkpt lat="48.33891" lon="2.7554">
        <ele>84.242793398074</ele>
        <time>2020-07-19T13:44:17Z</time>
      </trkpt>
      <trkpt lat="48.3389" lon="2.75527">
        <ele>84.444903376297</ele>
        <time>2020-07-19T13:44:23Z</time>
      </trkpt>
      <trkpt lat="48.33887" lon="2.75515">
        <ele>84.60088938802</ele>
        <time>2020-07-19T13:44:28Z</time>
      </trkpt>
      <trkpt lat="48.33888" lon="2.75501">
        <ele>84.749797430081</ele>
        <time>2020-07-19T13:44:33Z</time>
      </trkpt>
      <trkpt lat="48.33888" lon="2.75489">
        <ele>84.861747550383</ele>
        <time>2020-07-19T13:44:37Z</time>
      </trkpt>
      <trkpt lat="48.33889" lon="2.75477">
        <ele>85.081790251615</ele>
        <time>2020-07-19T13:44:46Z</time>
      </trkpt>
      <trkpt lat="48.3389" lon="2.75464">
        <ele>85.351458690025</ele>
        <time>2020-07-19T13:44:58Z</time>
      </trkpt>
      <trkpt lat="48.3389" lon="2.7545">
        <ele>85.508590878519</ele>
        <time>2020-07-19T13:45:06Z</time>
      </trkpt>
      <trkpt lat="48.33894" lon="2.75439">
        <ele>85.638057587066</ele>
        <time>2020-07-19T13:45:14Z</time>
      </trkpt>
      <trkpt lat="48.33898" lon="2.75427">
        <ele>85.727317648958</ele>
        <time>2020-07-19T13:45:20Z</time>
      </trkpt>
      <trkpt lat="48.33903" lon="2.75418">
        <ele>85.824542986504</ele>
        <time>2020-07-19T13:45:27Z</time>
      </trkpt>
      <trkpt lat="48.33908" lon="2.75408">
        <ele>85.920546054637</ele>
        <time>2020-07-19T13:45:35Z</time>
      </trkpt>
      <trkpt lat="48.33913" lon="2.75398">
        <ele>85.985044561195</ele>
        <time>2020-07-19T13:45:41Z</time>
      </trkpt>
      <trkpt lat="48.33919" lon="2.75389">
        <ele>86.035821949843</ele>
        <time>2020-07-19T13:45:47Z</time>
      </trkpt>
      <trkpt lat="48.33922" lon="2.75377">
        <ele>86.095203311598</ele>
        <time>2020-07-19T13:45:55Z</time>
      </trkpt>
      <trkpt lat="48.33922" lon="2.75364">
        <ele>86.149411729402</ele>
        <time>2020-07-19T13:46:02Z</time>
      </trkpt>
      <trkpt lat="48.33923" lon="2.75353">
        <ele>86.231661547658</ele>
        <time>2020-07-19T13:46:11Z</time>
      </trkpt>
      <trkpt lat="48.33927" lon="2.75342">
        <ele>86.288577985438</ele>
        <time>2020-07-19T13:46:17Z</time>
      </trkpt>
      <trkpt lat="48.33928" lon="2.75329">
        <ele>86.337669259173</ele>
        <time>2020-07-19T13:46:24Z</time>
      </trkpt>
      <trkpt lat="48.33935" lon="2.75321">
        <ele>86.378863993323</ele>
        <time>2020-07-19T13:46:31Z</time>
      </trkpt>
      <trkpt lat="48.33938" lon="2.75311">
        <ele>86.429165996811</ele>
        <time>2020-07-19T13:46:38Z</time>
      </trkpt>
      <trkpt lat="48.33941" lon="2.75299">
        <ele>86.49001705465</ele>
        <time>2020-07-19T13:46:44Z</time>
      </trkpt>
      <trkpt lat="48.33941" lon="2.75287">
        <ele>86.623766268419</ele>
        <time>2020-07-19T13:46:55Z</time>
      </trkpt>
      <trkpt lat="48.3394" lon="2.75274">
        <ele>86.735456511999</ele>
        <time>2020-07-19T13:47:06Z</time>
      </trkpt>
      <trkpt lat="48.33942" lon="2.75262">
        <ele>86.858858880585</ele>
        <time>2020-07-19T13:47:17Z</time>
      </trkpt>
      <trkpt lat="48.33944" lon="2.7525">
        <ele>86.961796067446</ele>
        <time>2020-07-19T13:47:25Z</time>
      </trkpt>
      <trkpt lat="48.33947" lon="2.75237">
        <ele>87.19117323669</ele>
        <time>2020-07-19T13:47:41Z</time>
      </trkpt>
      <trkpt lat="48.33945" lon="2.75225">
        <ele>87.998076663686</ele>
        <time>2020-07-19T13:48:30Z</time>
      </trkpt>
      <trkpt lat="48.33949" lon="2.75213">
        <ele>88.182555631945</ele>
        <time>2020-07-19T13:48:41Z</time>
      </trkpt>
      <trkpt lat="48.33952" lon="2.75201">
        <ele>88.405340347317</ele>
        <time>2020-07-19T13:48:54Z</time>
      </trkpt>
      <trkpt lat="48.33953" lon="2.75189">
        <ele>88.600390177414</ele>
        <time>2020-07-19T13:49:02Z</time>
      </trkpt>
      <trkpt lat="48.33953" lon="2.75175">
        <ele>88.793814171515</ele>
        <time>2020-07-19T13:49:10Z</time>
      </trkpt>
      <trkpt lat="48.33956" lon="2.75163">
        <ele>89.002739377984</ele>
        <time>2020-07-19T13:49:20Z</time>
      </trkpt>
      <trkpt lat="48.33958" lon="2.7515">
        <ele>89.28760400272</ele>
        <time>2020-07-19T13:49:38Z</time>
      </trkpt>
      <trkpt lat="48.33963" lon="2.75141">
        <ele>89.495675207358</ele>
        <time>2020-07-19T13:49:47Z</time>
      </trkpt>
      <trkpt lat="48.33967" lon="2.75131">
        <ele>89.63172145685</ele>
        <time>2020-07-19T13:49:53Z</time>
      </trkpt>
      <trkpt lat="48.33971" lon="2.75119">
        <ele>89.842243370392</ele>
        <time>2020-07-19T13:50:09Z</time>
      </trkpt>
      <trkpt lat="48.33976" lon="2.75109">
        <ele>90.296716235296</ele>
        <time>2020-07-19T13:50:34Z</time>
      </trkpt>
      <trkpt lat="48.33973" lon="2.75097">
        <ele>90.53744315006</ele>
        <time>2020-07-19T13:50:45Z</time>
      </trkpt>
      <trkpt lat="48.33971" lon="2.75084">
        <ele>90.660768580133</ele>
        <time>2020-07-19T13:50:51Z</time>
      </trkpt>
      <trkpt lat="48.33971" lon="2.75071">
        <ele>90.737451708539</ele>
        <time>2020-07-19T13:50:55Z</time>
      </trkpt>
      <trkpt lat="48.33969" lon="2.75059">
        <ele>90.845577010391</ele>
        <time>2020-07-19T13:51:01Z</time>
      </trkpt>
      <trkpt lat="48.33969" lon="2.75048">
        <ele>90.983426182192</ele>
        <time>2020-07-19T13:51:10Z</time>
      </trkpt>
      <trkpt lat="48.33971" lon="2.75035">
        <ele>91.082467874067</ele>
        <time>2020-07-19T13:51:18Z</time>
      </trkpt>
      <trkpt lat="48.33974" lon="2.75023">
        <ele>91.154630929948</ele>
        <time>2020-07-19T13:51:24Z</time>
      </trkpt>
      <trkpt lat="48.33972" lon="2.7501">
        <ele>91.230796743483</ele>
        <time>2020-07-19T13:51:31Z</time>
      </trkpt>
      <trkpt lat="48.33969" lon="2.74998">
        <ele>91.306840704218</ele>
        <time>2020-07-19T13:51:38Z</time>
      </trkpt>
      <trkpt lat="48.33962" lon="2.74987">
        <ele>91.36014842603</ele>
        <time>2020-07-19T13:51:43Z</time>
      </trkpt>
      <trkpt lat="48.33957" lon="2.74977">
        <ele>91.402879820472</ele>
        <time>2020-07-19T13:51:47Z</time>
      </trkpt>
      <trkpt lat="48.33954" lon="2.74965">
        <ele>91.467589879913</ele>
        <time>2020-07-19T13:51:53Z</time>
      </trkpt>
      <trkpt lat="48.33952" lon="2.74952">
        <ele>91.54810646485</ele>
        <time>2020-07-19T13:52:02Z</time>
      </trkpt>
      <trkpt lat="48.33951" lon="2.74939">
        <ele>91.606747164443</ele>
        <time>2020-07-19T13:52:10Z</time>
      </trkpt>
      <trkpt lat="48.33947" lon="2.74928">
        <ele>91.650841622037</ele>
        <time>2020-07-19T13:52:17Z</time>
      </trkpt>
      <trkpt lat="48.33941" lon="2.74918">
        <ele>91.700537712293</ele>
        <time>2020-07-19T13:52:25Z</time>
      </trkpt>
      <trkpt lat="48.33939" lon="2.74906">
        <ele>91.746784058187</ele>
        <time>2020-07-19T13:52:33Z</time>
      </trkpt>
      <trkpt lat="48.33938" lon="2.74893">
        <ele>91.802182168948</ele>
        <time>2020-07-19T13:52:42Z</time>
      </trkpt>
      <trkpt lat="48.3394" lon="2.74882">
        <ele>91.822903971853</ele>
        <time>2020-07-19T13:52:46Z</time>
      </trkpt>
      <trkpt lat="48.3394" lon="2.7487">
        <ele>91.853714733818</ele>
        <time>2020-07-19T13:52:53Z</time>
      </trkpt>
      <trkpt lat="48.33941" lon="2.74858">
        <ele>91.867802441048</ele>
        <time>2020-07-19T13:52:58Z</time>
      </trkpt>
      <trkpt lat="48.3394" lon="2.74845">
        <ele>91.879088259718</ele>
        <time>2020-07-19T13:53:04Z</time>
      </trkpt>
      <trkpt lat="48.3394" lon="2.74833">
        <ele>91.881049596015</ele>
        <time>2020-07-19T13:53:14Z</time>
      </trkpt>
      <trkpt lat="48.33941" lon="2.7482">
        <ele>91.841404647468</ele>
        <time>2020-07-19T13:53:24Z</time>
      </trkpt>
      <trkpt lat="48.33941" lon="2.74807">
        <ele>91.824330777192</ele>
        <time>2020-07-19T13:53:57Z</time>
      </trkpt>
      <trkpt lat="48.33942" lon="2.74794">
        <ele>91.858815957189</ele>
        <time>2020-07-19T13:54:05Z</time>
      </trkpt>
      <trkpt lat="48.33943" lon="2.74782">
        <ele>91.884952449077</ele>
        <time>2020-07-19T13:54:11Z</time>
      </trkpt>
      <trkpt lat="48.33941" lon="2.74765">
        <ele>91.909089695782</ele>
        <time>2020-07-19T13:54:16Z</time>
      </trkpt>
      <trkpt lat="48.3394" lon="2.74753">
        <ele>91.934966252514</ele>
        <time>2020-07-19T13:54:21Z</time>
      </trkpt>
      <trkpt lat="48.33941" lon="2.74741">
        <ele>91.990458891885</ele>
        <time>2020-07-19T13:54:28Z</time>
      </trkpt>
      <trkpt lat="48.3394" lon="2.74729">
        <ele>92.055193012321</ele>
        <time>2020-07-19T13:54:36Z</time>
      </trkpt>
      <trkpt lat="48.33941" lon="2.74716">
        <ele>92.133257645191</ele>
        <time>2020-07-19T13:55:08Z</time>
      </trkpt>
      <trkpt lat="48.33941" lon="2.74704">
        <ele>92.135611509729</ele>
        <time>2020-07-19T13:55:15Z</time>
      </trkpt>
      <trkpt lat="48.33942" lon="2.74692">
        <ele>92.1390871914</ele>
        <time>2020-07-19T13:55:20Z</time>
      </trkpt>
      <trkpt lat="48.33942" lon="2.7468">
        <ele>92.142385411543</ele>
        <time>2020-07-19T13:55:25Z</time>
      </trkpt>
      <trkpt lat="48.33942" lon="2.74668">
        <ele>92.143078845285</ele>
        <time>2020-07-19T13:55:29Z</time>
      </trkpt>
      <trkpt lat="48.33944" lon="2.74657">
        <ele>92.143410609508</ele>
        <time>2020-07-19T13:55:35Z</time>
      </trkpt>
      <trkpt lat="48.33944" lon="2.74645">
        <ele>92.145612596331</ele>
        <time>2020-07-19T13:55:41Z</time>
      </trkpt>
      <trkpt lat="48.33945" lon="2.74634">
        <ele>92.147282383034</ele>
        <time>2020-07-19T13:55:46Z</time>
      </trkpt>
      <trkpt lat="48.33946" lon="2.74621">
        <ele>92.150797870476</ele>
        <time>2020-07-19T13:55:55Z</time>
      </trkpt>
      <trkpt lat="48.33944" lon="2.74609">
        <ele>92.155996907026</ele>
        <time>2020-07-19T13:56:04Z</time>
      </trkpt>
      <trkpt lat="48.33941" lon="2.74597">
        <ele>92.163342461443</ele>
        <time>2020-07-19T13:56:10Z</time>
      </trkpt>
      <trkpt lat="48.33941" lon="2.74585">
        <ele>92.175706957138</ele>
        <time>2020-07-19T13:56:16Z</time>
      </trkpt>
      <trkpt lat="48.33939" lon="2.74574">
        <ele>92.195046322711</ele>
        <time>2020-07-19T13:56:22Z</time>
      </trkpt>
      <trkpt lat="48.33936" lon="2.74562">
        <ele>92.143794279303</ele>
        <time>2020-07-19T13:56:51Z</time>
      </trkpt>
      <trkpt lat="48.33934" lon="2.74549">
        <ele>92.122453080791</ele>
        <time>2020-07-19T13:56:57Z</time>
      </trkpt>
      <trkpt lat="48.3393" lon="2.74538">
        <ele>92.08797124453</ele>
        <time>2020-07-19T13:57:07Z</time>
      </trkpt>
      <trkpt lat="48.33924" lon="2.7453">
        <ele>92.071238047284</ele>
        <time>2020-07-19T13:57:14Z</time>
      </trkpt>
      <trkpt lat="48.33918" lon="2.74523">
        <ele>92.057974476658</ele>
        <time>2020-07-19T13:57:19Z</time>
      </trkpt>
      <trkpt lat="48.33911" lon="2.74519">
        <ele>92.01467114332</ele>
        <time>2020-07-19T13:57:27Z</time>
      </trkpt>
      <trkpt lat="48.33903" lon="2.74518">
        <ele>91.984790008191</ele>
        <time>2020-07-19T13:57:33Z</time>
      </trkpt>
      <trkpt lat="48.33896" lon="2.74511">
        <ele>91.947956962893</ele>
        <time>2020-07-19T13:57:39Z</time>
      </trkpt>
      <trkpt lat="48.33889" lon="2.74506">
        <ele>91.910547718967</ele>
        <time>2020-07-19T13:57:47Z</time>
      </trkpt>
      <trkpt lat="48.33881" lon="2.745">
        <ele>91.857815722715</ele>
        <time>2020-07-19T13:57:55Z</time>
      </trkpt>
      <trkpt lat="48.33874" lon="2.74497">
        <ele>91.720988519041</ele>
        <time>2020-07-19T13:58:09Z</time>
      </trkpt>
      <trkpt lat="48.33867" lon="2.74491">
        <ele>91.633626422535</ele>
        <time>2020-07-19T13:58:13Z</time>
      </trkpt>
      <trkpt lat="48.33867" lon="2.74478">
        <ele>91.161755833317</ele>
        <time>2020-07-19T13:58:32Z</time>
      </trkpt>
      <trkpt lat="48.33871" lon="2.74468">
        <ele>90.923491305693</ele>
        <time>2020-07-19T13:58:40Z</time>
      </trkpt>
      <trkpt lat="48.33872" lon="2.74456">
        <ele>90.616743757277</ele>
        <time>2020-07-19T13:58:50Z</time>
      </trkpt>
      <trkpt lat="48.33873" lon="2.74444">
        <ele>90.265981991373</ele>
        <time>2020-07-19T13:59:00Z</time>
      </trkpt>
      <trkpt lat="48.33875" lon="2.74433">
        <ele>89.985154211084</ele>
        <time>2020-07-19T13:59:09Z</time>
      </trkpt>
      <trkpt lat="48.33878" lon="2.7442">
        <ele>89.795538695745</ele>
        <time>2020-07-19T13:59:16Z</time>
      </trkpt>
      <trkpt lat="48.3388" lon="2.74407">
        <ele>89.638602209013</ele>
        <time>2020-07-19T13:59:23Z</time>
      </trkpt>
      <trkpt lat="48.33879" lon="2.74394">
        <ele>89.512618316847</ele>
        <time>2020-07-19T13:59:30Z</time>
      </trkpt>
      <trkpt lat="48.33879" lon="2.74381">
        <ele>89.434816906383</ele>
        <time>2020-07-19T13:59:35Z</time>
      </trkpt>
      <trkpt lat="48.33878" lon="2.74369">
        <ele>89.324369017222</ele>
        <time>2020-07-19T13:59:43Z</time>
      </trkpt>
      <trkpt lat="48.33877" lon="2.74359">
        <ele>89.266705937036</ele>
        <time>2020-07-19T13:59:48Z</time>
      </trkpt>
      <trkpt lat="48.33871" lon="2.74347">
        <ele>89.204343081235</ele>
        <time>2020-07-19T13:59:53Z</time>
      </trkpt>
      <trkpt lat="48.33872" lon="2.74335">
        <ele>89.099803886134</ele>
        <time>2020-07-19T14:00:01Z</time>
      </trkpt>
      <trkpt lat="48.33875" lon="2.74325">
        <ele>89.014465956735</ele>
        <time>2020-07-19T14:00:09Z</time>
      </trkpt>
      <trkpt lat="48.33867" lon="2.74324">
        <ele>88.85460068897</ele>
        <time>2020-07-19T14:00:33Z</time>
      </trkpt>
      <trkpt lat="48.33857" lon="2.74327">
        <ele>88.832072778164</ele>
        <time>2020-07-19T14:00:38Z</time>
      </trkpt>
      <trkpt lat="48.33844" lon="2.74327">
        <ele>88.810952941913</ele>
        <time>2020-07-19T14:00:43Z</time>
      </trkpt>
      <trkpt lat="48.33838" lon="2.74317">
        <ele>88.808041576982</ele>
        <time>2020-07-19T14:00:53Z</time>
      </trkpt>
      <trkpt lat="48.33835" lon="2.74305">
        <ele>88.823028103836</ele>
        <time>2020-07-19T14:01:00Z</time>
      </trkpt>
      <trkpt lat="48.33835" lon="2.74293">
        <ele>88.853537154025</ele>
        <time>2020-07-19T14:01:07Z</time>
      </trkpt>
      <trkpt lat="48.33835" lon="2.7428">
        <ele>88.912294711039</ele>
        <time>2020-07-19T14:01:15Z</time>
      </trkpt>
      <trkpt lat="48.33832" lon="2.74269">
        <ele>88.962457765587</ele>
        <time>2020-07-19T14:01:20Z</time>
      </trkpt>
      <trkpt lat="48.33831" lon="2.74256">
        <ele>89.031143276745</ele>
        <time>2020-07-19T14:01:27Z</time>
      </trkpt>
      <trkpt lat="48.33831" lon="2.74244">
        <ele>89.102046940889</ele>
        <time>2020-07-19T14:01:35Z</time>
      </trkpt>
      <trkpt lat="48.33831" lon="2.74232">
        <ele>89.167961005868</ele>
        <time>2020-07-19T14:01:44Z</time>
      </trkpt>
      <trkpt lat="48.33833" lon="2.7422">
        <ele>89.217790609974</ele>
        <time>2020-07-19T14:01:51Z</time>
      </trkpt>
      <trkpt lat="48.33834" lon="2.74209">
        <ele>89.267478373644</ele>
        <time>2020-07-19T14:01:58Z</time>
      </trkpt>
      <trkpt lat="48.33832" lon="2.74196">
        <ele>89.313825968043</ele>
        <time>2020-07-19T14:02:05Z</time>
      </trkpt>
      <trkpt lat="48.33831" lon="2.74183">
        <ele>89.397512174429</ele>
        <time>2020-07-19T14:02:18Z</time>
      </trkpt>
      <trkpt lat="48.33829" lon="2.7417">
        <ele>89.447257364632</ele>
        <time>2020-07-19T14:02:25Z</time>
      </trkpt>
      <trkpt lat="48.33826" lon="2.74159">
        <ele>89.482561893069</ele>
        <time>2020-07-19T14:02:30Z</time>
      </trkpt>
      <trkpt lat="48.33821" lon="2.74149">
        <ele>89.516610931018</ele>
        <time>2020-07-19T14:02:35Z</time>
      </trkpt>
      <trkpt lat="48.3382" lon="2.74137">
        <ele>89.563328046209</ele>
        <time>2020-07-19T14:02:42Z</time>
      </trkpt>
      <trkpt lat="48.33823" lon="2.74125">
        <ele>89.607472683039</ele>
        <time>2020-07-19T14:02:48Z</time>
      </trkpt>
      <trkpt lat="48.33822" lon="2.74112">
        <ele>89.675313212269</ele>
        <time>2020-07-19T14:02:57Z</time>
      </trkpt>
      <trkpt lat="48.33822" lon="2.74099">
        <ele>89.722413822335</ele>
        <time>2020-07-19T14:03:03Z</time>
      </trkpt>
      <trkpt lat="48.33823" lon="2.74087">
        <ele>89.772131832736</ele>
        <time>2020-07-19T14:03:09Z</time>
      </trkpt>
      <trkpt lat="48.33822" lon="2.74074">
        <ele>89.834076640072</ele>
        <time>2020-07-19T14:03:16Z</time>
      </trkpt>
      <trkpt lat="48.33818" lon="2.74064">
        <ele>89.896457498392</ele>
        <time>2020-07-19T14:03:23Z</time>
      </trkpt>
      <trkpt lat="48.3381" lon="2.74058">
        <ele>89.961183504754</ele>
        <time>2020-07-19T14:03:30Z</time>
      </trkpt>
      <trkpt lat="48.33802" lon="2.74056">
        <ele>90.011699195045</ele>
        <time>2020-07-19T14:03:37Z</time>
      </trkpt>
      <trkpt lat="48.33795" lon="2.74057">
        <ele>90.035766885563</ele>
        <time>2020-07-19T14:03:41Z</time>
      </trkpt>
      <trkpt lat="48.33787" lon="2.74058">
        <ele>90.064733820976</ele>
        <time>2020-07-19T14:03:46Z</time>
      </trkpt>
      <trkpt lat="48.33779" lon="2.74059">
        <ele>90.127946018182</ele>
        <time>2020-07-19T14:03:56Z</time>
      </trkpt>
      <trkpt lat="48.33771" lon="2.74058">
        <ele>90.186007499737</ele>
        <time>2020-07-19T14:04:04Z</time>
      </trkpt>
      <trkpt lat="48.33763" lon="2.74058">
        <ele>90.231872303396</ele>
        <time>2020-07-19T14:04:10Z</time>
      </trkpt>
      <trkpt lat="48.33755" lon="2.74059">
        <ele>90.283720134092</ele>
        <time>2020-07-19T14:04:19Z</time>
      </trkpt>
      <trkpt lat="48.33747" lon="2.74063">
        <ele>90.320489729476</ele>
        <time>2020-07-19T14:04:27Z</time>
      </trkpt>
      <trkpt lat="48.33739" lon="2.74065">
        <ele>90.35296713096</ele>
        <time>2020-07-19T14:04:35Z</time>
      </trkpt>
      <trkpt lat="48.3373" lon="2.74067">
        <ele>90.378468157158</ele>
        <time>2020-07-19T14:04:42Z</time>
      </trkpt>
      <trkpt lat="48.33722" lon="2.74067">
        <ele>90.390397491628</ele>
        <time>2020-07-19T14:04:47Z</time>
      </trkpt>
      <trkpt lat="48.33714" lon="2.74066">
        <ele>90.403984233451</ele>
        <time>2020-07-19T14:04:54Z</time>
      </trkpt>
      <trkpt lat="48.33707" lon="2.74067">
        <ele>90.415437505423</ele>
        <time>2020-07-19T14:05:00Z</time>
      </trkpt>
      <trkpt lat="48.33698" lon="2.74067">
        <ele>90.436843453688</ele>
        <time>2020-07-19T14:05:07Z</time>
      </trkpt>
      <trkpt lat="48.33692" lon="2.7406">
        <ele>90.46571606693</ele>
        <time>2020-07-19T14:05:15Z</time>
      </trkpt>
      <trkpt lat="48.3369" lon="2.74049">
        <ele>90.487216665825</ele>
        <time>2020-07-19T14:05:23Z</time>
      </trkpt>
      <trkpt lat="48.33689" lon="2.74036">
        <ele>90.449421651433</ele>
        <time>2020-07-19T14:05:45Z</time>
      </trkpt>
      <trkpt lat="48.33687" lon="2.74023">
        <ele>90.408466470552</ele>
        <time>2020-07-19T14:05:51Z</time>
      </trkpt>
      <trkpt lat="48.33682" lon="2.74011">
        <ele>90.302899596027</ele>
        <time>2020-07-19T14:05:59Z</time>
      </trkpt>
      <trkpt lat="48.33682" lon="2.73998">
        <ele>90.173135261468</ele>
        <time>2020-07-19T14:06:10Z</time>
      </trkpt>
      <trkpt lat="48.33681" lon="2.73985">
        <ele>90.053452011431</ele>
        <time>2020-07-19T14:06:21Z</time>
      </trkpt>
      <trkpt lat="48.33681" lon="2.73973">
        <ele>89.97717627804</ele>
        <time>2020-07-19T14:06:28Z</time>
      </trkpt>
      <trkpt lat="48.33682" lon="2.7396">
        <ele>89.903465727121</ele>
        <time>2020-07-19T14:06:36Z</time>
      </trkpt>
      <trkpt lat="48.33682" lon="2.73948">
        <ele>89.824312836331</ele>
        <time>2020-07-19T14:06:44Z</time>
      </trkpt>
      <trkpt lat="48.33683" lon="2.73935">
        <ele>89.746922345184</ele>
        <time>2020-07-19T14:06:52Z</time>
      </trkpt>
      <trkpt lat="48.33684" lon="2.73922">
        <ele>89.690692945573</ele>
        <time>2020-07-19T14:07:00Z</time>
      </trkpt>
      <trkpt lat="48.33683" lon="2.7391">
        <ele>89.65816428042</ele>
        <time>2020-07-19T14:07:08Z</time>
      </trkpt>
      <trkpt lat="48.33683" lon="2.73897">
        <ele>89.654053659862</ele>
        <time>2020-07-19T14:07:15Z</time>
      </trkpt>
      <trkpt lat="48.33683" lon="2.73885">
        <ele>89.67221640418</ele>
        <time>2020-07-19T14:07:24Z</time>
      </trkpt>
      <trkpt lat="48.33674" lon="2.73883">
        <ele>89.708731961173</ele>
        <time>2020-07-19T14:07:44Z</time>
      </trkpt>
      <trkpt lat="48.33669" lon="2.73883">
        <ele>89.749112946549</ele>
        <time>2020-07-19T14:08:12Z</time>
      </trkpt>
      <trkpt lat="48.33669" lon="2.73883">
        <ele>89.749112946549</ele>
        <time>2020-07-19T14:08:12Z</time>
      </trkpt>
    </trkseg>
  </trk>
</gpx>